Wetterdaten: Mittwoch, 06.07.2016
Datum Zeit Temp. A. Temp. A. max Feuchte A. Luftdruck Regen Wind Richtung Richtung Sonnenschein ET UV Solar Taupunkt Windben
06.07.2016 00:00 16,6 C 16,6 C 75 % 1017,2 hPa 0,0 mm 1,9 km/h (1 Bft) S 190 0 min 0,000 mm 0,0 UV-I 0 W/m 12,1 C 3,2 km/h (1 Bft)
06.07.2016 00:01 16,5 C 16,6 C 75 % 1017,3 hPa 0,0 mm 0,1 km/h (0 Bft) S 190 0 min 0,000 mm 0,0 UV-I 0 W/m 12,1 C 1,6 km/h (1 Bft)
06.07.2016 00:02 16,6 C 16,6 C 74 % 1017,2 hPa 0,0 mm 0,6 km/h (0 Bft) S 190 0 min 0,000 mm 0,0 UV-I 0 W/m 11,9 C 1,6 km/h (1 Bft)
06.07.2016 00:03 16,6 C 16,6 C 75 % 1017,2 hPa 0,0 mm 0,3 km/h (0 Bft) S 190 0 min 0,000 mm 0,0 UV-I 0 W/m 12,1 C 1,6 km/h (1 Bft)
06.07.2016 00:04 16,6 C 16,6 C 75 % 1017,2 hPa 0,0 mm 1,9 km/h (1 Bft) S 190 0 min 0,000 mm 0,0 UV-I 0 W/m 12,1 C 3,2 km/h (1 Bft)
06.07.2016 00:05 16,6 C 16,6 C 74 % 1017,2 hPa 0,0 mm 2,1 km/h (1 Bft) S 190 0 min 0,000 mm 0,0 UV-I 0 W/m 11,9 C 3,2 km/h (1 Bft)
06.07.2016 00:06 16,5 C 16,6 C 76 % 1017,2 hPa 0,0 mm 2,5 km/h (1 Bft) S 186 0 min 0,000 mm 0,0 UV-I 0 W/m 12,3 C 3,2 km/h (1 Bft)
06.07.2016 00:07 16,4 C 16,5 C 76 % 1017,1 hPa 0,0 mm 1,9 km/h (1 Bft) S 186 0 min 0,000 mm 0,0 UV-I 0 W/m 12,2 C 3,2 km/h (1 Bft)
06.07.2016 00:08 16,4 C 16,4 C 75 % 1017,2 hPa 0,0 mm 1,3 km/h (1 Bft) S 186 0 min 0,000 mm 0,0 UV-I 0 W/m 12,0 C 3,2 km/h (1 Bft)
06.07.2016 00:09 16,4 C 16,4 C 74 % 1017,2 hPa 0,0 mm 2,3 km/h (1 Bft) S 186 0 min 0,000 mm 0,0 UV-I 0 W/m 11,8 C 3,2 km/h (1 Bft)
06.07.2016 00:10 16,4 C 16,4 C 74 % 1017,2 hPa 0,0 mm 1,7 km/h (1 Bft) S 186 0 min 0,000 mm 0,0 UV-I 0 W/m 11,8 C 3,2 km/h (1 Bft)
06.07.2016 00:11 16,5 C 16,5 C 74 % 1017,1 hPa 0,0 mm 1,5 km/h (1 Bft) S 186 0 min 0,000 mm 0,0 UV-I 0 W/m 11,8 C 3,2 km/h (1 Bft)
06.07.2016 00:12 16,4 C 16,5 C 74 % 1017,1 hPa 0,0 mm 2,3 km/h (1 Bft) S 186 0 min 0,000 mm 0,0 UV-I 0 W/m 11,8 C 3,2 km/h (1 Bft)
06.07.2016 00:13 16,5 C 16,5 C 74 % 1017,1 hPa 0,0 mm 2,4 km/h (1 Bft) S 184 0 min 0,000 mm 0,0 UV-I 0 W/m 11,8 C 3,2 km/h (1 Bft)
06.07.2016 00:14 16,6 C 16,6 C 74 % 1017,1 hPa 0,0 mm 1,9 km/h (1 Bft) S 188 0 min 0,000 mm 0,0 UV-I 0 W/m 11,9 C 3,2 km/h (1 Bft)
06.07.2016 00:15 16,6 C 16,6 C 75 % 1017,1 hPa 0,0 mm 1,8 km/h (1 Bft) S 188 0 min 0,000 mm 0,0 UV-I 0 W/m 12,1 C 3,2 km/h (1 Bft)
06.07.2016 00:16 16,4 C 16,6 C 76 % 1017,1 hPa 0,0 mm 2,0 km/h (1 Bft) S 188 0 min 0,000 mm 0,0 UV-I 0 W/m 12,2 C 3,2 km/h (1 Bft)
06.07.2016 00:17 16,4 C 16,5 C 76 % 1017,1 hPa 0,0 mm 2,4 km/h (1 Bft) S 188 0 min 0,000 mm 0,0 UV-I 0 W/m 12,2 C 3,2 km/h (1 Bft)
06.07.2016 00:18 16,4 C 16,4 C 76 % 1017,1 hPa 0,0 mm 2,3 km/h (1 Bft) S 188 0 min 0,000 mm 0,0 UV-I 0 W/m 12,2 C 3,2 km/h (1 Bft)
06.07.2016 00:19 16,3 C 16,4 C 77 % 1017,1 hPa 0,0 mm 1,7 km/h (1 Bft) S 188 0 min 0,000 mm 0,0 UV-I 0 W/m 12,3 C 3,2 km/h (1 Bft)
06.07.2016 00:20 16,3 C 16,3 C 77 % 1017,1 hPa 0,0 mm 1,8 km/h (1 Bft) S 188 0 min 0,000 mm 0,0 UV-I 0 W/m 12,3 C 4,8 km/h (1 Bft)
06.07.2016 00:21 16,3 C 16,3 C 77 % 1017,1 hPa 0,0 mm 2,3 km/h (1 Bft) S 186 0 min 0,000 mm 0,0 UV-I 0 W/m 12,3 C 4,8 km/h (1 Bft)
06.07.2016 00:22 16,3 C 16,3 C 76 % 1017,1 hPa 0,0 mm 0,8 km/h (0 Bft) S 186 0 min 0,000 mm 0,0 UV-I 0 W/m 12,1 C 1,6 km/h (1 Bft)
06.07.2016 00:23 16,2 C 16,3 C 79 % 1017,1 hPa 0,0 mm 1,0 km/h (0 Bft) S 186 0 min 0,000 mm 0,0 UV-I 0 W/m 12,6 C 1,6 km/h (1 Bft)
06.07.2016 00:24 16,1 C 16,2 C 78 % 1017,1 hPa 0,0 mm 0,8 km/h (0 Bft) S 186 0 min 0,000 mm 0,0 UV-I 0 W/m 12,3 C 1,6 km/h (1 Bft)
06.07.2016 00:25 16,1 C 16,2 C 79 % 1017,1 hPa 0,0 mm 0,8 km/h (0 Bft) S 186 0 min 0,000 mm 0,0 UV-I 0 W/m 12,5 C 1,6 km/h (1 Bft)
06.07.2016 00:26 16,1 C 16,1 C 79 % 1017,1 hPa 0,0 mm 0,9 km/h (0 Bft) S 186 0 min 0,000 mm 0,0 UV-I 0 W/m 12,5 C 1,6 km/h (1 Bft)
06.07.2016 00:27 16,0 C 16,1 C 79 % 1017,1 hPa 0,0 mm 0,0 km/h (0 Bft) S 186 0 min 0,000 mm 0,0 UV-I 0 W/m 12,4 C 0,0 km/h (0 Bft)
06.07.2016 00:28 16,0 C 16,1 C 78 % 1017,1 hPa 0,0 mm 1,5 km/h (1 Bft) S 186 0 min 0,000 mm 0,0 UV-I 0 W/m 12,2 C 3,2 km/h (1 Bft)
06.07.2016 00:29 16,0 C 16,0 C 78 % 1017,1 hPa 0,0 mm 0,6 km/h (0 Bft) S 186 0 min 0,000 mm 0,0 UV-I 0 W/m 12,2 C 1,6 km/h (1 Bft)
06.07.2016 00:30 16,0 C 16,0 C 78 % 1017,1 hPa 0,0 mm 1,2 km/h (1 Bft) S 186 0 min 0,000 mm 0,0 UV-I 0 W/m 12,2 C 3,2 km/h (1 Bft)
06.07.2016 00:31 15,9 C 16,0 C 77 % 1017,0 hPa 0,0 mm 0,9 km/h (0 Bft) S 186 0 min 0,000 mm 0,0 UV-I 0 W/m 11,9 C 1,6 km/h (1 Bft)
06.07.2016 00:32 15,9 C 16,0 C 76 % 1017,0 hPa 0,0 mm 1,1 km/h (1 Bft) S 186 0 min 0,000 mm 0,0 UV-I 0 W/m 11,7 C 3,2 km/h (1 Bft)
06.07.2016 00:33 16,0 C 16,0 C 78 % 1017,0 hPa 0,0 mm 1,5 km/h (1 Bft) S 185 0 min 0,000 mm 0,0 UV-I 0 W/m 12,2 C 3,2 km/h (1 Bft)
06.07.2016 00:34 16,0 C 16,0 C 77 % 1017,0 hPa 0,0 mm 2,3 km/h (1 Bft) S-SO 163 0 min 0,000 mm 0,0 UV-I 0 W/m 12,0 C 6,4 km/h (2 Bft)
06.07.2016 00:35 15,9 C 16,0 C 78 % 1017,0 hPa 0,0 mm 1,3 km/h (1 Bft) S-SO 163 0 min 0,000 mm 0,0 UV-I 0 W/m 12,1 C 3,2 km/h (1 Bft)
06.07.2016 00:36 15,9 C 15,9 C 76 % 1017,1 hPa 0,0 mm 2,0 km/h (1 Bft) S 189 0 min 0,000 mm 0,0 UV-I 0 W/m 11,7 C 4,8 km/h (1 Bft)
06.07.2016 00:37 16,0 C 16,0 C 77 % 1017,1 hPa 0,0 mm 0,6 km/h (0 Bft) S 189 0 min 0,000 mm 0,0 UV-I 0 W/m 12,0 C 1,6 km/h (1 Bft)
06.07.2016 00:38 16,0 C 16,0 C 78 % 1017,1 hPa 0,0 mm 0,7 km/h (0 Bft) S 189 0 min 0,000 mm 0,0 UV-I 0 W/m 12,2 C 1,6 km/h (1 Bft)
06.07.2016 00:39 16,1 C 16,1 C 77 % 1017,1 hPa 0,0 mm 0,4 km/h (0 Bft) S 189 0 min 0,000 mm 0,0 UV-I 0 W/m 12,1 C 1,6 km/h (1 Bft)
06.07.2016 00:40 16,1 C 16,1 C 77 % 1017,1 hPa 0,0 mm 1,5 km/h (1 Bft) S-SW 203 0 min 0,000 mm 0,0 UV-I 0 W/m 12,1 C 3,2 km/h (1 Bft)
06.07.2016 00:41 16,2 C 16,2 C 76 % 1017,1 hPa 0,0 mm 1,7 km/h (1 Bft) S 171 0 min 0,000 mm 0,0 UV-I 0 W/m 12,0 C 4,8 km/h (1 Bft)
06.07.2016 00:42 16,2 C 16,2 C 76 % 1017,1 hPa 0,0 mm 5,4 km/h (1 Bft) S 190 0 min 0,000 mm 0,0 UV-I 0 W/m 12,0 C 8,0 km/h (2 Bft)
06.07.2016 00:43 16,2 C 16,3 C 76 % 1017,1 hPa 0,0 mm 1,7 km/h (1 Bft) S 190 0 min 0,000 mm 0,0 UV-I 0 W/m 12,0 C 3,2 km/h (1 Bft)
06.07.2016 00:44 16,3 C 16,3 C 75 % 1017,1 hPa 0,0 mm 1,2 km/h (1 Bft) S-SW 195 0 min 0,000 mm 0,0 UV-I 0 W/m 11,9 C 3,2 km/h (1 Bft)
06.07.2016 00:45 16,3 C 16,3 C 75 % 1017,1 hPa 0,0 mm 1,5 km/h (1 Bft) S 190 0 min 0,000 mm 0,0 UV-I 0 W/m 11,9 C 3,2 km/h (1 Bft)
06.07.2016 00:46 16,3 C 16,3 C 76 % 1017,1 hPa 0,0 mm 1,9 km/h (1 Bft) S 189 0 min 0,000 mm 0,0 UV-I 0 W/m 12,1 C 3,2 km/h (1 Bft)
06.07.2016 00:47 16,4 C 16,4 C 74 % 1017,2 hPa 0,0 mm 2,1 km/h (1 Bft) S-SW 211 0 min 0,000 mm 0,0 UV-I 0 W/m 11,8 C 3,2 km/h (1 Bft)
06.07.2016 00:48 16,4 C 16,4 C 76 % 1017,2 hPa 0,0 mm 1,7 km/h (1 Bft) SO 136 0 min 0,000 mm 0,0 UV-I 0 W/m 12,2 C 4,8 km/h (1 Bft)
06.07.2016 00:49 16,3 C 16,4 C 75 % 1017,1 hPa 0,0 mm 1,9 km/h (1 Bft) S-SW 212 0 min 0,000 mm 0,0 UV-I 0 W/m 11,9 C 3,2 km/h (1 Bft)
06.07.2016 00:50 16,4 C 16,4 C 75 % 1017,1 hPa 0,0 mm 4,3 km/h (1 Bft) S-SW 192 0 min 0,000 mm 0,0 UV-I 0 W/m 12,0 C 8,0 km/h (2 Bft)
06.07.2016 00:51 16,4 C 16,4 C 75 % 1017,1 hPa 0,0 mm 2,0 km/h (1 Bft) S-SO 167 0 min 0,000 mm 0,0 UV-I 0 W/m 12,0 C 4,8 km/h (1 Bft)
06.07.2016 00:52 16,3 C 16,4 C 77 % 1017,1 hPa 0,0 mm 3,0 km/h (1 Bft) S 183 0 min 0,000 mm 0,0 UV-I 0 W/m 12,3 C 4,8 km/h (1 Bft)
06.07.2016 00:53 16,3 C 16,3 C 75 % 1017,2 hPa 0,0 mm 2,2 km/h (1 Bft) S 175 0 min 0,000 mm 0,0 UV-I 0 W/m 11,9 C 3,2 km/h (1 Bft)
06.07.2016 00:54 16,3 C 16,4 C 75 % 1017,2 hPa 0,0 mm 1,9 km/h (1 Bft) S 176 0 min 0,000 mm 0,0 UV-I 0 W/m 11,9 C 3,2 km/h (1 Bft)
06.07.2016 00:55 16,4 C 16,4 C 75 % 1017,1 hPa 0,0 mm 3,7 km/h (1 Bft) S-SW 202 0 min 0,000 mm 0,0 UV-I 0 W/m 12,0 C 8,0 km/h (2 Bft)
06.07.2016 00:56 16,4 C 16,4 C 75 % 1017,1 hPa 0,0 mm 1,9 km/h (1 Bft) W-NW 290 0 min 0,000 mm 0,0 UV-I 0 W/m 12,0 C 3,2 km/h (1 Bft)
06.07.2016 00:57 16,4 C 16,4 C 75 % 1017,1 hPa 0,0 mm 0,5 km/h (0 Bft) W-NW 290 0 min 0,000 mm 0,0 UV-I 0 W/m 12,0 C 1,6 km/h (1 Bft)
06.07.2016 00:58 16,4 C 16,4 C 76 % 1017,1 hPa 0,0 mm 1,0 km/h (0 Bft) W-NW 290 0 min 0,000 mm 0,0 UV-I 0 W/m 12,2 C 1,6 km/h (1 Bft)
06.07.2016 00:59 16,3 C 16,4 C 77 % 1017,1 hPa 0,0 mm 1,9 km/h (1 Bft) S-SW 213 0 min 0,000 mm 0,0 UV-I 0 W/m 12,3 C 3,2 km/h (1 Bft)
06.07.2016 01:00 16,2 C 16,3 C 76 % 1017,1 hPa 0,0 mm 0,5 km/h (0 Bft) S 179 0 min 0,025 mm 0,0 UV-I 0 W/m 12,0 C 3,2 km/h (1 Bft)
06.07.2016 01:01 16,2 C 16,3 C 75 % 1017,1 hPa 0,0 mm 2,5 km/h (1 Bft) S 173 0 min 0,000 mm 0,0 UV-I 0 W/m 11,8 C 6,4 km/h (2 Bft)
06.07.2016 01:02 16,2 C 16,3 C 76 % 1017,1 hPa 0,0 mm 5,6 km/h (1 Bft) S 190 0 min 0,000 mm 0,0 UV-I 0 W/m 12,0 C 8,0 km/h (2 Bft)
06.07.2016 01:03 16,2 C 16,3 C 76 % 1017,1 hPa 0,0 mm 4,6 km/h (1 Bft) W-SW 246 0 min 0,000 mm 0,0 UV-I 0 W/m 12,0 C 6,4 km/h (2 Bft)
06.07.2016 01:04 16,3 C 16,3 C 75 % 1017,0 hPa 0,0 mm 3,5 km/h (1 Bft) S-SW 207 0 min 0,000 mm 0,0 UV-I 0 W/m 11,9 C 6,4 km/h (2 Bft)
06.07.2016 01:05 16,3 C 16,3 C 77 % 1017,0 hPa 0,0 mm 2,6 km/h (1 Bft) S-SW 213 0 min 0,000 mm 0,0 UV-I 0 W/m 12,3 C 4,8 km/h (1 Bft)
06.07.2016 01:06 16,3 C 16,3 C 75 % 1017,0 hPa 0,0 mm 2,0 km/h (1 Bft) S 191 0 min 0,000 mm 0,0 UV-I 0 W/m 11,9 C 4,8 km/h (1 Bft)
06.07.2016 01:07 16,3 C 16,3 C 75 % 1017,1 hPa 0,0 mm 1,4 km/h (1 Bft) S 191 0 min 0,000 mm 0,0 UV-I 0 W/m 11,9 C 3,2 km/h (1 Bft)
06.07.2016 01:08 16,3 C 16,3 C 76 % 1017,1 hPa 0,0 mm 2,4 km/h (1 Bft) S 191 0 min 0,000 mm 0,0 UV-I 0 W/m 12,1 C 3,2 km/h (1 Bft)
06.07.2016 01:09 16,3 C 16,3 C 75 % 1017,1 hPa 0,0 mm 2,5 km/h (1 Bft) S 191 0 min 0,000 mm 0,0 UV-I 0 W/m 11,9 C 4,8 km/h (1 Bft)
06.07.2016 01:10 16,2 C 16,3 C 77 % 1017,1 hPa 0,0 mm 3,0 km/h (1 Bft) S-SW 209 0 min 0,000 mm 0,0 UV-I 0 W/m 12,2 C 4,8 km/h (1 Bft)
06.07.2016 01:11 16,2 C 16,2 C 76 % 1017,1 hPa 0,0 mm 3,0 km/h (1 Bft) S 185 0 min 0,000 mm 0,0 UV-I 0 W/m 12,0 C 6,4 km/h (2 Bft)
06.07.2016 01:12 16,2 C 16,2 C 75 % 1017,1 hPa 0,0 mm 3,3 km/h (1 Bft) S-SW 206 0 min 0,000 mm 0,0 UV-I 0 W/m 11,8 C 6,4 km/h (2 Bft)
06.07.2016 01:13 16,2 C 16,2 C 75 % 1017,1 hPa 0,0 mm 2,0 km/h (1 Bft) S-SW 201 0 min 0,000 mm 0,0 UV-I 0 W/m 11,8 C 3,2 km/h (1 Bft)
06.07.2016 01:14 16,3 C 16,3 C 75 % 1017,1 hPa 0,0 mm 1,7 km/h (1 Bft) S-SW 201 0 min 0,000 mm 0,0 UV-I 0 W/m 11,9 C 3,2 km/h (1 Bft)
06.07.2016 01:15 16,3 C 16,3 C 74 % 1017,1 hPa 0,0 mm 1,2 km/h (1 Bft) S-SW 201 0 min 0,000 mm 0,0 UV-I 0 W/m 11,7 C 3,2 km/h (1 Bft)
06.07.2016 01:16 16,3 C 16,3 C 74 % 1017,1 hPa 0,0 mm 2,8 km/h (1 Bft) W-SW 242 0 min 0,000 mm 0,0 UV-I 0 W/m 11,7 C 4,8 km/h (1 Bft)
06.07.2016 01:17 16,4 C 16,4 C 74 % 1017,1 hPa 0,0 mm 1,3 km/h (1 Bft) W-SW 242 0 min 0,000 mm 0,0 UV-I 0 W/m 11,8 C 3,2 km/h (1 Bft)
06.07.2016 01:18 16,4 C 16,4 C 74 % 1017,1 hPa 0,0 mm 1,3 km/h (1 Bft) SW 232 0 min 0,000 mm 0,0 UV-I 0 W/m 11,8 C 3,2 km/h (1 Bft)
06.07.2016 01:19 16,4 C 16,4 C 74 % 1017,1 hPa 0,0 mm 1,0 km/h (0 Bft) SW 232 0 min 0,000 mm 0,0 UV-I 0 W/m 11,8 C 3,2 km/h (1 Bft)
06.07.2016 01:20 16,4 C 16,4 C 74 % 1017,1 hPa 0,0 mm 1,5 km/h (1 Bft) SW 221 0 min 0,000 mm 0,0 UV-I 0 W/m 11,8 C 3,2 km/h (1 Bft)
06.07.2016 01:21 16,4 C 16,4 C 74 % 1017,0 hPa 0,0 mm 1,9 km/h (1 Bft) S 173 0 min 0,000 mm 0,0 UV-I 0 W/m 11,8 C 3,2 km/h (1 Bft)
06.07.2016 01:22 16,4 C 16,4 C 75 % 1017,1 hPa 0,0 mm 2,2 km/h (1 Bft) S 173 0 min 0,000 mm 0,0 UV-I 0 W/m 12,0 C 3,2 km/h (1 Bft)
06.07.2016 01:23 16,3 C 16,4 C 76 % 1017,0 hPa 0,0 mm 0,4 km/h (0 Bft) S 173 0 min 0,000 mm 0,0 UV-I 0 W/m 12,1 C 1,6 km/h (1 Bft)
06.07.2016 01:24 16,3 C 16,3 C 74 % 1017,0 hPa 0,0 mm 1,3 km/h (1 Bft) S 186 0 min 0,000 mm 0,0 UV-I 0 W/m 11,7 C 3,2 km/h (1 Bft)
06.07.2016 01:25 16,3 C 16,3 C 74 % 1017,0 hPa 0,0 mm 1,6 km/h (1 Bft) W-SW 237 0 min 0,000 mm 0,0 UV-I 0 W/m 11,7 C 3,2 km/h (1 Bft)
06.07.2016 01:26 16,2 C 16,3 C 75 % 1017,0 hPa 0,0 mm 0,6 km/h (0 Bft) W-SW 237 0 min 0,000 mm 0,0 UV-I 0 W/m 11,8 C 1,6 km/h (1 Bft)
06.07.2016 01:27 16,2 C 16,2 C 74 % 1017,0 hPa 0,0 mm 1,5 km/h (1 Bft) SW 225 0 min 0,000 mm 0,0 UV-I 0 W/m 11,6 C 3,2 km/h (1 Bft)
06.07.2016 01:28 16,2 C 16,2 C 75 % 1017,0 hPa 0,0 mm 1,5 km/h (1 Bft) SW 225 0 min 0,000 mm 0,0 UV-I 0 W/m 11,8 C 3,2 km/h (1 Bft)
06.07.2016 01:29 16,2 C 16,2 C 74 % 1017,0 hPa 0,0 mm 1,1 km/h (1 Bft) S-SW 198 0 min 0,000 mm 0,0 UV-I 0 W/m 11,6 C 1,6 km/h (1 Bft)
06.07.2016 01:30 16,2 C 16,2 C 74 % 1017,1 hPa 0,0 mm 2,2 km/h (1 Bft) S-SW 197 0 min 0,000 mm 0,0 UV-I 0 W/m 11,6 C 3,2 km/h (1 Bft)
06.07.2016 01:31 16,2 C 16,2 C 74 % 1017,1 hPa 0,0 mm 1,3 km/h (1 Bft) S-SW 197 0 min 0,000 mm 0,0 UV-I 0 W/m 11,6 C 1,6 km/h (1 Bft)
06.07.2016 01:32 16,2 C 16,2 C 74 % 1017,1 hPa 0,0 mm 4,2 km/h (1 Bft) S 186 0 min 0,000 mm 0,0 UV-I 0 W/m 11,6 C 6,4 km/h (2 Bft)
06.07.2016 01:33 16,2 C 16,3 C 74 % 1017,1 hPa 0,0 mm 1,9 km/h (1 Bft) S 178 0 min 0,000 mm 0,0 UV-I 0 W/m 11,6 C 3,2 km/h (1 Bft)
06.07.2016 01:34 16,3 C 16,3 C 73 % 1017,1 hPa 0,0 mm 2,7 km/h (1 Bft) S-SW 192 0 min 0,000 mm 0,0 UV-I 0 W/m 11,4 C 3,2 km/h (1 Bft)
06.07.2016 01:35 16,3 C 16,3 C 74 % 1017,1 hPa 0,0 mm 1,9 km/h (1 Bft) S 187 0 min 0,000 mm 0,0 UV-I 0 W/m 11,7 C 4,8 km/h (1 Bft)
06.07.2016 01:36 16,3 C 16,3 C 74 % 1017,0 hPa 0,0 mm 2,3 km/h (1 Bft) S-SW 197 0 min 0,000 mm 0,0 UV-I 0 W/m 11,7 C 3,2 km/h (1 Bft)
06.07.2016 01:37 16,3 C 16,3 C 73 % 1017,1 hPa 0,0 mm 1,9 km/h (1 Bft) S-SW 197 0 min 0,000 mm 0,0 UV-I 0 W/m 11,4 C 3,2 km/h (1 Bft)
06.07.2016 01:38 16,3 C 16,3 C 73 % 1017,1 hPa 0,0 mm 1,5 km/h (1 Bft) S-SW 204 0 min 0,000 mm 0,0 UV-I 0 W/m 11,4 C 3,2 km/h (1 Bft)
06.07.2016 01:39 16,3 C 16,3 C 73 % 1017,0 hPa 0,0 mm 2,5 km/h (1 Bft) S-SW 194 0 min 0,000 mm 0,0 UV-I 0 W/m 11,4 C 4,8 km/h (1 Bft)
06.07.2016 01:40 16,4 C 16,4 C 73 % 1017,0 hPa 0,0 mm 3,7 km/h (1 Bft) S-SW 200 0 min 0,000 mm 0,0 UV-I 0 W/m 11,5 C 4,8 km/h (1 Bft)
06.07.2016 01:41 16,4 C 16,4 C 73 % 1017,1 hPa 0,0 mm 2,6 km/h (1 Bft) S-SO 151 0 min 0,000 mm 0,0 UV-I 0 W/m 11,5 C 6,4 km/h (2 Bft)
06.07.2016 01:42 16,4 C 16,4 C 74 % 1017,1 hPa 0,0 mm 1,9 km/h (1 Bft) S-SO 159 0 min 0,000 mm 0,0 UV-I 0 W/m 11,8 C 3,2 km/h (1 Bft)
06.07.2016 01:43 16,3 C 16,4 C 74 % 1017,0 hPa 0,0 mm 2,2 km/h (1 Bft) S-SW 196 0 min 0,000 mm 0,0 UV-I 0 W/m 11,7 C 3,2 km/h (1 Bft)
06.07.2016 01:44 16,3 C 16,3 C 73 % 1017,0 hPa 0,0 mm 0,9 km/h (0 Bft) S-SW 196 0 min 0,000 mm 0,0 UV-I 0 W/m 11,4 C 1,6 km/h (1 Bft)
06.07.2016 01:45 16,3 C 16,3 C 73 % 1017,0 hPa 0,0 mm 2,3 km/h (1 Bft) S-SW 196 0 min 0,000 mm 0,0 UV-I 0 W/m 11,4 C 4,8 km/h (1 Bft)
06.07.2016 01:46 16,3 C 16,3 C 73 % 1017,0 hPa 0,0 mm 1,1 km/h (1 Bft) S-SW 196 0 min 0,000 mm 0,0 UV-I 0 W/m 11,4 C 1,6 km/h (1 Bft)
06.07.2016 01:47 16,4 C 16,4 C 73 % 1017,0 hPa 0,0 mm 1,9 km/h (1 Bft) S 175 0 min 0,000 mm 0,0 UV-I 0 W/m 11,5 C 3,2 km/h (1 Bft)
06.07.2016 01:48 16,4 C 16,4 C 73 % 1017,0 hPa 0,0 mm 1,3 km/h (1 Bft) S 175 0 min 0,000 mm 0,0 UV-I 0 W/m 11,5 C 1,6 km/h (1 Bft)
06.07.2016 01:49 16,4 C 16,4 C 73 % 1017,0 hPa 0,0 mm 0,3 km/h (0 Bft) S 175 0 min 0,000 mm 0,0 UV-I 0 W/m 11,5 C 1,6 km/h (1 Bft)
06.07.2016 01:50 16,4 C 16,4 C 73 % 1017,0 hPa 0,0 mm 0,5 km/h (0 Bft) S 175 0 min 0,000 mm 0,0 UV-I 0 W/m 11,5 C 1,6 km/h (1 Bft)
06.07.2016 01:51 16,4 C 16,4 C 73 % 1016,9 hPa 0,0 mm 1,9 km/h (1 Bft) S 175 0 min 0,000 mm 0,0 UV-I 0 W/m 11,5 C 3,2 km/h (1 Bft)
06.07.2016 01:52 16,4 C 16,4 C 73 % 1016,9 hPa 0,0 mm 2,0 km/h (1 Bft) W-SW 244 0 min 0,000 mm 0,0 UV-I 0 W/m 11,5 C 3,2 km/h (1 Bft)
06.07.2016 01:53 16,4 C 16,4 C 73 % 1016,9 hPa 0,0 mm 2,2 km/h (1 Bft) S 191 0 min 0,000 mm 0,0 UV-I 0 W/m 11,5 C 3,2 km/h (1 Bft)
06.07.2016 01:54 16,4 C 16,4 C 73 % 1017,0 hPa 0,0 mm 2,9 km/h (1 Bft) S-SW 193 0 min 0,000 mm 0,0 UV-I 0 W/m 11,5 C 4,8 km/h (1 Bft)
06.07.2016 01:55 16,3 C 16,4 C 73 % 1017,0 hPa 0,0 mm 3,0 km/h (1 Bft) S 180 0 min 0,000 mm 0,0 UV-I 0 W/m 11,4 C 4,8 km/h (1 Bft)
06.07.2016 01:56 16,3 C 16,3 C 73 % 1017,0 hPa 0,0 mm 2,3 km/h (1 Bft) S-SW 196 0 min 0,000 mm 0,0 UV-I 0 W/m 11,4 C 3,2 km/h (1 Bft)
06.07.2016 01:57 16,3 C 16,3 C 74 % 1017,0 hPa 0,0 mm 2,1 km/h (1 Bft) S-SW 195 0 min 0,000 mm 0,0 UV-I 0 W/m 11,7 C 3,2 km/h (1 Bft)
06.07.2016 01:58 16,3 C 16,3 C 73 % 1017,0 hPa 0,0 mm 2,5 km/h (1 Bft) S-SW 194 0 min 0,000 mm 0,0 UV-I 0 W/m 11,4 C 3,2 km/h (1 Bft)
06.07.2016 01:59 16,2 C 16,3 C 74 % 1017,0 hPa 0,0 mm 3,9 km/h (1 Bft) S 188 0 min 0,000 mm 0,0 UV-I 0 W/m 11,6 C 4,8 km/h (1 Bft)
06.07.2016 02:00 16,2 C 16,2 C 73 % 1017,0 hPa 0,0 mm 3,2 km/h (1 Bft) S 188 0 min 0,000 mm 0,0 UV-I 0 W/m 11,4 C 6,4 km/h (2 Bft)
06.07.2016 02:01 16,3 C 16,3 C 73 % 1016,9 hPa 0,0 mm 2,1 km/h (1 Bft) S 188 0 min 0,025 mm 0,0 UV-I 0 W/m 11,4 C 3,2 km/h (1 Bft)
06.07.2016 02:02 16,3 C 16,3 C 73 % 1017,0 hPa 0,0 mm 2,3 km/h (1 Bft) S 188 0 min 0,001 mm 0,0 UV-I 0 W/m 11,4 C 3,2 km/h (1 Bft)
06.07.2016 02:03 16,3 C 16,3 C 74 % 1017,0 hPa 0,0 mm 1,3 km/h (1 Bft) S 188 0 min 0,000 mm 0,0 UV-I 0 W/m 11,7 C 1,6 km/h (1 Bft)
06.07.2016 02:04 16,3 C 16,3 C 73 % 1017,0 hPa 0,0 mm 1,7 km/h (1 Bft) SW 229 0 min 0,000 mm 0,0 UV-I 0 W/m 11,4 C 3,2 km/h (1 Bft)
06.07.2016 02:05 16,3 C 16,3 C 74 % 1017,0 hPa 0,0 mm 1,7 km/h (1 Bft) SW 219 0 min 0,000 mm 0,0 UV-I 0 W/m 11,7 C 3,2 km/h (1 Bft)
06.07.2016 02:06 16,3 C 16,3 C 73 % 1017,0 hPa 0,0 mm 3,7 km/h (1 Bft) S 186 0 min 0,000 mm 0,0 UV-I 0 W/m 11,4 C 4,8 km/h (1 Bft)
06.07.2016 02:07 16,3 C 16,3 C 74 % 1017,0 hPa 0,0 mm 1,0 km/h (0 Bft) S 186 0 min 0,000 mm 0,0 UV-I 0 W/m 11,7 C 3,2 km/h (1 Bft)
06.07.2016 02:08 16,3 C 16,3 C 73 % 1017,0 hPa 0,0 mm 1,0 km/h (0 Bft) S 186 0 min 0,000 mm 0,0 UV-I 0 W/m 11,4 C 1,6 km/h (1 Bft)
06.07.2016 02:09 16,3 C 16,3 C 74 % 1017,0 hPa 0,0 mm 0,3 km/h (0 Bft) S 186 0 min 0,000 mm 0,0 UV-I 0 W/m 11,7 C 1,6 km/h (1 Bft)
06.07.2016 02:10 16,3 C 16,3 C 73 % 1017,0 hPa 0,0 mm 0,3 km/h (0 Bft) S 186 0 min 0,000 mm 0,0 UV-I 0 W/m 11,4 C 1,6 km/h (1 Bft)
06.07.2016 02:11 16,3 C 16,3 C 73 % 1017,0 hPa 0,0 mm 2,7 km/h (1 Bft) S 186 0 min 0,000 mm 0,0 UV-I 0 W/m 11,4 C 4,8 km/h (1 Bft)
06.07.2016 02:12 16,3 C 16,3 C 74 % 1017,0 hPa 0,0 mm 2,0 km/h (1 Bft) S 186 0 min 0,000 mm 0,0 UV-I 0 W/m 11,7 C 3,2 km/h (1 Bft)
06.07.2016 02:13 16,3 C 16,3 C 73 % 1017,0 hPa 0,0 mm 2,0 km/h (1 Bft) S-SW 212 0 min 0,000 mm 0,0 UV-I 0 W/m 11,4 C 3,2 km/h (1 Bft)
06.07.2016 02:14 16,3 C 16,3 C 73 % 1016,9 hPa 0,0 mm 1,9 km/h (1 Bft) S-SW 205 0 min 0,000 mm 0,0 UV-I 0 W/m 11,4 C 3,2 km/h (1 Bft)
06.07.2016 02:15 16,3 C 16,4 C 73 % 1016,9 hPa 0,0 mm 2,2 km/h (1 Bft) S 184 0 min 0,000 mm 0,0 UV-I 0 W/m 11,4 C 3,2 km/h (1 Bft)
06.07.2016 02:16 16,4 C 16,4 C 73 % 1016,9 hPa 0,0 mm 1,5 km/h (1 Bft) S 184 0 min 0,000 mm 0,0 UV-I 0 W/m 11,5 C 1,6 km/h (1 Bft)
06.07.2016 02:17 16,3 C 16,4 C 73 % 1016,9 hPa 0,0 mm 1,9 km/h (1 Bft) S 184 0 min 0,000 mm 0,0 UV-I 0 W/m 11,4 C 3,2 km/h (1 Bft)
06.07.2016 02:18 16,3 C 16,3 C 73 % 1016,9 hPa 0,0 mm 2,3 km/h (1 Bft) S 184 0 min 0,000 mm 0,0 UV-I 0 W/m 11,4 C 3,2 km/h (1 Bft)
06.07.2016 02:19 16,3 C 16,3 C 73 % 1016,9 hPa 0,0 mm 1,8 km/h (1 Bft) S 183 0 min 0,000 mm 0,0 UV-I 0 W/m 11,4 C 3,2 km/h (1 Bft)
06.07.2016 02:20 16,3 C 16,3 C 73 % 1016,9 hPa 0,0 mm 1,7 km/h (1 Bft) S-SW 192 0 min 0,000 mm 0,0 UV-I 0 W/m 11,4 C 3,2 km/h (1 Bft)
06.07.2016 02:21 16,2 C 16,3 C 73 % 1016,9 hPa 0,0 mm 1,8 km/h (1 Bft) S-SW 192 0 min 0,000 mm 0,0 UV-I 0 W/m 11,4 C 3,2 km/h (1 Bft)
06.07.2016 02:22 16,2 C 16,2 C 74 % 1016,9 hPa 0,0 mm 1,6 km/h (1 Bft) S-SW 192 0 min 0,000 mm 0,0 UV-I 0 W/m 11,6 C 3,2 km/h (1 Bft)
06.07.2016 02:23 16,1 C 16,2 C 73 % 1016,9 hPa 0,0 mm 0,9 km/h (0 Bft) S-SW 192 0 min 0,000 mm 0,0 UV-I 0 W/m 11,3 C 1,6 km/h (1 Bft)
06.07.2016 02:24 16,1 C 16,1 C 74 % 1016,9 hPa 0,0 mm 0,6 km/h (0 Bft) S-SW 196 0 min 0,000 mm 0,0 UV-I 0 W/m 11,5 C 1,6 km/h (1 Bft)
06.07.2016 02:25 16,1 C 16,1 C 74 % 1016,8 hPa 0,0 mm 1,7 km/h (1 Bft) S 182 0 min 0,000 mm 0,0 UV-I 0 W/m 11,5 C 3,2 km/h (1 Bft)
06.07.2016 02:26 16,1 C 16,1 C 74 % 1016,8 hPa 0,0 mm 0,9 km/h (0 Bft) S 182 0 min 0,000 mm 0,0 UV-I 0 W/m 11,5 C 1,6 km/h (1 Bft)
06.07.2016 02:27 16,0 C 16,1 C 74 % 1016,9 hPa 0,0 mm 0,9 km/h (0 Bft) S 183 0 min 0,000 mm 0,0 UV-I 0 W/m 11,4 C 3,2 km/h (1 Bft)
06.07.2016 02:28 16,0 C 16,1 C 74 % 1016,8 hPa 0,0 mm 3,0 km/h (1 Bft) S 181 0 min 0,000 mm 0,0 UV-I 0 W/m 11,4 C 3,2 km/h (1 Bft)
06.07.2016 02:29 16,0 C 16,0 C 74 % 1016,8 hPa 0,0 mm 1,8 km/h (1 Bft) S 182 0 min 0,000 mm 0,0 UV-I 0 W/m 11,4 C 3,2 km/h (1 Bft)
06.07.2016 02:30 16,0 C 16,0 C 74 % 1016,8 hPa 0,0 mm 2,1 km/h (1 Bft) S 182 0 min 0,000 mm 0,0 UV-I 0 W/m 11,4 C 3,2 km/h (1 Bft)
06.07.2016 02:31 16,0 C 16,1 C 74 % 1016,8 hPa 0,0 mm 2,0 km/h (1 Bft) S 182 0 min 0,000 mm 0,0 UV-I 0 W/m 11,4 C 3,2 km/h (1 Bft)
06.07.2016 02:32 16,0 C 16,0 C 74 % 1016,8 hPa 0,0 mm 2,2 km/h (1 Bft) S 190 0 min 0,000 mm 0,0 UV-I 0 W/m 11,4 C 4,8 km/h (1 Bft)
06.07.2016 02:33 16,0 C 16,0 C 74 % 1016,8 hPa 0,0 mm 2,3 km/h (1 Bft) S 190 0 min 0,000 mm 0,0 UV-I 0 W/m 11,4 C 3,2 km/h (1 Bft)
06.07.2016 02:34 15,9 C 16,0 C 74 % 1016,8 hPa 0,0 mm 1,0 km/h (0 Bft) S 190 0 min 0,000 mm 0,0 UV-I 0 W/m 11,3 C 1,6 km/h (1 Bft)
06.07.2016 02:35 15,9 C 15,9 C 74 % 1016,8 hPa 0,0 mm 1,6 km/h (1 Bft) W-NW 284 0 min 0,000 mm 0,0 UV-I 0 W/m 11,3 C 3,2 km/h (1 Bft)
06.07.2016 02:36 15,9 C 15,9 C 74 % 1016,8 hPa 0,0 mm 0,9 km/h (0 Bft) W-NW 284 0 min 0,000 mm 0,0 UV-I 0 W/m 11,3 C 1,6 km/h (1 Bft)
06.07.2016 02:37 15,9 C 15,9 C 74 % 1016,8 hPa 0,0 mm 1,3 km/h (1 Bft) SW 217 0 min 0,000 mm 0,0 UV-I 0 W/m 11,3 C 3,2 km/h (1 Bft)
06.07.2016 02:38 15,9 C 15,9 C 74 % 1016,8 hPa 0,0 mm 2,3 km/h (1 Bft) S-SW 210 0 min 0,000 mm 0,0 UV-I 0 W/m 11,3 C 4,8 km/h (1 Bft)
06.07.2016 02:39 15,9 C 15,9 C 74 % 1016,9 hPa 0,0 mm 2,2 km/h (1 Bft) S 176 0 min 0,000 mm 0,0 UV-I 0 W/m 11,3 C 4,8 km/h (1 Bft)
06.07.2016 02:40 16,0 C 16,0 C 74 % 1016,8 hPa 0,0 mm 1,1 km/h (1 Bft) S-SW 194 0 min 0,000 mm 0,0 UV-I 0 W/m 11,4 C 3,2 km/h (1 Bft)
06.07.2016 02:41 16,1 C 16,1 C 74 % 1016,8 hPa 0,0 mm 0,0 km/h (0 Bft) S-SW 194 0 min 0,000 mm 0,0 UV-I 0 W/m 11,5 C 0,0 km/h (0 Bft)
06.07.2016 02:42 16,1 C 16,1 C 74 % 1016,9 hPa 0,0 mm 0,0 km/h (0 Bft) S-SW 201 0 min 0,000 mm 0,0 UV-I 0 W/m 11,5 C 0,0 km/h (0 Bft)
06.07.2016 02:43 16,0 C 16,1 C 74 % 1016,9 hPa 0,0 mm 0,0 km/h (0 Bft) S-SW 201 0 min 0,000 mm 0,0 UV-I 0 W/m 11,4 C 0,0 km/h (0 Bft)
06.07.2016 02:44 16,0 C 16,1 C 75 % 1016,9 hPa 0,0 mm 1,9 km/h (1 Bft) W-SW 240 0 min 0,000 mm 0,0 UV-I 0 W/m 11,6 C 4,8 km/h (1 Bft)
06.07.2016 02:45 16,0 C 16,1 C 75 % 1016,9 hPa 0,0 mm 1,6 km/h (1 Bft) W-SW 240 0 min 0,000 mm 0,0 UV-I 0 W/m 11,6 C 3,2 km/h (1 Bft)
06.07.2016 02:46 16,0 C 16,0 C 74 % 1016,9 hPa 0,0 mm 0,9 km/h (0 Bft) W-SW 240 0 min 0,000 mm 0,0 UV-I 0 W/m 11,4 C 1,6 km/h (1 Bft)
06.07.2016 02:47 16,0 C 16,0 C 74 % 1016,8 hPa 0,0 mm 1,3 km/h (1 Bft) SW 234 0 min 0,000 mm 0,0 UV-I 0 W/m 11,4 C 3,2 km/h (1 Bft)
06.07.2016 02:48 16,0 C 16,0 C 74 % 1016,9 hPa 0,0 mm 1,5 km/h (1 Bft) W-SW 240 0 min 0,000 mm 0,0 UV-I 0 W/m 11,4 C 3,2 km/h (1 Bft)
06.07.2016 02:49 16,0 C 16,0 C 74 % 1016,9 hPa 0,0 mm 1,9 km/h (1 Bft) S-SW 197 0 min 0,000 mm 0,0 UV-I 0 W/m 11,4 C 3,2 km/h (1 Bft)
06.07.2016 02:50 16,0 C 16,0 C 74 % 1016,8 hPa 0,0 mm 3,0 km/h (1 Bft) SW 220 0 min 0,000 mm 0,0 UV-I 0 W/m 11,4 C 8,0 km/h (2 Bft)
06.07.2016 02:51 16,1 C 16,1 C 75 % 1016,8 hPa 0,0 mm 3,3 km/h (1 Bft) W-NW 292 0 min 0,000 mm 0,0 UV-I 0 W/m 11,7 C 4,8 km/h (1 Bft)
06.07.2016 02:52 16,0 C 16,1 C 74 % 1016,8 hPa 0,0 mm 4,3 km/h (1 Bft) S 182 0 min 0,000 mm 0,0 UV-I 0 W/m 11,4 C 6,4 km/h (2 Bft)
06.07.2016 02:53 16,1 C 16,1 C 73 % 1016,8 hPa 0,0 mm 2,0 km/h (1 Bft) W-SW 242 0 min 0,000 mm 0,0 UV-I 0 W/m 11,3 C 3,2 km/h (1 Bft)
06.07.2016 02:54 16,1 C 16,1 C 73 % 1016,8 hPa 0,0 mm 1,8 km/h (1 Bft) W-SW 237 0 min 0,000 mm 0,0 UV-I 0 W/m 11,3 C 3,2 km/h (1 Bft)
06.07.2016 02:55 16,1 C 16,1 C 73 % 1016,8 hPa 0,0 mm 1,1 km/h (1 Bft) SW 236 0 min 0,000 mm 0,0 UV-I 0 W/m 11,3 C 1,6 km/h (1 Bft)
06.07.2016 02:56 16,1 C 16,1 C 74 % 1016,8 hPa 0,0 mm 3,4 km/h (1 Bft) W-SW 257 0 min 0,000 mm 0,0 UV-I 0 W/m 11,5 C 4,8 km/h (1 Bft)
06.07.2016 02:57 16,1 C 16,1 C 73 % 1016,8 hPa 0,0 mm 3,2 km/h (1 Bft) W-SW 240 0 min 0,000 mm 0,0 UV-I 0 W/m 11,3 C 6,4 km/h (2 Bft)
06.07.2016 02:58 16,1 C 16,1 C 73 % 1016,8 hPa 0,0 mm 2,7 km/h (1 Bft) S-SW 205 0 min 0,000 mm 0,0 UV-I 0 W/m 11,3 C 4,8 km/h (1 Bft)
06.07.2016 02:59 16,1 C 16,1 C 74 % 1016,8 hPa 0,0 mm 0,5 km/h (0 Bft) S-SW 205 0 min 0,000 mm 0,0 UV-I 0 W/m 11,5 C 1,6 km/h (1 Bft)
06.07.2016 03:00 16,1 C 16,1 C 73 % 1016,7 hPa 0,0 mm 0,9 km/h (0 Bft) S-SW 205 0 min 0,025 mm 0,0 UV-I 0 W/m 11,3 C 3,2 km/h (1 Bft)
06.07.2016 03:01 16,1 C 16,1 C 73 % 1016,7 hPa 0,0 mm 0,3 km/h (0 Bft) S-SW 205 0 min 0,000 mm 0,0 UV-I 0 W/m 11,3 C 1,6 km/h (1 Bft)
06.07.2016 03:02 16,1 C 16,1 C 73 % 1016,7 hPa 0,0 mm 2,3 km/h (1 Bft) SW 227 0 min 0,000 mm 0,0 UV-I 0 W/m 11,3 C 4,8 km/h (1 Bft)
06.07.2016 03:03 16,1 C 16,1 C 73 % 1016,7 hPa 0,0 mm 2,8 km/h (1 Bft) W-SW 242 0 min 0,000 mm 0,0 UV-I 0 W/m 11,3 C 4,8 km/h (1 Bft)
06.07.2016 03:04 16,1 C 16,1 C 73 % 1016,8 hPa 0,0 mm 0,7 km/h (0 Bft) W-SW 242 0 min 0,000 mm 0,0 UV-I 0 W/m 11,3 C 1,6 km/h (1 Bft)
06.07.2016 03:05 16,1 C 16,1 C 75 % 1016,7 hPa 0,0 mm 2,4 km/h (1 Bft) W-SW 240 0 min 0,000 mm 0,0 UV-I 0 W/m 11,7 C 4,8 km/h (1 Bft)
06.07.2016 03:06 16,1 C 16,1 C 74 % 1016,8 hPa 0,0 mm 5,2 km/h (1 Bft) W-SW 258 0 min 0,000 mm 0,0 UV-I 0 W/m 11,5 C 6,4 km/h (2 Bft)
06.07.2016 03:07 15,9 C 16,1 C 74 % 1016,7 hPa 0,0 mm 1,9 km/h (1 Bft) W-SW 250 0 min 0,000 mm 0,0 UV-I 0 W/m 11,3 C 3,2 km/h (1 Bft)
06.07.2016 03:08 15,9 C 16,0 C 74 % 1016,7 hPa 0,0 mm 3,0 km/h (1 Bft) SW 229 0 min 0,000 mm 0,0 UV-I 0 W/m 11,3 C 4,8 km/h (1 Bft)
06.07.2016 03:09 15,9 C 15,9 C 74 % 1016,7 hPa 0,0 mm 0,9 km/h (0 Bft) SW 229 0 min 0,000 mm 0,0 UV-I 0 W/m 11,3 C 1,6 km/h (1 Bft)
06.07.2016 03:10 15,9 C 15,9 C 74 % 1016,7 hPa 0,0 mm 0,8 km/h (0 Bft) SW 229 0 min 0,000 mm 0,0 UV-I 0 W/m 11,3 C 1,6 km/h (1 Bft)
06.07.2016 03:11 15,9 C 15,9 C 74 % 1016,7 hPa 0,0 mm 1,4 km/h (1 Bft) W-SW 250 0 min 0,000 mm 0,0 UV-I 0 W/m 11,3 C 3,2 km/h (1 Bft)
06.07.2016 03:12 15,9 C 15,9 C 75 % 1016,7 hPa 0,0 mm 3,5 km/h (1 Bft) W 268 0 min 0,000 mm 0,0 UV-I 0 W/m 11,5 C 6,4 km/h (2 Bft)
06.07.2016 03:13 15,9 C 15,9 C 75 % 1016,7 hPa 0,0 mm 1,7 km/h (1 Bft) W 268 0 min 0,000 mm 0,0 UV-I 0 W/m 11,5 C 3,2 km/h (1 Bft)
06.07.2016 03:14 15,8 C 15,9 C 74 % 1016,6 hPa 0,0 mm 1,5 km/h (1 Bft) W 266 0 min 0,000 mm 0,0 UV-I 0 W/m 11,2 C 3,2 km/h (1 Bft)
06.07.2016 03:15 15,8 C 15,9 C 75 % 1016,6 hPa 0,0 mm 0,7 km/h (0 Bft) W 266 0 min 0,000 mm 0,0 UV-I 0 W/m 11,4 C 3,2 km/h (1 Bft)
06.07.2016 03:16 15,8 C 15,8 C 74 % 1016,7 hPa 0,0 mm 0,3 km/h (0 Bft) W 266 0 min 0,000 mm 0,0 UV-I 0 W/m 11,2 C 1,6 km/h (1 Bft)
06.07.2016 03:17 15,8 C 15,8 C 75 % 1016,7 hPa 0,0 mm 0,9 km/h (0 Bft) W-SW 256 0 min 0,000 mm 0,0 UV-I 0 W/m 11,4 C 3,2 km/h (1 Bft)
06.07.2016 03:18 15,8 C 15,8 C 75 % 1016,7 hPa 0,0 mm 0,5 km/h (0 Bft) W-SW 256 0 min 0,000 mm 0,0 UV-I 0 W/m 11,4 C 1,6 km/h (1 Bft)
06.07.2016 03:19 15,8 C 15,8 C 74 % 1016,7 hPa 0,0 mm 0,1 km/h (0 Bft) W-SW 256 0 min 0,000 mm 0,0 UV-I 0 W/m 11,2 C 1,6 km/h (1 Bft)
06.07.2016 03:20 15,8 C 15,8 C 75 % 1016,7 hPa 0,0 mm 0,0 km/h (0 Bft) W-SW 256 0 min 0,000 mm 0,0 UV-I 0 W/m 11,4 C 0,0 km/h (0 Bft)
06.07.2016 03:21 15,8 C 15,8 C 75 % 1016,7 hPa 0,0 mm 1,5 km/h (1 Bft) W-SW 256 0 min 0,000 mm 0,0 UV-I 0 W/m 11,4 C 3,2 km/h (1 Bft)
06.07.2016 03:22 15,8 C 15,8 C 75 % 1016,6 hPa 0,0 mm 0,9 km/h (0 Bft) W-SW 256 0 min 0,000 mm 0,0 UV-I 0 W/m 11,4 C 1,6 km/h (1 Bft)
06.07.2016 03:23 15,8 C 15,8 C 75 % 1016,6 hPa 0,0 mm 0,3 km/h (0 Bft) W-SW 256 0 min 0,000 mm 0,0 UV-I 0 W/m 11,4 C 1,6 km/h (1 Bft)
06.07.2016 03:24 15,8 C 15,8 C 75 % 1016,6 hPa 0,0 mm 0,2 km/h (0 Bft) W-SW 256 0 min 0,000 mm 0,0 UV-I 0 W/m 11,4 C 1,6 km/h (1 Bft)
06.07.2016 03:25 15,8 C 15,8 C 75 % 1016,6 hPa 0,0 mm 0,1 km/h (0 Bft) W-SW 256 0 min 0,000 mm 0,0 UV-I 0 W/m 11,4 C 1,6 km/h (1 Bft)
06.07.2016 03:26 15,8 C 15,8 C 76 % 1016,6 hPa 0,0 mm 0,0 km/h (0 Bft) W-SW 256 0 min 0,000 mm 0,0 UV-I 0 W/m 11,6 C 0,0 km/h (0 Bft)
06.07.2016 03:27 15,8 C 15,8 C 76 % 1016,6 hPa 0,0 mm 0,1 km/h (0 Bft) W-SW 256 0 min 0,000 mm 0,0 UV-I 0 W/m 11,6 C 1,6 km/h (1 Bft)
06.07.2016 03:28 15,8 C 15,8 C 76 % 1016,6 hPa 0,0 mm 0,0 km/h (0 Bft) W-SW 256 0 min 0,000 mm 0,0 UV-I 0 W/m 11,6 C 0,0 km/h (0 Bft)
06.07.2016 03:29 15,8 C 15,8 C 75 % 1016,6 hPa 0,0 mm 0,0 km/h (0 Bft) W-SW 256 0 min 0,000 mm 0,0 UV-I 0 W/m 11,4 C 0,0 km/h (0 Bft)
06.07.2016 03:30 15,8 C 15,8 C 75 % 1016,6 hPa 0,0 mm 0,0 km/h (0 Bft) W-SW 256 0 min 0,000 mm 0,0 UV-I 0 W/m 11,4 C 0,0 km/h (0 Bft)
06.07.2016 03:31 15,8 C 15,8 C 76 % 1016,6 hPa 0,0 mm 0,0 km/h (0 Bft) W-SW 256 0 min 0,000 mm 0,0 UV-I 0 W/m 11,6 C 0,0 km/h (0 Bft)
06.07.2016 03:32 15,8 C 15,8 C 76 % 1016,6 hPa 0,0 mm 0,0 km/h (0 Bft) W-SW 256 0 min 0,000 mm 0,0 UV-I 0 W/m 11,6 C 0,0 km/h (0 Bft)
06.07.2016 03:33 15,8 C 15,8 C 76 % 1016,6 hPa 0,0 mm 0,0 km/h (0 Bft) W-SW 256 0 min 0,000 mm 0,0 UV-I 0 W/m 11,6 C 0,0 km/h (0 Bft)
06.07.2016 03:34 15,8 C 15,8 C 76 % 1016,6 hPa 0,0 mm 0,7 km/h (0 Bft) W-SW 256 0 min 0,000 mm 0,0 UV-I 0 W/m 11,6 C 1,6 km/h (1 Bft)
06.07.2016 03:35 15,9 C 15,9 C 76 % 1016,6 hPa 0,0 mm 0,6 km/h (0 Bft) W-SW 256 0 min 0,000 mm 0,0 UV-I 0 W/m 11,7 C 3,2 km/h (1 Bft)
06.07.2016 03:36 15,9 C 15,9 C 75 % 1016,6 hPa 0,0 mm 1,9 km/h (1 Bft) W-SW 256 0 min 0,000 mm 0,0 UV-I 0 W/m 11,5 C 3,2 km/h (1 Bft)
06.07.2016 03:37 15,9 C 15,9 C 75 % 1016,6 hPa 0,0 mm 1,3 km/h (1 Bft) SW 220 0 min 0,000 mm 0,0 UV-I 0 W/m 11,5 C 1,6 km/h (1 Bft)
06.07.2016 03:38 16,0 C 16,0 C 75 % 1016,6 hPa 0,0 mm 2,1 km/h (1 Bft) SW 220 0 min 0,000 mm 0,0 UV-I 0 W/m 11,6 C 3,2 km/h (1 Bft)
06.07.2016 03:39 15,9 C 16,0 C 75 % 1016,6 hPa 0,0 mm 0,6 km/h (0 Bft) SW 220 0 min 0,000 mm 0,0 UV-I 0 W/m 11,5 C 1,6 km/h (1 Bft)
06.07.2016 03:40 15,9 C 16,0 C 75 % 1016,5 hPa 0,0 mm 1,9 km/h (1 Bft) SW 220 0 min 0,000 mm 0,0 UV-I 0 W/m 11,5 C 3,2 km/h (1 Bft)
06.07.2016 03:41 15,9 C 16,0 C 75 % 1016,5 hPa 0,0 mm 1,7 km/h (1 Bft) SW 220 0 min 0,000 mm 0,0 UV-I 0 W/m 11,5 C 3,2 km/h (1 Bft)
06.07.2016 03:42 15,9 C 15,9 C 75 % 1016,5 hPa 0,0 mm 2,7 km/h (1 Bft) SW 215 0 min 0,000 mm 0,0 UV-I 0 W/m 11,5 C 4,8 km/h (1 Bft)
06.07.2016 03:43 15,9 C 15,9 C 75 % 1016,5 hPa 0,0 mm 2,1 km/h (1 Bft) S-SW 196 0 min 0,000 mm 0,0 UV-I 0 W/m 11,5 C 4,8 km/h (1 Bft)
06.07.2016 03:44 15,9 C 15,9 C 75 % 1016,4 hPa 0,0 mm 3,0 km/h (1 Bft) S 171 0 min 0,000 mm 0,0 UV-I 0 W/m 11,5 C 4,8 km/h (1 Bft)
06.07.2016 03:45 15,9 C 15,9 C 74 % 1016,4 hPa 0,0 mm 2,6 km/h (1 Bft) S 190 0 min 0,000 mm 0,0 UV-I 0 W/m 11,3 C 4,8 km/h (1 Bft)
06.07.2016 03:46 16,0 C 16,0 C 74 % 1016,5 hPa 0,0 mm 2,9 km/h (1 Bft) S 190 0 min 0,000 mm 0,0 UV-I 0 W/m 11,4 C 4,8 km/h (1 Bft)
06.07.2016 03:47 16,1 C 16,1 C 75 % 1016,5 hPa 0,0 mm 2,6 km/h (1 Bft) S 174 0 min 0,000 mm 0,0 UV-I 0 W/m 11,7 C 3,2 km/h (1 Bft)
06.07.2016 03:48 16,0 C 16,1 C 74 % 1016,5 hPa 0,0 mm 2,3 km/h (1 Bft) S 174 0 min 0,000 mm 0,0 UV-I 0 W/m 11,4 C 3,2 km/h (1 Bft)
06.07.2016 03:49 16,0 C 16,1 C 75 % 1016,5 hPa 0,0 mm 2,3 km/h (1 Bft) S 180 0 min 0,000 mm 0,0 UV-I 0 W/m 11,6 C 3,2 km/h (1 Bft)
06.07.2016 03:50 16,0 C 16,1 C 74 % 1016,5 hPa 0,0 mm 1,3 km/h (1 Bft) S 180 0 min 0,000 mm 0,0 UV-I 0 W/m 11,4 C 1,6 km/h (1 Bft)
06.07.2016 03:51 16,0 C 16,1 C 74 % 1016,5 hPa 0,0 mm 2,5 km/h (1 Bft) W-NW 296 0 min 0,000 mm 0,0 UV-I 0 W/m 11,4 C 4,8 km/h (1 Bft)
06.07.2016 03:52 16,1 C 16,1 C 74 % 1016,5 hPa 0,0 mm 2,7 km/h (1 Bft) S-SW 202 0 min 0,000 mm 0,0 UV-I 0 W/m 11,5 C 4,8 km/h (1 Bft)
06.07.2016 03:53 16,1 C 16,1 C 74 % 1016,5 hPa 0,0 mm 1,7 km/h (1 Bft) W-SW 240 0 min 0,000 mm 0,0 UV-I 0 W/m 11,5 C 3,2 km/h (1 Bft)
06.07.2016 03:54 16,1 C 16,1 C 74 % 1016,5 hPa 0,0 mm 1,0 km/h (0 Bft) W-SW 240 0 min 0,000 mm 0,0 UV-I 0 W/m 11,5 C 1,6 km/h (1 Bft)
06.07.2016 03:55 16,1 C 16,1 C 74 % 1016,5 hPa 0,0 mm 1,2 km/h (1 Bft) S-SW 192 0 min 0,000 mm 0,0 UV-I 0 W/m 11,5 C 3,2 km/h (1 Bft)
06.07.2016 03:56 16,1 C 16,1 C 73 % 1016,5 hPa 0,0 mm 3,2 km/h (1 Bft) S-SW 203 0 min 0,000 mm 0,0 UV-I 0 W/m 11,3 C 4,8 km/h (1 Bft)
06.07.2016 03:57 16,1 C 16,1 C 74 % 1016,5 hPa 0,0 mm 1,6 km/h (1 Bft) S-SW 204 0 min 0,000 mm 0,0 UV-I 0 W/m 11,5 C 1,6 km/h (1 Bft)
06.07.2016 03:58 16,1 C 16,1 C 74 % 1016,5 hPa 0,0 mm 1,5 km/h (1 Bft) SW 222 0 min 0,000 mm 0,0 UV-I 0 W/m 11,5 C 3,2 km/h (1 Bft)
06.07.2016 03:59 16,0 C 16,1 C 74 % 1016,6 hPa 0,0 mm 1,1 km/h (1 Bft) SW 218 0 min 0,000 mm 0,0 UV-I 0 W/m 11,4 C 3,2 km/h (1 Bft)
06.07.2016 04:00 15,9 C 16,0 C 74 % 1016,5 hPa 0,0 mm 0,7 km/h (0 Bft) SW 218 0 min 0,026 mm 0,0 UV-I 0 W/m 11,3 C 1,6 km/h (1 Bft)
06.07.2016 04:02 15,9 C 16,0 C 74 % 1016,4 hPa 0,0 mm 0,4 km/h (0 Bft) SW 218 0 min 0,000 mm 0,0 UV-I 0 W/m 11,3 C 1,6 km/h (1 Bft)
06.07.2016 04:03 15,9 C 15,9 C 74 % 1016,4 hPa 0,0 mm 1,3 km/h (1 Bft) SW 218 0 min 0,000 mm 0,0 UV-I 0 W/m 11,3 C 1,6 km/h (1 Bft)
06.07.2016 04:04 15,9 C 15,9 C 74 % 1016,5 hPa 0,0 mm 0,4 km/h (0 Bft) SW 218 0 min 0,000 mm 0,0 UV-I 0 W/m 11,3 C 1,6 km/h (1 Bft)
06.07.2016 04:05 15,8 C 15,9 C 74 % 1016,4 hPa 0,0 mm 1,5 km/h (1 Bft) S-SW 206 0 min 0,000 mm 0,0 UV-I 0 W/m 11,2 C 4,8 km/h (1 Bft)
06.07.2016 04:06 15,8 C 15,9 C 74 % 1016,4 hPa 0,0 mm 1,7 km/h (1 Bft) S-SW 205 0 min 0,000 mm 0,0 UV-I 0 W/m 11,2 C 3,2 km/h (1 Bft)
06.07.2016 04:07 15,8 C 15,8 C 76 % 1016,4 hPa 0,0 mm 0,6 km/h (0 Bft) S-SW 205 0 min 0,000 mm 0,0 UV-I 0 W/m 11,6 C 1,6 km/h (1 Bft)
06.07.2016 04:08 15,8 C 15,8 C 74 % 1016,4 hPa 0,0 mm 0,8 km/h (0 Bft) S-SW 205 0 min 0,000 mm 0,0 UV-I 0 W/m 11,2 C 3,2 km/h (1 Bft)
06.07.2016 04:09 15,8 C 15,8 C 74 % 1016,4 hPa 0,0 mm 1,9 km/h (1 Bft) S-SW 205 0 min 0,000 mm 0,0 UV-I 0 W/m 11,2 C 3,2 km/h (1 Bft)
06.07.2016 04:10 15,8 C 15,8 C 74 % 1016,5 hPa 0,0 mm 1,1 km/h (1 Bft) S-SW 209 0 min 0,000 mm 0,0 UV-I 0 W/m 11,2 C 3,2 km/h (1 Bft)
06.07.2016 04:11 15,8 C 15,8 C 75 % 1016,5 hPa 0,0 mm 2,0 km/h (1 Bft) S-SW 209 0 min 0,000 mm 0,0 UV-I 0 W/m 11,4 C 3,2 km/h (1 Bft)
06.07.2016 04:12 15,8 C 15,8 C 74 % 1016,5 hPa 0,0 mm 2,0 km/h (1 Bft) S 184 0 min 0,000 mm 0,0 UV-I 0 W/m 11,2 C 3,2 km/h (1 Bft)
06.07.2016 04:13 15,8 C 15,8 C 74 % 1016,5 hPa 0,0 mm 4,4 km/h (1 Bft) S-SW 196 0 min 0,000 mm 0,0 UV-I 0 W/m 11,2 C 8,0 km/h (2 Bft)
06.07.2016 04:14 15,8 C 15,8 C 74 % 1016,5 hPa 0,0 mm 4,3 km/h (1 Bft) S-SW 211 0 min 0,000 mm 0,0 UV-I 0 W/m 11,2 C 6,4 km/h (2 Bft)
06.07.2016 04:15 15,8 C 15,8 C 74 % 1016,5 hPa 0,0 mm 1,9 km/h (1 Bft) SW 215 0 min 0,000 mm 0,0 UV-I 0 W/m 11,2 C 3,2 km/h (1 Bft)
06.07.2016 04:16 15,8 C 15,9 C 74 % 1016,5 hPa 0,0 mm 2,4 km/h (1 Bft) S 182 0 min 0,000 mm 0,0 UV-I 0 W/m 11,2 C 4,8 km/h (1 Bft)
06.07.2016 04:17 15,8 C 15,8 C 74 % 1016,5 hPa 0,0 mm 1,9 km/h (1 Bft) S 182 0 min 0,000 mm 0,0 UV-I 0 W/m 11,2 C 3,2 km/h (1 Bft)
06.07.2016 04:18 15,8 C 15,9 C 74 % 1016,5 hPa 0,0 mm 0,8 km/h (0 Bft) S 182 0 min 0,000 mm 0,0 UV-I 0 W/m 11,2 C 1,6 km/h (1 Bft)
06.07.2016 04:19 15,8 C 15,9 C 73 % 1016,5 hPa 0,0 mm 1,7 km/h (1 Bft) S 182 0 min 0,000 mm 0,0 UV-I 0 W/m 11,0 C 3,2 km/h (1 Bft)
06.07.2016 04:20 15,8 C 15,8 C 73 % 1016,5 hPa 0,0 mm 2,2 km/h (1 Bft) S-SW 205 0 min 0,000 mm 0,0 UV-I 0 W/m 11,0 C 3,2 km/h (1 Bft)
06.07.2016 04:21 15,8 C 15,9 C 74 % 1016,4 hPa 0,0 mm 2,1 km/h (1 Bft) S 186 0 min 0,000 mm 0,0 UV-I 0 W/m 11,2 C 3,2 km/h (1 Bft)
06.07.2016 04:22 15,8 C 15,9 C 73 % 1016,4 hPa 0,0 mm 3,6 km/h (1 Bft) S-SW 203 0 min 0,000 mm 0,0 UV-I 0 W/m 11,0 C 4,8 km/h (1 Bft)
06.07.2016 04:23 15,9 C 15,9 C 74 % 1016,4 hPa 0,0 mm 2,3 km/h (1 Bft) S-SW 202 0 min 0,000 mm 0,0 UV-I 0 W/m 11,3 C 3,2 km/h (1 Bft)
06.07.2016 04:24 15,8 C 15,9 C 73 % 1016,5 hPa 0,0 mm 1,7 km/h (1 Bft) S 189 0 min 0,000 mm 0,0 UV-I 0 W/m 11,0 C 3,2 km/h (1 Bft)
06.07.2016 04:25 15,8 C 15,8 C 73 % 1016,5 hPa 0,0 mm 2,2 km/h (1 Bft) S 188 0 min 0,000 mm 0,0 UV-I 0 W/m 11,0 C 3,2 km/h (1 Bft)
06.07.2016 04:26 15,8 C 15,8 C 73 % 1016,4 hPa 0,0 mm 2,3 km/h (1 Bft) S-SW 209 0 min 0,000 mm 0,0 UV-I 0 W/m 11,0 C 6,4 km/h (2 Bft)
06.07.2016 04:27 15,8 C 15,8 C 73 % 1016,4 hPa 0,0 mm 1,3 km/h (1 Bft) S 186 0 min 0,000 mm 0,0 UV-I 0 W/m 11,0 C 3,2 km/h (1 Bft)
06.07.2016 04:28 15,7 C 15,8 C 73 % 1016,4 hPa 0,0 mm 2,3 km/h (1 Bft) S 186 0 min 0,000 mm 0,0 UV-I 0 W/m 10,9 C 3,2 km/h (1 Bft)
06.07.2016 04:29 15,7 C 15,8 C 74 % 1016,4 hPa 0,0 mm 1,5 km/h (1 Bft) S 186 0 min 0,000 mm 0,0 UV-I 0 W/m 11,1 C 3,2 km/h (1 Bft)
06.07.2016 04:30 15,6 C 15,7 C 74 % 1016,4 hPa 0,0 mm 0,7 km/h (0 Bft) S 186 0 min 0,000 mm 0,0 UV-I 0 W/m 11,0 C 1,6 km/h (1 Bft)
06.07.2016 04:31 15,6 C 15,6 C 74 % 1016,4 hPa 0,0 mm 0,7 km/h (0 Bft) S 186 0 min 0,000 mm 0,0 UV-I 0 W/m 11,0 C 1,6 km/h (1 Bft)
06.07.2016 04:32 15,6 C 15,6 C 74 % 1016,4 hPa 0,0 mm 0,6 km/h (0 Bft) S 186 0 min 0,000 mm 0,0 UV-I 0 W/m 11,0 C 1,6 km/h (1 Bft)
06.07.2016 04:33 15,6 C 15,6 C 74 % 1016,4 hPa 0,0 mm 2,1 km/h (1 Bft) S 186 0 min 0,000 mm 0,0 UV-I 0 W/m 11,0 C 3,2 km/h (1 Bft)
06.07.2016 04:34 15,6 C 15,6 C 74 % 1016,4 hPa 0,0 mm 2,1 km/h (1 Bft) S 186 0 min 0,000 mm 0,0 UV-I 0 W/m 11,0 C 3,2 km/h (1 Bft)
06.07.2016 04:35 15,5 C 15,6 C 74 % 1016,4 hPa 0,0 mm 1,7 km/h (1 Bft) S 186 0 min 0,000 mm 0,0 UV-I 0 W/m 10,9 C 3,2 km/h (1 Bft)
06.07.2016 04:36 15,5 C 15,5 C 75 % 1016,4 hPa 0,0 mm 1,0 km/h (0 Bft) S 186 0 min 0,000 mm 0,0 UV-I 0 W/m 11,1 C 3,2 km/h (1 Bft)
06.07.2016 04:37 15,4 C 15,5 C 74 % 1016,4 hPa 0,0 mm 1,7 km/h (1 Bft) S 186 0 min 0,000 mm 0,0 UV-I 0 W/m 10,8 C 3,2 km/h (1 Bft)
06.07.2016 04:38 15,4 C 15,4 C 74 % 1016,4 hPa 0,0 mm 1,3 km/h (1 Bft) S 186 0 min 0,000 mm 0,0 UV-I 0 W/m 10,8 C 3,2 km/h (1 Bft)
06.07.2016 04:39 15,4 C 15,4 C 75 % 1016,4 hPa 0,0 mm 1,7 km/h (1 Bft) S 186 0 min 0,000 mm 0,0 UV-I 0 W/m 11,0 C 3,2 km/h (1 Bft)
06.07.2016 04:40 15,4 C 15,4 C 75 % 1016,4 hPa 0,0 mm 1,7 km/h (1 Bft) S 186 0 min 0,000 mm 0,0 UV-I 0 W/m 11,0 C 3,2 km/h (1 Bft)
06.07.2016 04:41 15,3 C 15,4 C 76 % 1016,4 hPa 0,0 mm 0,9 km/h (0 Bft) S 186 0 min 0,000 mm 0,0 UV-I 0 W/m 11,1 C 1,6 km/h (1 Bft)
06.07.2016 04:42 15,3 C 15,3 C 77 % 1016,4 hPa 0,0 mm 0,7 km/h (0 Bft) S 186 0 min 0,000 mm 0,0 UV-I 0 W/m 11,3 C 1,6 km/h (1 Bft)
06.07.2016 04:43 15,2 C 15,3 C 76 % 1016,4 hPa 0,0 mm 0,3 km/h (0 Bft) S 186 0 min 0,000 mm 0,0 UV-I 0 W/m 11,0 C 1,6 km/h (1 Bft)
06.07.2016 04:44 15,2 C 15,2 C 77 % 1016,4 hPa 0,0 mm 0,3 km/h (0 Bft) S 186 0 min 0,000 mm 0,0 UV-I 0 W/m 11,2 C 1,6 km/h (1 Bft)
06.07.2016 04:45 15,1 C 15,2 C 77 % 1016,4 hPa 0,0 mm 1,0 km/h (0 Bft) S 186 0 min 0,000 mm 0,0 UV-I 0 W/m 11,1 C 3,2 km/h (1 Bft)
06.07.2016 04:46 15,1 C 15,1 C 77 % 1016,4 hPa 0,0 mm 0,0 km/h (0 Bft) S 186 0 min 0,000 mm 0,0 UV-I 0 W/m 11,1 C 0,0 km/h (0 Bft)
06.07.2016 04:47 15,1 C 15,1 C 76 % 1016,4 hPa 0,0 mm 0,0 km/h (0 Bft) S 186 0 min 0,000 mm 0,0 UV-I 0 W/m 10,9 C 0,0 km/h (0 Bft)
06.07.2016 04:48 15,1 C 15,1 C 77 % 1016,4 hPa 0,0 mm 0,0 km/h (0 Bft) S 186 0 min 0,000 mm 0,0 UV-I 0 W/m 11,1 C 0,0 km/h (0 Bft)
06.07.2016 04:49 15,1 C 15,1 C 77 % 1016,4 hPa 0,0 mm 0,0 km/h (0 Bft) S 186 0 min 0,000 mm 0,0 UV-I 0 W/m 11,1 C 0,0 km/h (0 Bft)
06.07.2016 04:50 15,1 C 15,1 C 78 % 1016,4 hPa 0,0 mm 0,1 km/h (0 Bft) S 186 0 min 0,000 mm 0,0 UV-I 0 W/m 11,3 C 1,6 km/h (1 Bft)
06.07.2016 04:51 15,1 C 15,1 C 78 % 1016,4 hPa 0,0 mm 0,0 km/h (0 Bft) S 186 0 min 0,000 mm 0,0 UV-I 0 W/m 11,3 C 0,0 km/h (0 Bft)
06.07.2016 04:52 15,1 C 15,1 C 78 % 1016,4 hPa 0,0 mm 0,0 km/h (0 Bft) S 186 0 min 0,000 mm 0,0 UV-I 0 W/m 11,3 C 0,0 km/h (0 Bft)
06.07.2016 04:53 15,1 C 15,1 C 78 % 1016,4 hPa 0,0 mm 0,1 km/h (0 Bft) S 186 0 min 0,000 mm 0,0 UV-I 0 W/m 11,3 C 1,6 km/h (1 Bft)
06.07.2016 04:54 15,1 C 15,1 C 80 % 1016,4 hPa 0,0 mm 0,3 km/h (0 Bft) S 186 0 min 0,000 mm 0,0 UV-I 0 W/m 11,7 C 1,6 km/h (1 Bft)
06.07.2016 04:55 15,0 C 15,1 C 79 % 1016,4 hPa 0,0 mm 0,0 km/h (0 Bft) S 186 0 min 0,000 mm 0,0 UV-I 0 W/m 11,4 C 0,0 km/h (0 Bft)
06.07.2016 04:56 14,9 C 15,0 C 81 % 1016,5 hPa 0,0 mm 0,4 km/h (0 Bft) S 188 0 min 0,000 mm 0,0 UV-I 0 W/m 11,7 C 3,2 km/h (1 Bft)
06.07.2016 04:57 14,9 C 14,9 C 80 % 1016,5 hPa 0,0 mm 0,4 km/h (0 Bft) S 188 0 min 0,000 mm 0,0 UV-I 0 W/m 11,5 C 1,6 km/h (1 Bft)
06.07.2016 04:58 14,9 C 14,9 C 79 % 1016,4 hPa 0,0 mm 0,2 km/h (0 Bft) S 188 0 min 0,000 mm 0,0 UV-I 0 W/m 11,3 C 1,6 km/h (1 Bft)
06.07.2016 04:59 14,9 C 14,9 C 78 % 1016,4 hPa 0,0 mm 1,7 km/h (1 Bft) S-SW 199 0 min 0,000 mm 0,0 UV-I 0 W/m 11,1 C 3,2 km/h (1 Bft)
06.07.2016 05:00 14,9 C 14,9 C 77 % 1016,4 hPa 0,0 mm 0,8 km/h (0 Bft) S-SW 199 0 min 0,000 mm 0,0 UV-I 0 W/m 10,9 C 1,6 km/h (1 Bft)
06.07.2016 05:01 15,0 C 15,0 C 77 % 1016,4 hPa 0,0 mm 2,6 km/h (1 Bft) W-SW 257 0 min 0,025 mm 0,0 UV-I 0 W/m 11,0 C 6,4 km/h (2 Bft)
06.07.2016 05:02 15,1 C 15,1 C 77 % 1016,4 hPa 0,0 mm 1,9 km/h (1 Bft) SW 225 0 min 0,000 mm 0,0 UV-I 0 W/m 11,1 C 3,2 km/h (1 Bft)
06.07.2016 05:03 15,1 C 15,1 C 77 % 1016,4 hPa 0,0 mm 2,1 km/h (1 Bft) SW 222 0 min 0,000 mm 0,0 UV-I 0 W/m 11,1 C 3,2 km/h (1 Bft)
06.07.2016 05:04 15,2 C 15,2 C 76 % 1016,4 hPa 0,0 mm 2,5 km/h (1 Bft) W-SW 245 0 min 0,000 mm 0,0 UV-I 0 W/m 11,0 C 4,8 km/h (1 Bft)
06.07.2016 05:05 15,3 C 15,3 C 75 % 1016,4 hPa 0,0 mm 1,6 km/h (1 Bft) S 188 0 min 0,000 mm 0,0 UV-I 0 W/m 10,9 C 3,2 km/h (1 Bft)
06.07.2016 05:06 15,3 C 15,3 C 76 % 1016,4 hPa 0,0 mm 1,8 km/h (1 Bft) W-SW 248 0 min 0,000 mm 0,0 UV-I 0 W/m 11,1 C 3,2 km/h (1 Bft)
06.07.2016 05:07 15,3 C 15,3 C 76 % 1016,4 hPa 0,0 mm 1,1 km/h (1 Bft) W-SW 242 0 min 0,000 mm 0,0 UV-I 0 W/m 11,1 C 1,6 km/h (1 Bft)
06.07.2016 05:08 15,4 C 15,4 C 76 % 1016,4 hPa 0,0 mm 0,6 km/h (0 Bft) SW 224 0 min 0,000 mm 0,0 UV-I 0 W/m 11,2 C 3,2 km/h (1 Bft)
06.07.2016 05:09 15,4 C 15,4 C 75 % 1016,4 hPa 0,0 mm 2,3 km/h (1 Bft) S 184 0 min 0,000 mm 0,0 UV-I 0 W/m 11,0 C 3,2 km/h (1 Bft)
06.07.2016 05:10 15,4 C 15,4 C 74 % 1016,4 hPa 0,0 mm 2,6 km/h (1 Bft) SW 227 0 min 0,000 mm 0,0 UV-I 0 W/m 10,8 C 3,2 km/h (1 Bft)
06.07.2016 05:11 15,4 C 15,4 C 75 % 1016,4 hPa 0,0 mm 2,7 km/h (1 Bft) S-SW 213 0 min 0,000 mm 0,0 UV-I 0 W/m 11,0 C 4,8 km/h (1 Bft)
06.07.2016 05:12 15,4 C 15,4 C 75 % 1016,4 hPa 0,0 mm 1,1 km/h (1 Bft) S-SW 202 0 min 0,000 mm 0,0 UV-I 0 W/m 11,0 C 1,6 km/h (1 Bft)
06.07.2016 05:13 15,4 C 15,4 C 75 % 1016,4 hPa 0,0 mm 4,2 km/h (1 Bft) S 180 0 min 0,000 mm 0,0 UV-I 0 W/m 11,0 C 6,4 km/h (2 Bft)
06.07.2016 05:14 15,4 C 15,4 C 75 % 1016,4 hPa 0,0 mm 3,1 km/h (1 Bft) S-SW 196 0 min 0,000 mm 0,0 UV-I 0 W/m 11,0 C 4,8 km/h (1 Bft)
06.07.2016 05:15 15,4 C 15,4 C 74 % 1016,5 hPa 0,0 mm 3,8 km/h (1 Bft) S 180 0 min 0,000 mm 0,0 UV-I 0 W/m 10,8 C 6,4 km/h (2 Bft)
06.07.2016 05:16 15,4 C 15,4 C 74 % 1016,5 hPa 0,0 mm 2,2 km/h (1 Bft) S 181 0 min 0,000 mm 0,0 UV-I 0 W/m 10,8 C 4,8 km/h (1 Bft)
06.07.2016 05:17 15,4 C 15,5 C 74 % 1016,5 hPa 0,0 mm 3,4 km/h (1 Bft) S-SW 192 0 min 0,000 mm 0,0 UV-I 0 W/m 10,8 C 4,8 km/h (1 Bft)
06.07.2016 05:18 15,4 C 15,5 C 74 % 1016,5 hPa 0,0 mm 3,0 km/h (1 Bft) S 182 0 min 0,000 mm 0,0 UV-I 0 W/m 10,8 C 4,8 km/h (1 Bft)
06.07.2016 05:19 15,4 C 15,5 C 74 % 1016,5 hPa 0,0 mm 2,1 km/h (1 Bft) S-SW 202 0 min 0,000 mm 0,0 UV-I 0 W/m 10,8 C 4,8 km/h (1 Bft)
06.07.2016 05:20 15,4 C 15,5 C 74 % 1016,5 hPa 0,0 mm 2,1 km/h (1 Bft) S-SO 168 0 min 0,000 mm 0,0 UV-I 0 W/m 10,8 C 6,4 km/h (2 Bft)
06.07.2016 05:21 15,4 C 15,4 C 74 % 1016,5 hPa 0,0 mm 5,0 km/h (1 Bft) S-SW 194 0 min 0,000 mm 0,0 UV-I 0 W/m 10,8 C 8,0 km/h (2 Bft)
06.07.2016 05:22 15,4 C 15,4 C 75 % 1016,5 hPa 0,0 mm 0,9 km/h (0 Bft) S-SW 195 0 min 0,000 mm 0,0 UV-I 0 W/m 11,0 C 3,2 km/h (1 Bft)
06.07.2016 05:23 15,4 C 15,4 C 74 % 1016,5 hPa 0,0 mm 1,7 km/h (1 Bft) W-NW 290 0 min 0,000 mm 0,0 UV-I 0 W/m 10,8 C 4,8 km/h (1 Bft)
06.07.2016 05:24 15,3 C 15,4 C 75 % 1016,5 hPa 0,0 mm 3,2 km/h (1 Bft) W 263 0 min 0,000 mm 0,0 UV-I 0 W/m 10,9 C 6,4 km/h (2 Bft)
06.07.2016 05:25 15,3 C 15,4 C 76 % 1016,5 hPa 0,0 mm 3,0 km/h (1 Bft) W 263 0 min 0,000 mm 0,0 UV-I 0 W/m 11,1 C 6,4 km/h (2 Bft)
06.07.2016 05:26 15,3 C 15,3 C 75 % 1016,5 hPa 0,0 mm 1,0 km/h (0 Bft) W 263 0 min 0,000 mm 0,0 UV-I 0 W/m 10,9 C 1,6 km/h (1 Bft)
06.07.2016 05:27 15,3 C 15,3 C 76 % 1016,5 hPa 0,0 mm 3,6 km/h (1 Bft) W-SW 257 0 min 0,000 mm 0,0 UV-I 0 W/m 11,1 C 6,4 km/h (2 Bft)
06.07.2016 05:28 15,2 C 15,3 C 76 % 1016,6 hPa 0,0 mm 1,4 km/h (1 Bft) W-SW 257 0 min 0,000 mm 0,0 UV-I 0 W/m 11,0 C 3,2 km/h (1 Bft)
06.07.2016 05:29 15,2 C 15,2 C 75 % 1016,6 hPa 0,0 mm 1,3 km/h (1 Bft) W-SW 257 0 min 0,000 mm 0,0 UV-I 0 W/m 10,8 C 4,8 km/h (1 Bft)
06.07.2016 05:30 15,1 C 15,2 C 77 % 1016,6 hPa 0,0 mm 2,6 km/h (1 Bft) W 275 0 min 0,000 mm 0,0 UV-I 0 W/m 11,1 C 3,2 km/h (1 Bft)
06.07.2016 05:31 15,1 C 15,1 C 76 % 1016,6 hPa 0,0 mm 3,3 km/h (1 Bft) W-NW 282 0 min 0,000 mm 0,0 UV-I 0 W/m 10,9 C 4,8 km/h (1 Bft)
06.07.2016 05:32 15,1 C 15,1 C 78 % 1016,6 hPa 0,0 mm 2,1 km/h (1 Bft) W-NW 282 0 min 0,000 mm 0,0 UV-I 0 W/m 11,3 C 3,2 km/h (1 Bft)
06.07.2016 05:33 15,0 C 15,1 C 78 % 1016,6 hPa 0,0 mm 1,9 km/h (1 Bft) W-NW 282 0 min 0,000 mm 0,0 UV-I 5 W/m 11,2 C 3,2 km/h (1 Bft)
06.07.2016 05:34 14,9 C 15,0 C 79 % 1016,6 hPa 0,0 mm 1,9 km/h (1 Bft) W-NW 282 0 min 0,000 mm 0,0 UV-I 5 W/m 11,3 C 3,2 km/h (1 Bft)
06.07.2016 05:35 14,8 C 14,9 C 80 % 1016,6 hPa 0,0 mm 1,7 km/h (1 Bft) W-NW 282 0 min 0,000 mm 0,0 UV-I 7 W/m 11,4 C 3,2 km/h (1 Bft)
06.07.2016 05:36 14,7 C 14,8 C 80 % 1016,6 hPa 0,0 mm 2,4 km/h (1 Bft) W-NW 282 0 min 0,000 mm 0,0 UV-I 9 W/m 11,3 C 3,2 km/h (1 Bft)
06.07.2016 05:37 14,6 C 14,7 C 80 % 1016,7 hPa 0,0 mm 1,5 km/h (1 Bft) W-NW 282 0 min 0,000 mm 0,0 UV-I 9 W/m 11,2 C 3,2 km/h (1 Bft)
06.07.2016 05:38 14,6 C 14,6 C 81 % 1016,7 hPa 0,0 mm 0,5 km/h (0 Bft) W-NW 282 1 min 0,000 mm 0,0 UV-I 9 W/m 11,4 C 1,6 km/h (1 Bft)
06.07.2016 05:39 14,4 C 14,6 C 81 % 1016,7 hPa 0,0 mm 0,1 km/h (0 Bft) W-NW 282 1 min 0,000 mm 0,0 UV-I 11 W/m 11,2 C 1,6 km/h (1 Bft)
06.07.2016 05:40 14,3 C 14,4 C 81 % 1016,7 hPa 0,0 mm 0,4 km/h (0 Bft) W-NW 282 1 min 0,000 mm 0,0 UV-I 11 W/m 11,1 C 1,6 km/h (1 Bft)
06.07.2016 05:41 14,3 C 14,3 C 82 % 1016,7 hPa 0,0 mm 0,3 km/h (0 Bft) W-NW 282 0 min 0,000 mm 0,0 UV-I 12 W/m 11,3 C 1,6 km/h (1 Bft)
06.07.2016 05:42 14,3 C 14,3 C 81 % 1016,8 hPa 0,0 mm 0,0 km/h (0 Bft) W-NW 282 0 min 0,000 mm 0,0 UV-I 12 W/m 11,1 C 0,0 km/h (0 Bft)
06.07.2016 05:43 14,2 C 14,3 C 81 % 1016,8 hPa 0,0 mm 0,0 km/h (0 Bft) W-NW 282 0 min 0,000 mm 0,0 UV-I 12 W/m 11,0 C 0,0 km/h (0 Bft)
06.07.2016 05:44 14,2 C 14,3 C 81 % 1016,7 hPa 0,0 mm 0,0 km/h (0 Bft) W-NW 282 0 min 0,000 mm 0,0 UV-I 12 W/m 11,0 C 0,0 km/h (0 Bft)
06.07.2016 05:45 14,2 C 14,2 C 81 % 1016,7 hPa 0,0 mm 1,1 km/h (1 Bft) W-NW 282 0 min 0,000 mm 0,0 UV-I 12 W/m 11,0 C 3,2 km/h (1 Bft)
06.07.2016 05:46 14,2 C 14,2 C 81 % 1016,7 hPa 0,0 mm 0,2 km/h (0 Bft) W-NW 282 0 min 0,000 mm 0,0 UV-I 11 W/m 11,0 C 1,6 km/h (1 Bft)
06.07.2016 05:47 14,1 C 14,2 C 81 % 1016,7 hPa 0,0 mm 0,7 km/h (0 Bft) W-NW 282 0 min 0,000 mm 0,0 UV-I 11 W/m 10,9 C 1,6 km/h (1 Bft)
06.07.2016 05:48 14,1 C 14,1 C 81 % 1016,7 hPa 0,0 mm 0,7 km/h (0 Bft) W-NW 282 0 min 0,000 mm 0,0 UV-I 11 W/m 10,9 C 1,6 km/h (1 Bft)
06.07.2016 05:49 14,1 C 14,1 C 81 % 1016,7 hPa 0,0 mm 0,5 km/h (0 Bft) W-NW 282 0 min 0,000 mm 0,0 UV-I 11 W/m 10,9 C 1,6 km/h (1 Bft)
06.07.2016 05:50 14,1 C 14,1 C 81 % 1016,8 hPa 0,0 mm 0,1 km/h (0 Bft) W-NW 282 0 min 0,000 mm 0,0 UV-I 11 W/m 10,9 C 1,6 km/h (1 Bft)
06.07.2016 05:51 14,1 C 14,1 C 81 % 1016,8 hPa 0,0 mm 0,5 km/h (0 Bft) W-NW 282 0 min 0,000 mm 0,0 UV-I 11 W/m 10,9 C 1,6 km/h (1 Bft)
06.07.2016 05:52 14,1 C 14,1 C 81 % 1016,8 hPa 0,0 mm 0,9 km/h (0 Bft) W-SW 253 0 min 0,000 mm 0,0 UV-I 12 W/m 10,9 C 3,2 km/h (1 Bft)
06.07.2016 05:53 14,1 C 14,1 C 81 % 1016,8 hPa 0,0 mm 0,9 km/h (0 Bft) W-SW 253 0 min 0,000 mm 0,0 UV-I 12 W/m 10,9 C 1,6 km/h (1 Bft)
06.07.2016 05:54 14,0 C 14,1 C 80 % 1016,8 hPa 0,0 mm 1,8 km/h (1 Bft) W-NW 296 0 min 0,000 mm 0,0 UV-I 14 W/m 10,6 C 3,2 km/h (1 Bft)
06.07.2016 05:55 14,1 C 14,1 C 80 % 1016,8 hPa 0,0 mm 1,7 km/h (1 Bft) W 281 0 min 0,000 mm 0,0 UV-I 14 W/m 10,7 C 4,8 km/h (1 Bft)
06.07.2016 05:56 14,1 C 14,1 C 80 % 1016,8 hPa 0,0 mm 2,3 km/h (1 Bft) W 259 0 min 0,000 mm 0,0 UV-I 16 W/m 10,7 C 3,2 km/h (1 Bft)
06.07.2016 05:57 14,1 C 14,1 C 80 % 1016,8 hPa 0,0 mm 1,6 km/h (1 Bft) W 259 0 min 0,000 mm 0,0 UV-I 18 W/m 10,7 C 3,2 km/h (1 Bft)
06.07.2016 05:58 14,1 C 14,2 C 80 % 1016,8 hPa 0,0 mm 1,3 km/h (1 Bft) W 259 0 min 0,000 mm 0,0 UV-I 18 W/m 10,7 C 1,6 km/h (1 Bft)
06.07.2016 05:59 14,2 C 14,2 C 80 % 1016,8 hPa 0,0 mm 1,7 km/h (1 Bft) W 263 0 min 0,000 mm 0,0 UV-I 19 W/m 10,8 C 3,2 km/h (1 Bft)
06.07.2016 06:00 14,2 C 14,2 C 80 % 1016,8 hPa 0,0 mm 3,1 km/h (1 Bft) W-SW 237 0 min 0,000 mm 0,0 UV-I 21 W/m 10,8 C 6,4 km/h (2 Bft)
06.07.2016 06:01 14,2 C 14,2 C 80 % 1016,9 hPa 0,0 mm 3,7 km/h (1 Bft) W-SW 242 0 min 0,000 mm 0,0 UV-I 23 W/m 10,8 C 4,8 km/h (1 Bft)
06.07.2016 06:02 14,3 C 14,3 C 80 % 1016,9 hPa 0,0 mm 2,6 km/h (1 Bft) SW 227 0 min 0,000 mm 0,0 UV-I 25 W/m 10,9 C 3,2 km/h (1 Bft)
06.07.2016 06:03 14,3 C 14,3 C 80 % 1016,9 hPa 0,0 mm 1,9 km/h (1 Bft) S 184 0 min 0,000 mm 0,0 UV-I 28 W/m 10,9 C 3,2 km/h (1 Bft)
06.07.2016 06:04 14,3 C 14,3 C 79 % 1016,9 hPa 0,0 mm 0,5 km/h (0 Bft) S 184 0 min 0,000 mm 0,0 UV-I 28 W/m 10,7 C 1,6 km/h (1 Bft)
06.07.2016 06:05 14,3 C 14,4 C 80 % 1016,9 hPa 0,0 mm 2,5 km/h (1 Bft) SW 229 0 min 0,000 mm 0,0 UV-I 28 W/m 10,9 C 4,8 km/h (1 Bft)
06.07.2016 06:06 14,4 C 14,4 C 79 % 1016,9 hPa 0,0 mm 2,1 km/h (1 Bft) S-SW 205 0 min 0,000 mm 0,0 UV-I 26 W/m 10,8 C 3,2 km/h (1 Bft)
06.07.2016 06:07 14,5 C 14,5 C 79 % 1016,9 hPa 0,0 mm 0,5 km/h (0 Bft) S-SW 205 0 min 0,000 mm 0,0 UV-I 26 W/m 10,9 C 1,6 km/h (1 Bft)
06.07.2016 06:08 14,6 C 14,6 C 79 % 1016,9 hPa 0,0 mm 2,2 km/h (1 Bft) S 178 0 min 0,000 mm 0,0 UV-I 30 W/m 11,0 C 4,8 km/h (1 Bft)
06.07.2016 06:09 14,6 C 14,6 C 79 % 1016,9 hPa 0,0 mm 2,1 km/h (1 Bft) SW 222 0 min 0,000 mm 0,0 UV-I 33 W/m 11,0 C 3,2 km/h (1 Bft)
06.07.2016 06:10 14,7 C 14,7 C 79 % 1016,9 hPa 0,0 mm 1,5 km/h (1 Bft) W-SW 243 0 min 0,000 mm 0,0 UV-I 35 W/m 11,1 C 4,8 km/h (1 Bft)
06.07.2016 06:11 14,7 C 14,7 C 79 % 1016,9 hPa 0,0 mm 3,5 km/h (1 Bft) SW 219 0 min 0,000 mm 0,0 UV-I 30 W/m 11,1 C 6,4 km/h (2 Bft)
06.07.2016 06:12 14,8 C 14,8 C 79 % 1016,9 hPa 0,0 mm 0,9 km/h (0 Bft) SW 219 0 min 0,000 mm 0,0 UV-I 25 W/m 11,2 C 1,6 km/h (1 Bft)
06.07.2016 06:13 14,8 C 14,8 C 79 % 1016,9 hPa 0,0 mm 2,9 km/h (1 Bft) SW 220 0 min 0,000 mm 0,0 UV-I 21 W/m 11,2 C 6,4 km/h (2 Bft)
06.07.2016 06:14 14,8 C 14,8 C 78 % 1016,9 hPa 0,0 mm 3,9 km/h (1 Bft) SW 225 0 min 0,000 mm 0,0 UV-I 21 W/m 11,0 C 6,4 km/h (2 Bft)
06.07.2016 06:15 14,9 C 14,9 C 78 % 1016,9 hPa 0,0 mm 2,3 km/h (1 Bft) S-SW 207 0 min 0,000 mm 0,0 UV-I 21 W/m 11,1 C 4,8 km/h (1 Bft)
06.07.2016 06:16 14,9 C 14,9 C 78 % 1016,9 hPa 0,0 mm 1,9 km/h (1 Bft) SW 231 0 min 0,000 mm 0,0 UV-I 23 W/m 11,1 C 3,2 km/h (1 Bft)
06.07.2016 06:17 14,9 C 14,9 C 78 % 1016,9 hPa 0,0 mm 4,0 km/h (1 Bft) SW 215 0 min 0,000 mm 0,0 UV-I 28 W/m 11,1 C 6,4 km/h (2 Bft)
06.07.2016 06:18 14,9 C 14,9 C 77 % 1016,9 hPa 0,0 mm 2,5 km/h (1 Bft) S-SW 206 0 min 0,000 mm 0,0 UV-I 32 W/m 10,9 C 4,8 km/h (1 Bft)
06.07.2016 06:19 14,9 C 14,9 C 78 % 1016,8 hPa 0,0 mm 5,2 km/h (1 Bft) W 265 0 min 0,000 mm 0,0 UV-I 35 W/m 11,1 C 8,0 km/h (2 Bft)
06.07.2016 06:20 14,9 C 14,9 C 78 % 1016,8 hPa 0,0 mm 0,9 km/h (0 Bft) W-SW 248 0 min 0,000 mm 0,0 UV-I 37 W/m 11,1 C 3,2 km/h (1 Bft)
06.07.2016 06:21 14,9 C 14,9 C 77 % 1016,8 hPa 0,0 mm 1,1 km/h (1 Bft) W-SW 248 0 min 0,000 mm 0,0 UV-I 35 W/m 10,9 C 1,6 km/h (1 Bft)
06.07.2016 06:22 14,9 C 15,0 C 77 % 1016,8 hPa 0,0 mm 1,6 km/h (1 Bft) S 190 0 min 0,000 mm 0,0 UV-I 33 W/m 10,9 C 3,2 km/h (1 Bft)
06.07.2016 06:23 15,0 C 15,0 C 77 % 1016,8 hPa 0,0 mm 1,5 km/h (1 Bft) S-SW 196 0 min 0,000 mm 0,0 UV-I 37 W/m 11,0 C 3,2 km/h (1 Bft)
06.07.2016 06:24 15,0 C 15,0 C 77 % 1016,8 hPa 0,0 mm 0,3 km/h (0 Bft) S-SW 196 0 min 0,000 mm 0,0 UV-I 46 W/m 11,0 C 1,6 km/h (1 Bft)
06.07.2016 06:25 15,0 C 15,0 C 77 % 1016,8 hPa 0,0 mm 2,7 km/h (1 Bft) SW 227 0 min 0,000 mm 0,0 UV-I 58 W/m 11,0 C 3,2 km/h (1 Bft)
06.07.2016 06:26 15,0 C 15,0 C 77 % 1016,8 hPa 0,0 mm 2,7 km/h (1 Bft) SW 232 0 min 0,000 mm 0,0 UV-I 74 W/m 11,0 C 3,2 km/h (1 Bft)
06.07.2016 06:27 15,0 C 15,0 C 78 % 1016,9 hPa 0,0 mm 4,9 km/h (1 Bft) W-SW 258 0 min 0,000 mm 0,0 UV-I 63 W/m 11,2 C 6,4 km/h (2 Bft)
06.07.2016 06:28 14,9 C 15,0 C 78 % 1016,8 hPa 0,0 mm 2,4 km/h (1 Bft) W-SW 237 0 min 0,000 mm 0,0 UV-I 44 W/m 11,1 C 4,8 km/h (1 Bft)
06.07.2016 06:29 14,9 C 15,0 C 79 % 1016,8 hPa 0,0 mm 3,2 km/h (1 Bft) W 264 0 min 0,000 mm 0,0 UV-I 26 W/m 11,3 C 4,8 km/h (1 Bft)
06.07.2016 06:30 15,0 C 15,0 C 78 % 1016,8 hPa 0,0 mm 3,0 km/h (1 Bft) W-SW 257 0 min 0,000 mm 0,0 UV-I 23 W/m 11,2 C 4,8 km/h (1 Bft)
06.07.2016 06:31 15,0 C 15,0 C 79 % 1016,8 hPa 0,0 mm 4,0 km/h (1 Bft) W-SW 248 0 min 0,000 mm 0,0 UV-I 19 W/m 11,4 C 6,4 km/h (2 Bft)
06.07.2016 06:32 14,9 C 15,0 C 79 % 1016,9 hPa 0,0 mm 3,8 km/h (1 Bft) W 277 0 min 0,000 mm 0,0 UV-I 16 W/m 11,3 C 8,0 km/h (2 Bft)
06.07.2016 06:33 14,9 C 15,0 C 79 % 1016,9 hPa 0,0 mm 3,4 km/h (1 Bft) W 264 0 min 0,000 mm 0,0 UV-I 14 W/m 11,3 C 4,8 km/h (1 Bft)
06.07.2016 06:34 14,9 C 14,9 C 78 % 1016,9 hPa 0,0 mm 3,9 km/h (1 Bft) W 261 0 min 0,000 mm 0,0 UV-I 12 W/m 11,1 C 6,4 km/h (2 Bft)
06.07.2016 06:35 14,9 C 14,9 C 80 % 1016,9 hPa 0,0 mm 3,3 km/h (1 Bft) SW 236 0 min 0,000 mm 0,0 UV-I 14 W/m 11,5 C 4,8 km/h (1 Bft)
06.07.2016 06:36 14,9 C 14,9 C 79 % 1016,9 hPa 0,0 mm 4,1 km/h (1 Bft) W-SW 254 0 min 0,000 mm 0,0 UV-I 14 W/m 11,3 C 6,4 km/h (2 Bft)
06.07.2016 06:37 14,9 C 14,9 C 79 % 1016,9 hPa 0,0 mm 5,7 km/h (1 Bft) W-SW 250 0 min 0,000 mm 0,0 UV-I 14 W/m 11,3 C 9,7 km/h (2 Bft)
06.07.2016 06:38 14,8 C 14,9 C 80 % 1016,9 hPa 0,0 mm 5,5 km/h (1 Bft) W-SW 239 0 min 0,000 mm 0,0 UV-I 16 W/m 11,4 C 9,7 km/h (2 Bft)
06.07.2016 06:39 14,8 C 14,8 C 79 % 1016,9 hPa 0,0 mm 2,8 km/h (1 Bft) SW 229 0 min 0,000 mm 0,0 UV-I 18 W/m 11,2 C 4,8 km/h (1 Bft)
06.07.2016 06:40 14,8 C 14,8 C 79 % 1016,9 hPa 0,0 mm 3,4 km/h (1 Bft) S 190 0 min 0,000 mm 0,0 UV-I 19 W/m 11,2 C 6,4 km/h (2 Bft)
06.07.2016 06:41 14,8 C 14,8 C 80 % 1016,9 hPa 0,0 mm 2,2 km/h (1 Bft) W 273 0 min 0,000 mm 0,0 UV-I 28 W/m 11,4 C 3,2 km/h (1 Bft)
06.07.2016 06:42 14,8 C 14,8 C 80 % 1016,9 hPa 0,0 mm 3,2 km/h (1 Bft) W 261 0 min 0,000 mm 0,0 UV-I 28 W/m 11,4 C 4,8 km/h (1 Bft)
06.07.2016 06:43 14,8 C 14,8 C 79 % 1016,9 hPa 0,0 mm 6,0 km/h (2 Bft) W-SW 251 0 min 0,000 mm 0,0 UV-I 21 W/m 11,2 C 11,3 km/h (2 Bft)
06.07.2016 06:44 14,9 C 14,9 C 78 % 1016,9 hPa 0,0 mm 3,4 km/h (1 Bft) SW 220 0 min 0,000 mm 0,0 UV-I 16 W/m 11,1 C 4,8 km/h (1 Bft)
06.07.2016 06:45 14,8 C 14,9 C 78 % 1017,0 hPa 0,0 mm 0,7 km/h (0 Bft) SW 215 0 min 0,000 mm 0,0 UV-I 16 W/m 11,0 C 1,6 km/h (1 Bft)
06.07.2016 06:46 14,9 C 14,9 C 79 % 1016,9 hPa 0,0 mm 1,8 km/h (1 Bft) S-SW 199 0 min 0,000 mm 0,0 UV-I 18 W/m 11,3 C 3,2 km/h (1 Bft)
06.07.2016 06:47 14,9 C 14,9 C 79 % 1016,9 hPa 0,0 mm 2,2 km/h (1 Bft) W-SW 247 0 min 0,000 mm 0,0 UV-I 23 W/m 11,3 C 3,2 km/h (1 Bft)
06.07.2016 06:48 14,9 C 14,9 C 79 % 1016,9 hPa 0,0 mm 3,7 km/h (1 Bft) W-SW 240 0 min 0,000 mm 0,0 UV-I 25 W/m 11,3 C 4,8 km/h (1 Bft)
06.07.2016 06:49 14,9 C 14,9 C 80 % 1016,9 hPa 0,0 mm 4,1 km/h (1 Bft) W-SW 256 0 min 0,000 mm 0,0 UV-I 30 W/m 11,5 C 8,0 km/h (2 Bft)
06.07.2016 06:50 14,9 C 14,9 C 80 % 1016,9 hPa 0,0 mm 5,0 km/h (1 Bft) S-SW 195 0 min 0,000 mm 0,0 UV-I 33 W/m 11,5 C 11,3 km/h (2 Bft)
06.07.2016 06:51 14,8 C 14,9 C 78 % 1016,9 hPa 0,0 mm 1,3 km/h (1 Bft) W-SW 244 0 min 0,000 mm 0,0 UV-I 33 W/m 11,0 C 3,2 km/h (1 Bft)
06.07.2016 06:52 14,9 C 14,9 C 79 % 1016,9 hPa 0,0 mm 3,1 km/h (1 Bft) W-SW 246 0 min 0,000 mm 0,0 UV-I 37 W/m 11,3 C 4,8 km/h (1 Bft)
06.07.2016 06:53 14,9 C 14,9 C 80 % 1016,9 hPa 0,0 mm 3,6 km/h (1 Bft) SW 232 0 min 0,000 mm 0,0 UV-I 40 W/m 11,5 C 9,7 km/h (2 Bft)
06.07.2016 06:54 14,9 C 14,9 C 79 % 1016,8 hPa 0,0 mm 4,2 km/h (1 Bft) W-SW 245 0 min 0,000 mm 0,0 UV-I 46 W/m 11,3 C 6,4 km/h (2 Bft)
06.07.2016 06:55 14,9 C 14,9 C 79 % 1016,8 hPa 0,0 mm 4,2 km/h (1 Bft) SW 236 0 min 0,000 mm 0,0 UV-I 53 W/m 11,3 C 6,4 km/h (2 Bft)
06.07.2016 06:56 14,9 C 14,9 C 80 % 1016,8 hPa 0,0 mm 7,0 km/h (2 Bft) W 262 0 min 0,000 mm 0,0 UV-I 63 W/m 11,5 C 11,3 km/h (2 Bft)
06.07.2016 06:57 14,9 C 14,9 C 79 % 1016,9 hPa 0,0 mm 5,1 km/h (1 Bft) W-SW 242 0 min 0,000 mm 0,0 UV-I 69 W/m 11,3 C 8,0 km/h (2 Bft)
06.07.2016 06:58 14,9 C 14,9 C 80 % 1016,9 hPa 0,0 mm 2,4 km/h (1 Bft) W 259 0 min 0,000 mm 0,0 UV-I 58 W/m 11,5 C 4,8 km/h (1 Bft)
06.07.2016 06:59 14,9 C 14,9 C 80 % 1016,9 hPa 0,0 mm 1,7 km/h (1 Bft) W 259 0 min 0,000 mm 0,0 UV-I 56 W/m 11,5 C 3,2 km/h (1 Bft)
06.07.2016 07:00 14,9 C 15,0 C 80 % 1016,9 hPa 0,0 mm 1,4 km/h (1 Bft) W 259 0 min 0,025 mm 0,0 UV-I 54 W/m 11,5 C 3,2 km/h (1 Bft)
06.07.2016 07:01 15,0 C 15,0 C 80 % 1016,8 hPa 0,0 mm 1,9 km/h (1 Bft) W 265 0 min 0,000 mm 0,0 UV-I 56 W/m 11,6 C 3,2 km/h (1 Bft)
06.07.2016 07:02 15,0 C 15,0 C 80 % 1016,9 hPa 0,0 mm 1,8 km/h (1 Bft) W 265 0 min 0,000 mm 0,0 UV-I 54 W/m 11,6 C 3,2 km/h (1 Bft)
06.07.2016 07:03 15,0 C 15,0 C 80 % 1016,8 hPa 0,0 mm 2,8 km/h (1 Bft) W 260 0 min 0,000 mm 0,0 UV-I 53 W/m 11,6 C 6,4 km/h (2 Bft)
06.07.2016 07:04 15,1 C 15,1 C 80 % 1016,8 hPa 0,0 mm 6,9 km/h (2 Bft) W-NW 284 0 min 0,000 mm 0,0 UV-I 51 W/m 11,7 C 11,3 km/h (2 Bft)
06.07.2016 07:05 15,0 C 15,1 C 79 % 1016,9 hPa 0,0 mm 4,1 km/h (1 Bft) W-SW 256 0 min 0,000 mm 0,0 UV-I 54 W/m 11,4 C 11,3 km/h (2 Bft)
06.07.2016 07:06 15,1 C 15,1 C 80 % 1016,9 hPa 0,0 mm 2,3 km/h (1 Bft) W 266 0 min 0,000 mm 0,0 UV-I 60 W/m 11,7 C 3,2 km/h (1 Bft)
06.07.2016 07:07 15,1 C 15,1 C 80 % 1016,9 hPa 0,0 mm 2,8 km/h (1 Bft) W 264 0 min 0,000 mm 0,0 UV-I 58 W/m 11,7 C 6,4 km/h (2 Bft)
06.07.2016 07:08 15,1 C 15,1 C 80 % 1016,9 hPa 0,0 mm 1,6 km/h (1 Bft) W 264 0 min 0,000 mm 0,0 UV-I 51 W/m 11,7 C 3,2 km/h (1 Bft)
06.07.2016 07:09 15,1 C 15,1 C 80 % 1016,8 hPa 0,0 mm 1,6 km/h (1 Bft) W 275 0 min 0,000 mm 0,0 UV-I 46 W/m 11,7 C 3,2 km/h (1 Bft)
06.07.2016 07:10 15,1 C 15,1 C 80 % 1016,8 hPa 0,0 mm 2,2 km/h (1 Bft) W 275 0 min 0,000 mm 0,0 UV-I 49 W/m 11,7 C 3,2 km/h (1 Bft)
06.07.2016 07:11 15,1 C 15,1 C 80 % 1016,8 hPa 0,0 mm 2,3 km/h (1 Bft) SW 236 0 min 0,000 mm 0,0 UV-I 53 W/m 11,7 C 3,2 km/h (1 Bft)
06.07.2016 07:12 15,1 C 15,1 C 80 % 1016,8 hPa 0,0 mm 4,4 km/h (1 Bft) W 264 0 min 0,000 mm 0,5 UV-I 62 W/m 11,7 C 6,4 km/h (2 Bft)
06.07.2016 07:13 15,1 C 15,1 C 81 % 1016,8 hPa 0,0 mm 5,3 km/h (1 Bft) W 260 0 min 0,000 mm 0,5 UV-I 70 W/m 11,9 C 6,4 km/h (2 Bft)
06.07.2016 07:14 15,1 C 15,1 C 80 % 1016,8 hPa 0,0 mm 4,8 km/h (1 Bft) SW 225 0 min 0,000 mm 0,0 UV-I 77 W/m 11,7 C 8,0 km/h (2 Bft)
06.07.2016 07:15 15,1 C 15,1 C 81 % 1016,8 hPa 0,0 mm 1,6 km/h (1 Bft) SW 225 0 min 0,000 mm 0,0 UV-I 84 W/m 11,9 C 3,2 km/h (1 Bft)
06.07.2016 07:16 15,1 C 15,1 C 80 % 1016,9 hPa 0,0 mm 2,8 km/h (1 Bft) W 265 0 min 0,000 mm 0,0 UV-I 93 W/m 11,7 C 4,8 km/h (1 Bft)
06.07.2016 07:17 15,1 C 15,1 C 81 % 1016,9 hPa 0,0 mm 3,5 km/h (1 Bft) W-SW 254 0 min 0,000 mm 0,0 UV-I 88 W/m 11,9 C 4,8 km/h (1 Bft)
06.07.2016 07:18 15,1 C 15,1 C 81 % 1016,8 hPa 0,0 mm 4,1 km/h (1 Bft) W-SW 254 0 min 0,000 mm 0,0 UV-I 81 W/m 11,9 C 6,4 km/h (2 Bft)
06.07.2016 07:19 15,2 C 15,2 C 81 % 1016,8 hPa 0,0 mm 1,3 km/h (1 Bft) W-SW 254 0 min 0,000 mm 0,0 UV-I 70 W/m 12,0 C 3,2 km/h (1 Bft)
06.07.2016 07:20 15,2 C 15,2 C 80 % 1016,9 hPa 0,0 mm 1,5 km/h (1 Bft) W-SW 246 0 min 0,000 mm 0,0 UV-I 54 W/m 11,8 C 3,2 km/h (1 Bft)
06.07.2016 07:21 15,2 C 15,2 C 79 % 1016,9 hPa 0,0 mm 2,5 km/h (1 Bft) W 275 0 min 0,000 mm 0,0 UV-I 44 W/m 11,6 C 4,8 km/h (1 Bft)
06.07.2016 07:22 15,2 C 15,2 C 80 % 1016,9 hPa 0,0 mm 2,4 km/h (1 Bft) W-NW 282 0 min 0,000 mm 0,0 UV-I 47 W/m 11,8 C 3,2 km/h (1 Bft)
06.07.2016 07:23 15,2 C 15,2 C 80 % 1016,8 hPa 0,0 mm 2,6 km/h (1 Bft) W-SW 257 0 min 0,000 mm 0,0 UV-I 67 W/m 11,8 C 4,8 km/h (1 Bft)
06.07.2016 07:24 15,2 C 15,2 C 81 % 1016,8 hPa 0,0 mm 4,0 km/h (1 Bft) W-SW 239 0 min 0,000 mm 0,5 UV-I 81 W/m 12,0 C 6,4 km/h (2 Bft)
06.07.2016 07:25 15,2 C 15,2 C 80 % 1016,9 hPa 0,0 mm 2,9 km/h (1 Bft) W-NW 292 0 min 0,000 mm 0,5 UV-I 88 W/m 11,8 C 4,8 km/h (1 Bft)
06.07.2016 07:26 15,2 C 15,2 C 80 % 1016,9 hPa 0,0 mm 0,9 km/h (0 Bft) W-NW 292 0 min 0,000 mm 0,5 UV-I 91 W/m 11,8 C 1,6 km/h (1 Bft)
06.07.2016 07:27 15,2 C 15,2 C 79 % 1016,9 hPa 0,0 mm 3,0 km/h (1 Bft) W-NW 293 0 min 0,000 mm 0,6 UV-I 132 W/m 11,6 C 4,8 km/h (1 Bft)
06.07.2016 07:28 15,3 C 15,3 C 80 % 1016,9 hPa 0,0 mm 3,6 km/h (1 Bft) W-SW 242 0 min 0,000 mm 0,6 UV-I 141 W/m 11,9 C 6,4 km/h (2 Bft)
06.07.2016 07:29 15,3 C 15,3 C 79 % 1016,9 hPa 0,0 mm 6,2 km/h (2 Bft) W 279 0 min 0,000 mm 0,0 UV-I 127 W/m 11,7 C 12,9 km/h (3 Bft)
06.07.2016 07:30 15,3 C 15,3 C 79 % 1016,9 hPa 0,0 mm 4,4 km/h (1 Bft) W-NW 284 0 min 0,000 mm 0,0 UV-I 98 W/m 11,7 C 6,4 km/h (2 Bft)
06.07.2016 07:31 15,3 C 15,3 C 80 % 1016,9 hPa 0,0 mm 5,2 km/h (1 Bft) W 262 0 min 0,000 mm 0,0 UV-I 77 W/m 11,9 C 9,7 km/h (2 Bft)
06.07.2016 07:32 15,3 C 15,3 C 79 % 1016,9 hPa 0,0 mm 5,3 km/h (1 Bft) W-SW 254 0 min 0,000 mm 0,0 UV-I 65 W/m 11,7 C 6,4 km/h (2 Bft)
06.07.2016 07:33 15,3 C 15,3 C 79 % 1017,0 hPa 0,0 mm 5,2 km/h (1 Bft) W 264 0 min 0,000 mm 0,0 UV-I 40 W/m 11,7 C 6,4 km/h (2 Bft)
06.07.2016 07:34 15,3 C 15,3 C 79 % 1017,1 hPa 0,0 mm 5,5 km/h (1 Bft) W 280 0 min 0,000 mm 0,0 UV-I 35 W/m 11,7 C 11,3 km/h (2 Bft)
06.07.2016 07:35 15,3 C 15,3 C 79 % 1017,1 hPa 0,0 mm 8,0 km/h (2 Bft) SW 236 0 min 0,000 mm 0,0 UV-I 32 W/m 11,7 C 12,9 km/h (3 Bft)
06.07.2016 07:36 15,3 C 15,3 C 79 % 1017,1 hPa 0,0 mm 7,0 km/h (2 Bft) W 263 0 min 0,000 mm 0,0 UV-I 28 W/m 11,7 C 11,3 km/h (2 Bft)
06.07.2016 07:37 15,2 C 15,3 C 79 % 1017,1 hPa 0,0 mm 3,6 km/h (1 Bft) W 274 0 min 0,000 mm 0,0 UV-I 23 W/m 11,6 C 4,8 km/h (1 Bft)
06.07.2016 07:38 15,2 C 15,2 C 79 % 1017,2 hPa 0,0 mm 3,0 km/h (1 Bft) W 276 0 min 0,000 mm 0,0 UV-I 19 W/m 11,6 C 4,8 km/h (1 Bft)
06.07.2016 07:39 15,2 C 15,2 C 79 % 1017,2 hPa 0,0 mm 4,1 km/h (1 Bft) W-NW 290 0 min 0,000 mm 0,0 UV-I 30 W/m 11,6 C 6,4 km/h (2 Bft)
06.07.2016 07:40 15,2 C 15,2 C 79 % 1017,2 hPa 0,0 mm 2,9 km/h (1 Bft) W-SW 252 0 min 0,000 mm 0,0 UV-I 37 W/m 11,6 C 6,4 km/h (2 Bft)
06.07.2016 07:41 15,1 C 15,2 C 79 % 1017,2 hPa 0,0 mm 4,6 km/h (1 Bft) W-NW 289 0 min 0,000 mm 0,0 UV-I 39 W/m 11,5 C 6,4 km/h (2 Bft)
06.07.2016 07:42 15,1 C 15,1 C 81 % 1017,2 hPa 0,0 mm 4,6 km/h (1 Bft) W-SW 248 0 min 0,000 mm 0,0 UV-I 39 W/m 11,9 C 6,4 km/h (2 Bft)
06.07.2016 07:43 15,1 C 15,1 C 80 % 1017,1 hPa 0,0 mm 2,6 km/h (1 Bft) SW 234 0 min 0,000 mm 0,0 UV-I 39 W/m 11,7 C 4,8 km/h (1 Bft)
06.07.2016 07:44 15,1 C 15,1 C 80 % 1017,2 hPa 0,0 mm 2,3 km/h (1 Bft) W-SW 237 0 min 0,000 mm 0,0 UV-I 53 W/m 11,7 C 4,8 km/h (1 Bft)
06.07.2016 07:45 15,1 C 15,1 C 81 % 1017,1 hPa 0,0 mm 0,6 km/h (0 Bft) W-SW 246 0 min 0,000 mm 0,6 UV-I 98 W/m 11,9 C 3,2 km/h (1 Bft)
06.07.2016 07:46 15,1 C 15,1 C 80 % 1017,1 hPa 0,0 mm 3,6 km/h (1 Bft) W-NW 285 0 min 0,000 mm 0,8 UV-I 127 W/m 11,7 C 4,8 km/h (1 Bft)
06.07.2016 07:47 15,1 C 15,1 C 79 % 1017,1 hPa 0,0 mm 3,2 km/h (1 Bft) W-SW 256 0 min 0,000 mm 0,8 UV-I 155 W/m 11,5 C 4,8 km/h (1 Bft)
06.07.2016 07:48 15,1 C 15,2 C 79 % 1017,1 hPa 0,0 mm 4,0 km/h (1 Bft) W 278 0 min 0,000 mm 0,9 UV-I 176 W/m 11,5 C 4,8 km/h (1 Bft)
06.07.2016 07:49 15,2 C 15,2 C 80 % 1017,1 hPa 0,0 mm 4,6 km/h (1 Bft) W-NW 284 0 min 0,000 mm 0,8 UV-I 192 W/m 11,8 C 6,4 km/h (2 Bft)
06.07.2016 07:50 15,3 C 15,3 C 80 % 1017,1 hPa 0,0 mm 3,8 km/h (1 Bft) W 279 0 min 0,000 mm 0,8 UV-I 186 W/m 11,9 C 6,4 km/h (2 Bft)
06.07.2016 07:51 15,3 C 15,3 C 80 % 1017,1 hPa 0,0 mm 2,7 km/h (1 Bft) W 279 0 min 0,000 mm 0,7 UV-I 195 W/m 11,9 C 4,8 km/h (1 Bft)
06.07.2016 07:52 15,4 C 15,4 C 80 % 1017,1 hPa 0,0 mm 3,9 km/h (1 Bft) W 267 0 min 0,000 mm 0,8 UV-I 195 W/m 12,0 C 6,4 km/h (2 Bft)
06.07.2016 07:53 15,6 C 15,6 C 81 % 1017,1 hPa 0,0 mm 4,5 km/h (1 Bft) W 265 0 min 0,000 mm 0,6 UV-I 195 W/m 12,3 C 6,4 km/h (2 Bft)
06.07.2016 07:54 15,7 C 15,7 C 79 % 1017,1 hPa 0,0 mm 5,0 km/h (1 Bft) SW 221 0 min 0,000 mm 0,6 UV-I 107 W/m 12,1 C 9,7 km/h (2 Bft)
06.07.2016 07:55 15,7 C 15,7 C 78 % 1017,1 hPa 0,0 mm 5,8 km/h (2 Bft) W-SW 247 0 min 0,000 mm 0,5 UV-I 95 W/m 11,9 C 6,4 km/h (2 Bft)
06.07.2016 07:56 15,7 C 15,7 C 78 % 1017,1 hPa 0,0 mm 4,7 km/h (1 Bft) W-NW 282 0 min 0,000 mm 0,0 UV-I 76 W/m 11,9 C 6,4 km/h (2 Bft)
06.07.2016 07:57 15,6 C 15,7 C 78 % 1017,2 hPa 0,0 mm 4,2 km/h (1 Bft) W-NW 298 0 min 0,000 mm 0,0 UV-I 49 W/m 11,8 C 6,4 km/h (2 Bft)
06.07.2016 07:58 15,6 C 15,6 C 78 % 1017,2 hPa 0,0 mm 7,0 km/h (2 Bft) W-SW 238 0 min 0,000 mm 0,0 UV-I 49 W/m 11,8 C 11,3 km/h (2 Bft)
06.07.2016 07:59 15,5 C 15,6 C 78 % 1017,2 hPa 0,0 mm 6,4 km/h (2 Bft) W-NW 290 0 min 0,000 mm 0,0 UV-I 53 W/m 11,7 C 9,7 km/h (2 Bft)
06.07.2016 08:00 15,4 C 15,5 C 78 % 1017,3 hPa 0,0 mm 5,0 km/h (1 Bft) W 260 0 min 0,000 mm 0,0 UV-I 58 W/m 11,6 C 9,7 km/h (2 Bft)
06.07.2016 08:01 15,4 C 15,4 C 78 % 1017,2 hPa 0,0 mm 7,5 km/h (2 Bft) W 277 0 min 0,051 mm 0,0 UV-I 53 W/m 11,6 C 12,9 km/h (3 Bft)
06.07.2016 08:02 15,3 C 15,4 C 78 % 1017,3 hPa 0,0 mm 7,0 km/h (2 Bft) W-NW 302 0 min 0,000 mm 0,0 UV-I 35 W/m 11,5 C 9,7 km/h (2 Bft)
06.07.2016 08:03 15,3 C 15,3 C 79 % 1017,3 hPa 0,0 mm 6,2 km/h (2 Bft) W 279 0 min 0,000 mm 0,0 UV-I 26 W/m 11,7 C 11,3 km/h (2 Bft)
06.07.2016 08:04 15,3 C 15,3 C 79 % 1017,3 hPa 0,0 mm 8,1 km/h (2 Bft) W 265 0 min 0,000 mm 0,0 UV-I 37 W/m 11,7 C 12,9 km/h (3 Bft)
06.07.2016 08:05 15,2 C 15,3 C 79 % 1017,3 hPa 0,0 mm 5,3 km/h (1 Bft) W-NW 289 0 min 0,000 mm 0,0 UV-I 47 W/m 11,6 C 8,0 km/h (2 Bft)
06.07.2016 08:06 15,2 C 15,2 C 80 % 1017,3 hPa 0,0 mm 2,6 km/h (1 Bft) W 273 0 min 0,000 mm 0,0 UV-I 53 W/m 11,8 C 4,8 km/h (1 Bft)
06.07.2016 08:07 15,1 C 15,2 C 79 % 1017,3 hPa 0,0 mm 1,5 km/h (1 Bft) NW 309 0 min 0,000 mm 0,0 UV-I 54 W/m 11,5 C 4,8 km/h (1 Bft)
06.07.2016 08:08 15,1 C 15,2 C 79 % 1017,2 hPa 0,0 mm 3,6 km/h (1 Bft) W 265 0 min 0,000 mm 0,0 UV-I 54 W/m 11,5 C 6,4 km/h (2 Bft)
06.07.2016 08:09 15,1 C 15,1 C 79 % 1017,3 hPa 0,0 mm 4,6 km/h (1 Bft) SW 220 0 min 0,000 mm 0,0 UV-I 47 W/m 11,5 C 9,7 km/h (2 Bft)
06.07.2016 08:10 15,1 C 15,1 C 79 % 1017,3 hPa 0,0 mm 6,6 km/h (2 Bft) W-NW 299 0 min 0,000 mm 0,0 UV-I 37 W/m 11,5 C 9,7 km/h (2 Bft)
06.07.2016 08:11 15,1 C 15,1 C 79 % 1017,4 hPa 0,0 mm 6,0 km/h (2 Bft) W-SW 250 0 min 0,000 mm 0,0 UV-I 28 W/m 11,5 C 9,7 km/h (2 Bft)
06.07.2016 08:12 15,1 C 15,1 C 80 % 1017,4 hPa 0,0 mm 8,6 km/h (2 Bft) W 261 0 min 0,000 mm 0,0 UV-I 28 W/m 11,7 C 12,9 km/h (3 Bft)
06.07.2016 08:13 15,0 C 15,1 C 79 % 1017,4 hPa 0,0 mm 9,6 km/h (2 Bft) NW 311 0 min 0,000 mm 0,0 UV-I 33 W/m 11,4 C 12,9 km/h (3 Bft)
06.07.2016 08:14 14,9 C 15,0 C 80 % 1017,3 hPa 0,0 mm 5,9 km/h (2 Bft) W-NW 298 0 min 0,000 mm 0,0 UV-I 26 W/m 11,5 C 11,3 km/h (2 Bft)
06.07.2016 08:15 14,9 C 14,9 C 80 % 1017,4 hPa 0,0 mm 6,9 km/h (2 Bft) W-NW 286 0 min 0,000 mm 0,0 UV-I 25 W/m 11,5 C 11,3 km/h (2 Bft)
06.07.2016 08:16 14,9 C 14,9 C 80 % 1017,4 hPa 0,0 mm 3,4 km/h (1 Bft) W-SW 249 0 min 0,000 mm 0,0 UV-I 28 W/m 11,5 C 4,8 km/h (1 Bft)
06.07.2016 08:17 14,9 C 14,9 C 81 % 1017,4 hPa 0,0 mm 4,2 km/h (1 Bft) W 275 0 min 0,000 mm 0,0 UV-I 33 W/m 11,7 C 6,4 km/h (2 Bft)
06.07.2016 08:18 14,9 C 14,9 C 81 % 1017,4 hPa 0,0 mm 4,7 km/h (1 Bft) W 274 0 min 0,000 mm 0,0 UV-I 33 W/m 11,7 C 6,4 km/h (2 Bft)
06.07.2016 08:19 14,8 C 14,9 C 81 % 1017,5 hPa 0,0 mm 2,7 km/h (1 Bft) W-SW 242 0 min 0,000 mm 0,0 UV-I 35 W/m 11,6 C 3,2 km/h (1 Bft)
06.07.2016 08:20 14,8 C 14,8 C 81 % 1017,5 hPa 0,0 mm 4,4 km/h (1 Bft) W-NW 290 0 min 0,000 mm 0,0 UV-I 44 W/m 11,6 C 6,4 km/h (2 Bft)
06.07.2016 08:21 14,8 C 14,8 C 81 % 1017,5 hPa 0,0 mm 6,6 km/h (2 Bft) W 268 0 min 0,000 mm 0,0 UV-I 53 W/m 11,6 C 9,7 km/h (2 Bft)
06.07.2016 08:22 14,8 C 14,8 C 81 % 1017,5 hPa 0,0 mm 5,4 km/h (1 Bft) W 281 0 min 0,000 mm 0,5 UV-I 63 W/m 11,6 C 6,4 km/h (2 Bft)
06.07.2016 08:23 14,8 C 14,8 C 81 % 1017,5 hPa 0,0 mm 7,4 km/h (2 Bft) W 277 0 min 0,000 mm 0,5 UV-I 65 W/m 11,6 C 11,3 km/h (2 Bft)
06.07.2016 08:24 14,8 C 14,8 C 81 % 1017,5 hPa 0,0 mm 5,2 km/h (1 Bft) W 271 0 min 0,000 mm 0,5 UV-I 65 W/m 11,6 C 11,3 km/h (2 Bft)
06.07.2016 08:25 14,8 C 14,8 C 82 % 1017,5 hPa 0,0 mm 6,5 km/h (2 Bft) W 278 0 min 0,000 mm 0,6 UV-I 70 W/m 11,8 C 9,7 km/h (2 Bft)
06.07.2016 08:26 14,9 C 14,9 C 82 % 1017,4 hPa 0,0 mm 3,7 km/h (1 Bft) W-SW 242 0 min 0,000 mm 0,6 UV-I 91 W/m 11,9 C 6,4 km/h (2 Bft)
06.07.2016 08:27 14,9 C 14,9 C 81 % 1017,5 hPa 0,0 mm 5,0 km/h (1 Bft) W 266 0 min 0,000 mm 0,6 UV-I 98 W/m 11,7 C 6,4 km/h (2 Bft)
06.07.2016 08:28 14,9 C 14,9 C 81 % 1017,5 hPa 0,0 mm 5,2 km/h (1 Bft) W 279 0 min 0,000 mm 0,6 UV-I 91 W/m 11,7 C 6,4 km/h (2 Bft)
06.07.2016 08:29 14,9 C 14,9 C 81 % 1017,5 hPa 0,0 mm 6,8 km/h (2 Bft) W-SW 248 0 min 0,000 mm 0,5 UV-I 81 W/m 11,7 C 12,9 km/h (3 Bft)
06.07.2016 08:30 14,9 C 14,9 C 81 % 1017,5 hPa 0,0 mm 5,8 km/h (2 Bft) W 266 0 min 0,000 mm 0,0 UV-I 70 W/m 11,7 C 11,3 km/h (2 Bft)
06.07.2016 08:31 14,9 C 14,9 C 80 % 1017,5 hPa 0,0 mm 3,7 km/h (1 Bft) W-NW 293 0 min 0,000 mm 0,5 UV-I 69 W/m 11,5 C 4,8 km/h (1 Bft)
06.07.2016 08:32 14,9 C 14,9 C 81 % 1017,5 hPa 0,0 mm 4,2 km/h (1 Bft) W 269 0 min 0,000 mm 0,6 UV-I 81 W/m 11,7 C 6,4 km/h (2 Bft)
06.07.2016 08:33 14,9 C 14,9 C 81 % 1017,5 hPa 0,0 mm 3,1 km/h (1 Bft) W 269 0 min 0,000 mm 0,5 UV-I 76 W/m 11,7 C 4,8 km/h (1 Bft)
06.07.2016 08:34 14,9 C 14,9 C 81 % 1017,5 hPa 0,0 mm 3,6 km/h (1 Bft) W 267 0 min 0,000 mm 0,5 UV-I 69 W/m 11,7 C 4,8 km/h (1 Bft)
06.07.2016 08:35 14,9 C 14,9 C 82 % 1017,5 hPa 0,0 mm 4,0 km/h (1 Bft) W 274 0 min 0,000 mm 0,5 UV-I 65 W/m 11,9 C 6,4 km/h (2 Bft)
06.07.2016 08:36 14,9 C 14,9 C 82 % 1017,5 hPa 0,0 mm 4,6 km/h (1 Bft) W 259 0 min 0,000 mm 0,5 UV-I 63 W/m 11,9 C 8,0 km/h (2 Bft)
06.07.2016 08:37 14,9 C 14,9 C 82 % 1017,5 hPa 0,0 mm 4,7 km/h (1 Bft) W-NW 285 0 min 0,000 mm 0,5 UV-I 62 W/m 11,9 C 6,4 km/h (2 Bft)
06.07.2016 08:38 14,9 C 14,9 C 82 % 1017,4 hPa 0,0 mm 2,3 km/h (1 Bft) W-NW 285 0 min 0,000 mm 0,5 UV-I 72 W/m 11,9 C 3,2 km/h (1 Bft)
06.07.2016 08:39 14,9 C 14,9 C 82 % 1017,4 hPa 0,0 mm 1,5 km/h (1 Bft) W-NW 284 0 min 0,000 mm 0,6 UV-I 76 W/m 11,9 C 3,2 km/h (1 Bft)
06.07.2016 08:40 14,9 C 14,9 C 81 % 1017,5 hPa 0,0 mm 2,5 km/h (1 Bft) W-SW 252 0 min 0,000 mm 0,5 UV-I 65 W/m 11,7 C 3,2 km/h (1 Bft)
06.07.2016 08:41 14,9 C 14,9 C 82 % 1017,5 hPa 0,0 mm 2,5 km/h (1 Bft) W 274 0 min 0,000 mm 0,0 UV-I 51 W/m 11,9 C 4,8 km/h (1 Bft)
06.07.2016 08:42 14,9 C 14,9 C 82 % 1017,5 hPa 0,0 mm 4,8 km/h (1 Bft) W 271 0 min 0,000 mm 0,0 UV-I 46 W/m 11,9 C 6,4 km/h (2 Bft)
06.07.2016 08:43 14,9 C 14,9 C 82 % 1017,5 hPa 0,0 mm 4,7 km/h (1 Bft) W-NW 284 0 min 0,000 mm 0,0 UV-I 47 W/m 11,9 C 6,4 km/h (2 Bft)
06.07.2016 08:44 14,9 C 14,9 C 81 % 1017,5 hPa 0,0 mm 5,6 km/h (1 Bft) W-NW 284 0 min 0,000 mm 0,0 UV-I 58 W/m 11,7 C 9,7 km/h (2 Bft)
06.07.2016 08:45 14,9 C 14,9 C 82 % 1017,5 hPa 0,0 mm 4,2 km/h (1 Bft) W-SW 244 0 min 0,000 mm 0,5 UV-I 58 W/m 11,9 C 9,7 km/h (2 Bft)
06.07.2016 08:46 14,9 C 14,9 C 82 % 1017,5 hPa 0,0 mm 3,6 km/h (1 Bft) W-SW 253 0 min 0,000 mm 0,5 UV-I 56 W/m 11,9 C 4,8 km/h (1 Bft)
06.07.2016 08:47 14,8 C 14,9 C 82 % 1017,5 hPa 0,0 mm 3,6 km/h (1 Bft) W-NW 283 0 min 0,000 mm 0,5 UV-I 60 W/m 11,8 C 4,8 km/h (1 Bft)
06.07.2016 08:48 14,8 C 14,9 C 81 % 1017,5 hPa 0,0 mm 3,6 km/h (1 Bft) W 274 0 min 0,000 mm 0,0 UV-I 58 W/m 11,6 C 4,8 km/h (1 Bft)
06.07.2016 08:49 14,8 C 14,8 C 82 % 1017,5 hPa 0,0 mm 2,5 km/h (1 Bft) W-NW 301 0 min 0,000 mm 0,0 UV-I 51 W/m 11,8 C 4,8 km/h (1 Bft)
06.07.2016 08:50 14,8 C 14,8 C 83 % 1017,6 hPa 0,0 mm 4,4 km/h (1 Bft) W 267 0 min 0,000 mm 0,0 UV-I 63 W/m 11,9 C 6,4 km/h (2 Bft)
06.07.2016 08:51 14,8 C 14,8 C 83 % 1017,6 hPa 0,0 mm 2,0 km/h (1 Bft) W-NW 302 0 min 0,000 mm 0,7 UV-I 90 W/m 11,9 C 3,2 km/h (1 Bft)
06.07.2016 08:52 14,8 C 14,8 C 82 % 1017,6 hPa 0,0 mm 4,1 km/h (1 Bft) W-NW 291 0 min 0,000 mm 0,7 UV-I 102 W/m 11,8 C 6,4 km/h (2 Bft)
06.07.2016 08:53 14,8 C 14,8 C 82 % 1017,6 hPa 0,0 mm 3,8 km/h (1 Bft) W-NW 282 0 min 0,000 mm 0,7 UV-I 105 W/m 11,8 C 6,4 km/h (2 Bft)
06.07.2016 08:54 14,8 C 14,8 C 83 % 1017,6 hPa 0,0 mm 3,6 km/h (1 Bft) W 266 0 min 0,000 mm 0,7 UV-I 107 W/m 11,9 C 4,8 km/h (1 Bft)
06.07.2016 08:55 14,9 C 14,9 C 82 % 1017,6 hPa 0,0 mm 3,4 km/h (1 Bft) W-NW 283 0 min 0,000 mm 0,6 UV-I 93 W/m 11,9 C 6,4 km/h (2 Bft)
06.07.2016 08:56 14,9 C 14,9 C 82 % 1017,6 hPa 0,0 mm 4,5 km/h (1 Bft) W-NW 290 0 min 0,000 mm 0,5 UV-I 69 W/m 11,9 C 6,4 km/h (2 Bft)
06.07.2016 08:57 14,9 C 14,9 C 82 % 1017,6 hPa 0,0 mm 2,5 km/h (1 Bft) W-NW 290 0 min 0,000 mm 0,5 UV-I 74 W/m 11,9 C 3,2 km/h (1 Bft)
06.07.2016 08:58 14,9 C 14,9 C 83 % 1017,6 hPa 0,0 mm 4,3 km/h (1 Bft) W-NW 287 0 min 0,000 mm 0,6 UV-I 86 W/m 12,0 C 6,4 km/h (2 Bft)
06.07.2016 08:59 14,9 C 14,9 C 83 % 1017,6 hPa 0,0 mm 3,1 km/h (1 Bft) W-NW 286 0 min 0,000 mm 0,6 UV-I 90 W/m 12,0 C 4,8 km/h (1 Bft)
06.07.2016 09:00 14,9 C 14,9 C 83 % 1017,6 hPa 0,0 mm 3,0 km/h (1 Bft) W-NW 287 0 min 0,051 mm 0,6 UV-I 79 W/m 12,0 C 4,8 km/h (1 Bft)
06.07.2016 09:01 14,9 C 14,9 C 82 % 1017,6 hPa 0,0 mm 3,8 km/h (1 Bft) W 273 0 min 0,000 mm 0,5 UV-I 60 W/m 11,9 C 6,4 km/h (2 Bft)
06.07.2016 09:02 14,9 C 14,9 C 82 % 1017,6 hPa 0,0 mm 6,1 km/h (2 Bft) W-NW 288 0 min 0,000 mm 0,0 UV-I 56 W/m 11,9 C 9,7 km/h (2 Bft)
06.07.2016 09:03 14,9 C 14,9 C 82 % 1017,6 hPa 0,0 mm 4,5 km/h (1 Bft) W-SW 253 0 min 0,000 mm 0,0 UV-I 51 W/m 11,9 C 6,4 km/h (2 Bft)
06.07.2016 09:04 14,9 C 14,9 C 83 % 1017,6 hPa 0,0 mm 5,3 km/h (1 Bft) W 264 0 min 0,000 mm 0,0 UV-I 44 W/m 12,0 C 9,7 km/h (2 Bft)
06.07.2016 09:05 14,9 C 14,9 C 83 % 1017,6 hPa 0,0 mm 4,9 km/h (1 Bft) W 264 0 min 0,000 mm 0,0 UV-I 44 W/m 12,0 C 8,0 km/h (2 Bft)
06.07.2016 09:06 14,9 C 14,9 C 82 % 1017,6 hPa 0,0 mm 4,8 km/h (1 Bft) W 273 0 min 0,000 mm 0,0 UV-I 49 W/m 11,9 C 6,4 km/h (2 Bft)
06.07.2016 09:07 14,9 C 14,9 C 82 % 1017,6 hPa 0,0 mm 3,6 km/h (1 Bft) W 273 0 min 0,000 mm 0,6 UV-I 72 W/m 11,9 C 4,8 km/h (1 Bft)
06.07.2016 09:08 14,9 C 14,9 C 82 % 1017,6 hPa 0,0 mm 3,2 km/h (1 Bft) W 273 0 min 0,000 mm 0,8 UV-I 86 W/m 11,9 C 4,8 km/h (1 Bft)
06.07.2016 09:09 14,9 C 14,9 C 82 % 1017,6 hPa 0,0 mm 2,9 km/h (1 Bft) W-NW 291 0 min 0,000 mm 0,8 UV-I 91 W/m 11,9 C 4,8 km/h (1 Bft)
06.07.2016 09:10 14,9 C 14,9 C 82 % 1017,6 hPa 0,0 mm 1,2 km/h (1 Bft) W-NW 291 0 min 0,000 mm 0,8 UV-I 91 W/m 11,9 C 3,2 km/h (1 Bft)
06.07.2016 09:11 14,9 C 14,9 C 83 % 1017,6 hPa 0,0 mm 2,1 km/h (1 Bft) W-NW 291 0 min 0,000 mm 0,9 UV-I 105 W/m 12,0 C 3,2 km/h (1 Bft)
06.07.2016 09:12 14,9 C 14,9 C 83 % 1017,6 hPa 0,0 mm 2,1 km/h (1 Bft) W-NW 291 0 min 0,000 mm 1,0 UV-I 128 W/m 12,0 C 3,2 km/h (1 Bft)
06.07.2016 09:13 15,0 C 15,0 C 83 % 1017,6 hPa 0,0 mm 1,6 km/h (1 Bft) W-NW 291 0 min 0,000 mm 1,1 UV-I 160 W/m 12,1 C 3,2 km/h (1 Bft)
06.07.2016 09:14 15,0 C 15,0 C 82 % 1017,6 hPa 0,0 mm 3,6 km/h (1 Bft) W-NW 298 0 min 0,000 mm 1,3 UV-I 169 W/m 12,0 C 6,4 km/h (2 Bft)
06.07.2016 09:15 15,1 C 15,1 C 83 % 1017,6 hPa 0,0 mm 3,1 km/h (1 Bft) NW 313 0 min 0,000 mm 1,4 UV-I 178 W/m 12,2 C 4,8 km/h (1 Bft)
06.07.2016 09:16 15,1 C 15,1 C 83 % 1017,6 hPa 0,0 mm 3,0 km/h (1 Bft) NW 319 0 min 0,000 mm 1,3 UV-I 171 W/m 12,2 C 4,8 km/h (1 Bft)
06.07.2016 09:17 15,2 C 15,2 C 82 % 1017,7 hPa 0,0 mm 3,0 km/h (1 Bft) NW 307 0 min 0,000 mm 1,3 UV-I 151 W/m 12,1 C 4,8 km/h (1 Bft)
06.07.2016 09:18 15,2 C 15,2 C 82 % 1017,6 hPa 0,0 mm 3,5 km/h (1 Bft) W-NW 302 0 min 0,000 mm 1,2 UV-I 146 W/m 12,1 C 4,8 km/h (1 Bft)
06.07.2016 09:19 15,2 C 15,2 C 82 % 1017,7 hPa 0,0 mm 4,7 km/h (1 Bft) NW 310 0 min 0,000 mm 1,2 UV-I 155 W/m 12,1 C 6,4 km/h (2 Bft)
06.07.2016 09:20 15,3 C 15,3 C 82 % 1017,6 hPa 0,0 mm 5,0 km/h (1 Bft) W 281 0 min 0,000 mm 1,0 UV-I 148 W/m 12,2 C 6,4 km/h (2 Bft)
06.07.2016 09:21 15,3 C 15,3 C 82 % 1017,6 hPa 0,0 mm 4,8 km/h (1 Bft) W-NW 299 0 min 0,000 mm 0,9 UV-I 134 W/m 12,2 C 6,4 km/h (2 Bft)
06.07.2016 09:22 15,2 C 15,3 C 82 % 1017,6 hPa 0,0 mm 3,6 km/h (1 Bft) W 263 0 min 0,000 mm 0,7 UV-I 113 W/m 12,1 C 4,8 km/h (1 Bft)
06.07.2016 09:23 15,2 C 15,2 C 81 % 1017,7 hPa 0,0 mm 4,0 km/h (1 Bft) N-NW 346 0 min 0,000 mm 0,5 UV-I 86 W/m 12,0 C 4,8 km/h (1 Bft)
06.07.2016 09:24 15,2 C 15,2 C 82 % 1017,7 hPa 0,0 mm 4,3 km/h (1 Bft) N-NW 327 0 min 0,000 mm 0,0 UV-I 86 W/m 12,1 C 6,4 km/h (2 Bft)
06.07.2016 09:25 15,2 C 15,2 C 82 % 1017,7 hPa 0,0 mm 4,8 km/h (1 Bft) NW 309 0 min 0,000 mm 0,0 UV-I 37 W/m 12,1 C 9,7 km/h (2 Bft)
06.07.2016 09:26 15,2 C 15,2 C 82 % 1017,7 hPa 0,0 mm 6,3 km/h (2 Bft) NW 319 0 min 0,000 mm 0,0 UV-I 39 W/m 12,1 C 8,0 km/h (2 Bft)
06.07.2016 09:27 15,1 C 15,2 C 81 % 1017,7 hPa 0,0 mm 6,9 km/h (2 Bft) N-NW 335 0 min 0,000 mm 0,0 UV-I 40 W/m 11,9 C 14,5 km/h (3 Bft)
06.07.2016 09:28 15,1 C 15,1 C 82 % 1017,7 hPa 0,0 mm 4,3 km/h (1 Bft) W-NW 303 0 min 0,000 mm 0,0 UV-I 44 W/m 12,0 C 6,4 km/h (2 Bft)
06.07.2016 09:29 15,1 C 15,1 C 81 % 1017,7 hPa 0,0 mm 4,2 km/h (1 Bft) W-NW 296 0 min 0,000 mm 0,0 UV-I 44 W/m 11,9 C 4,8 km/h (1 Bft)
06.07.2016 09:30 15,1 C 15,1 C 82 % 1017,7 hPa 0,0 mm 5,4 km/h (1 Bft) W-NW 294 0 min 0,000 mm 0,0 UV-I 44 W/m 12,0 C 8,0 km/h (2 Bft)
06.07.2016 09:31 15,0 C 15,1 C 82 % 1017,7 hPa 0,0 mm 6,6 km/h (2 Bft) W-NW 298 0 min 0,000 mm 0,0 UV-I 63 W/m 12,0 C 11,3 km/h (2 Bft)
06.07.2016 09:32 15,0 C 15,0 C 82 % 1017,7 hPa 0,0 mm 7,2 km/h (2 Bft) W-NW 293 0 min 0,000 mm 0,8 UV-I 91 W/m 12,0 C 11,3 km/h (2 Bft)
06.07.2016 09:33 14,9 C 15,0 C 82 % 1017,7 hPa 0,0 mm 5,4 km/h (1 Bft) N-NW 329 0 min 0,000 mm 1,0 UV-I 121 W/m 11,9 C 9,7 km/h (2 Bft)
06.07.2016 09:34 14,9 C 15,0 C 81 % 1017,7 hPa 0,0 mm 6,0 km/h (2 Bft) NW 319 0 min 0,000 mm 1,0 UV-I 134 W/m 11,7 C 9,7 km/h (2 Bft)
06.07.2016 09:35 14,9 C 14,9 C 82 % 1017,7 hPa 0,0 mm 5,3 km/h (1 Bft) W 277 0 min 0,000 mm 1,0 UV-I 135 W/m 11,9 C 11,3 km/h (2 Bft)
06.07.2016 09:36 14,9 C 14,9 C 80 % 1017,7 hPa 0,0 mm 9,8 km/h (2 Bft) W-NW 294 0 min 0,000 mm 0,8 UV-I 84 W/m 11,5 C 16,1 km/h (3 Bft)
06.07.2016 09:37 14,9 C 14,9 C 79 % 1017,7 hPa 0,0 mm 11,3 km/h (2 Bft) W-NW 302 0 min 0,000 mm 0,6 UV-I 63 W/m 11,3 C 16,1 km/h (3 Bft)
06.07.2016 09:38 14,9 C 14,9 C 80 % 1017,7 hPa 0,0 mm 9,8 km/h (2 Bft) NW 304 0 min 0,000 mm 0,5 UV-I 56 W/m 11,5 C 12,9 km/h (3 Bft)
06.07.2016 09:39 14,9 C 14,9 C 80 % 1017,7 hPa 0,0 mm 7,4 km/h (2 Bft) NW 304 0 min 0,000 mm 0,6 UV-I 62 W/m 11,5 C 12,9 km/h (3 Bft)
06.07.2016 09:40 14,9 C 14,9 C 80 % 1017,7 hPa 0,0 mm 9,2 km/h (2 Bft) NW 321 0 min 0,000 mm 0,5 UV-I 62 W/m 11,5 C 12,9 km/h (3 Bft)
06.07.2016 09:41 14,8 C 14,9 C 80 % 1017,7 hPa 0,0 mm 8,8 km/h (2 Bft) W 281 0 min 0,000 mm 0,5 UV-I 60 W/m 11,4 C 12,9 km/h (3 Bft)
06.07.2016 09:42 14,8 C 14,8 C 80 % 1017,8 hPa 0,0 mm 7,2 km/h (2 Bft) NW 312 0 min 0,000 mm 0,5 UV-I 70 W/m 11,4 C 14,5 km/h (3 Bft)
06.07.2016 09:43 14,8 C 14,8 C 80 % 1017,8 hPa 0,0 mm 5,4 km/h (1 Bft) NW 304 0 min 0,000 mm 0,8 UV-I 90 W/m 11,4 C 9,7 km/h (2 Bft)
06.07.2016 09:44 14,8 C 14,8 C 81 % 1017,8 hPa 0,0 mm 10,8 km/h (2 Bft) W 278 0 min 0,000 mm 1,1 UV-I 128 W/m 11,6 C 16,1 km/h (3 Bft)
06.07.2016 09:45 14,8 C 14,8 C 80 % 1017,9 hPa 0,0 mm 6,9 km/h (2 Bft) W-NW 284 0 min 0,000 mm 1,1 UV-I 167 W/m 11,4 C 12,9 km/h (3 Bft)
06.07.2016 09:46 14,8 C 14,8 C 81 % 1017,8 hPa 0,0 mm 7,2 km/h (2 Bft) W 276 0 min 0,000 mm 1,2 UV-I 171 W/m 11,6 C 11,3 km/h (2 Bft)
06.07.2016 09:47 14,8 C 14,8 C 81 % 1017,8 hPa 0,0 mm 7,0 km/h (2 Bft) W-NW 288 0 min 0,000 mm 1,1 UV-I 151 W/m 11,6 C 11,3 km/h (2 Bft)
06.07.2016 09:48 14,9 C 14,9 C 80 % 1017,8 hPa 0,0 mm 3,2 km/h (1 Bft) W 279 0 min 0,000 mm 1,0 UV-I 132 W/m 11,5 C 4,8 km/h (1 Bft)
06.07.2016 09:49 14,9 C 14,9 C 80 % 1017,9 hPa 0,0 mm 6,8 km/h (2 Bft) W 277 0 min 0,000 mm 1,0 UV-I 130 W/m 11,5 C 11,3 km/h (2 Bft)
06.07.2016 09:50 14,9 C 14,9 C 81 % 1017,9 hPa 0,0 mm 6,8 km/h (2 Bft) W-NW 284 0 min 0,000 mm 1,0 UV-I 134 W/m 11,7 C 11,3 km/h (2 Bft)
06.07.2016 09:51 14,9 C 14,9 C 81 % 1017,8 hPa 0,0 mm 3,5 km/h (1 Bft) W-NW 287 0 min 0,000 mm 1,1 UV-I 139 W/m 11,7 C 6,4 km/h (2 Bft)
06.07.2016 09:52 14,9 C 14,9 C 80 % 1017,9 hPa 0,0 mm 3,4 km/h (1 Bft) W 266 0 min 0,000 mm 1,1 UV-I 142 W/m 11,5 C 6,4 km/h (2 Bft)
06.07.2016 09:53 14,9 C 14,9 C 80 % 1017,9 hPa 0,0 mm 5,0 km/h (1 Bft) W-SW 245 0 min 0,000 mm 1,1 UV-I 151 W/m 11,5 C 6,4 km/h (2 Bft)
06.07.2016 09:54 14,9 C 14,9 C 80 % 1017,9 hPa 0,0 mm 7,1 km/h (2 Bft) W-NW 284 0 min 0,000 mm 1,2 UV-I 181 W/m 11,5 C 11,3 km/h (2 Bft)
06.07.2016 09:55 14,9 C 15,0 C 81 % 1017,8 hPa 0,0 mm 10,9 km/h (2 Bft) W-NW 298 0 min 0,000 mm 1,5 UV-I 200 W/m 11,7 C 12,9 km/h (3 Bft)
06.07.2016 09:56 15,0 C 15,0 C 80 % 1017,9 hPa 0,0 mm 8,0 km/h (2 Bft) W-NW 293 0 min 0,000 mm 1,7 UV-I 221 W/m 11,6 C 16,1 km/h (3 Bft)
06.07.2016 09:57 15,0 C 15,0 C 80 % 1017,8 hPa 0,0 mm 6,6 km/h (2 Bft) NW 319 0 min 0,000 mm 1,8 UV-I 239 W/m 11,6 C 11,3 km/h (2 Bft)
06.07.2016 09:58 15,1 C 15,1 C 81 % 1017,9 hPa 0,0 mm 6,5 km/h (2 Bft) NW 324 0 min 0,000 mm 2,0 UV-I 251 W/m 11,9 C 11,3 km/h (2 Bft)
06.07.2016 09:59 15,2 C 15,2 C 81 % 1017,9 hPa 0,0 mm 7,8 km/h (2 Bft) NW 313 0 min 0,000 mm 2,0 UV-I 274 W/m 12,0 C 11,3 km/h (2 Bft)
06.07.2016 10:00 15,3 C 15,3 C 80 % 1017,8 hPa 0,0 mm 8,2 km/h (2 Bft) W 279 0 min 0,000 mm 2,1 UV-I 253 W/m 11,9 C 12,9 km/h (3 Bft)
06.07.2016 10:01 15,4 C 15,4 C 78 % 1017,8 hPa 0,0 mm 7,2 km/h (2 Bft) NW 306 0 min 0,076 mm 2,0 UV-I 241 W/m 11,6 C 9,7 km/h (2 Bft)
06.07.2016 10:02 15,5 C 15,5 C 78 % 1017,8 hPa 0,0 mm 8,3 km/h (2 Bft) W-NW 290 0 min 0,000 mm 1,8 UV-I 225 W/m 11,7 C 12,9 km/h (3 Bft)
06.07.2016 10:03 15,6 C 15,6 C 80 % 1017,9 hPa 0,0 mm 10,7 km/h (2 Bft) NW 311 0 min 0,000 mm 1,6 UV-I 209 W/m 12,2 C 12,9 km/h (3 Bft)
06.07.2016 10:04 15,6 C 15,6 C 79 % 1017,8 hPa 0,0 mm 8,0 km/h (2 Bft) W-NW 294 0 min 0,000 mm 1,7 UV-I 213 W/m 12,0 C 11,3 km/h (2 Bft)
06.07.2016 10:05 15,7 C 15,7 C 77 % 1017,9 hPa 0,0 mm 7,1 km/h (2 Bft) NW 318 0 min 0,000 mm 1,7 UV-I 214 W/m 11,7 C 12,9 km/h (3 Bft)
06.07.2016 10:06 15,6 C 15,7 C 75 % 1017,9 hPa 0,0 mm 5,5 km/h (1 Bft) W-NW 300 0 min 0,000 mm 1,6 UV-I 202 W/m 11,2 C 8,0 km/h (2 Bft)
06.07.2016 10:07 15,6 C 15,6 C 75 % 1017,9 hPa 0,0 mm 10,5 km/h (2 Bft) W 281 0 min 0,000 mm 1,6 UV-I 192 W/m 11,2 C 16,1 km/h (3 Bft)
06.07.2016 10:08 15,6 C 15,6 C 76 % 1017,9 hPa 0,0 mm 10,2 km/h (2 Bft) W-SW 256 0 min 0,000 mm 1,6 UV-I 199 W/m 11,4 C 12,9 km/h (3 Bft)
06.07.2016 10:09 15,4 C 15,6 C 74 % 1017,9 hPa 0,0 mm 10,7 km/h (2 Bft) N-NW 344 0 min 0,000 mm 1,8 UV-I 225 W/m 10,8 C 14,5 km/h (3 Bft)
06.07.2016 10:10 15,4 C 15,4 C 75 % 1017,9 hPa 0,0 mm 8,9 km/h (2 Bft) W 281 0 min 0,000 mm 2,1 UV-I 262 W/m 11,0 C 12,9 km/h (3 Bft)
06.07.2016 10:11 15,4 C 15,4 C 74 % 1017,9 hPa 0,0 mm 11,4 km/h (2 Bft) NW 304 0 min 0,000 mm 2,2 UV-I 287 W/m 10,8 C 14,5 km/h (3 Bft)
06.07.2016 10:12 15,4 C 15,4 C 74 % 1017,9 hPa 0,0 mm 8,7 km/h (2 Bft) W-SW 251 0 min 0,000 mm 2,3 UV-I 329 W/m 10,8 C 12,9 km/h (3 Bft)
06.07.2016 10:13 15,5 C 15,5 C 76 % 1017,9 hPa 0,0 mm 5,2 km/h (1 Bft) W 281 0 min 0,000 mm 2,6 UV-I 366 W/m 11,3 C 9,7 km/h (2 Bft)
06.07.2016 10:14 15,6 C 15,6 C 74 % 1017,9 hPa 0,0 mm 9,2 km/h (2 Bft) W-NW 290 0 min 0,000 mm 2,4 UV-I 334 W/m 11,0 C 19,3 km/h (3 Bft)
06.07.2016 10:15 15,6 C 15,6 C 75 % 1017,9 hPa 0,0 mm 10,6 km/h (2 Bft) NW 309 0 min 0,000 mm 2,4 UV-I 339 W/m 11,2 C 14,5 km/h (3 Bft)
06.07.2016 10:16 15,7 C 15,7 C 76 % 1017,9 hPa 0,0 mm 8,9 km/h (2 Bft) W 275 0 min 0,000 mm 2,3 UV-I 304 W/m 11,5 C 12,9 km/h (3 Bft)
06.07.2016 10:17 15,7 C 15,7 C 76 % 1017,9 hPa 0,0 mm 8,0 km/h (2 Bft) W-NW 282 0 min 0,000 mm 2,4 UV-I 353 W/m 11,5 C 12,9 km/h (3 Bft)
06.07.2016 10:18 15,8 C 15,8 C 76 % 1017,9 hPa 0,0 mm 8,2 km/h (2 Bft) W-NW 284 0 min 0,000 mm 2,6 UV-I 380 W/m 11,6 C 11,3 km/h (2 Bft)
06.07.2016 10:19 15,8 C 15,8 C 75 % 1017,8 hPa 0,0 mm 8,9 km/h (2 Bft) NW 312 0 min 0,000 mm 1,9 UV-I 380 W/m 11,4 C 12,9 km/h (3 Bft)
06.07.2016 10:20 15,8 C 15,8 C 77 % 1017,9 hPa 0,0 mm 12,3 km/h (3 Bft) W-NW 296 0 min 0,000 mm 1,7 UV-I 218 W/m 11,8 C 16,1 km/h (3 Bft)
06.07.2016 10:21 15,8 C 15,8 C 75 % 1017,9 hPa 0,0 mm 8,5 km/h (2 Bft) W 275 0 min 0,000 mm 1,7 UV-I 225 W/m 11,4 C 14,5 km/h (3 Bft)
06.07.2016 10:22 15,8 C 15,8 C 76 % 1017,9 hPa 0,0 mm 8,4 km/h (2 Bft) NW 309 0 min 0,000 mm 1,7 UV-I 234 W/m 11,6 C 12,9 km/h (3 Bft)
06.07.2016 10:23 15,8 C 15,8 C 76 % 1017,9 hPa 0,0 mm 7,8 km/h (2 Bft) N-NW 327 0 min 0,000 mm 1,6 UV-I 192 W/m 11,6 C 11,3 km/h (2 Bft)
06.07.2016 10:24 15,8 C 15,8 C 77 % 1017,8 hPa 0,0 mm 9,7 km/h (2 Bft) W-NW 292 0 min 0,000 mm 1,4 UV-I 174 W/m 11,8 C 14,5 km/h (3 Bft)
06.07.2016 10:25 15,7 C 15,8 C 76 % 1017,9 hPa 0,0 mm 6,0 km/h (2 Bft) W-NW 298 0 min 0,000 mm 1,4 UV-I 181 W/m 11,5 C 12,9 km/h (3 Bft)
06.07.2016 10:26 15,7 C 15,7 C 76 % 1017,9 hPa 0,0 mm 8,5 km/h (2 Bft) W-NW 292 0 min 0,000 mm 1,4 UV-I 188 W/m 11,5 C 12,9 km/h (3 Bft)
06.07.2016 10:27 15,7 C 15,7 C 75 % 1017,9 hPa 0,0 mm 6,8 km/h (2 Bft) NW 317 0 min 0,000 mm 1,3 UV-I 172 W/m 11,3 C 11,3 km/h (2 Bft)
06.07.2016 10:28 15,6 C 15,7 C 75 % 1017,9 hPa 0,0 mm 6,9 km/h (2 Bft) NW 315 0 min 0,000 mm 1,2 UV-I 148 W/m 11,2 C 9,7 km/h (2 Bft)
06.07.2016 10:29 15,5 C 15,6 C 76 % 1017,9 hPa 0,0 mm 7,8 km/h (2 Bft) NW 306 0 min 0,000 mm 1,0 UV-I 120 W/m 11,3 C 14,5 km/h (3 Bft)
06.07.2016 10:30 15,4 C 15,5 C 76 % 1017,9 hPa 0,0 mm 9,5 km/h (2 Bft) W-NW 291 0 min 0,000 mm 1,2 UV-I 128 W/m 11,2 C 12,9 km/h (3 Bft)
06.07.2016 10:31 15,4 C 15,5 C 76 % 1017,9 hPa 0,0 mm 6,7 km/h (2 Bft) N-NW 338 0 min 0,000 mm 1,4 UV-I 149 W/m 11,2 C 8,0 km/h (2 Bft)
06.07.2016 10:32 15,4 C 15,4 C 76 % 1017,9 hPa 0,0 mm 6,2 km/h (2 Bft) W-NW 290 0 min 0,000 mm 1,5 UV-I 165 W/m 11,2 C 9,7 km/h (2 Bft)
06.07.2016 10:33 15,4 C 15,4 C 76 % 1018,0 hPa 0,0 mm 5,1 km/h (1 Bft) W 265 0 min 0,000 mm 1,5 UV-I 174 W/m 11,2 C 9,7 km/h (2 Bft)
06.07.2016 10:34 15,4 C 15,4 C 76 % 1017,9 hPa 0,0 mm 10,1 km/h (2 Bft) NW 304 0 min 0,000 mm 1,5 UV-I 181 W/m 11,2 C 12,9 km/h (3 Bft)
06.07.2016 10:35 15,4 C 15,4 C 76 % 1018,0 hPa 0,0 mm 10,6 km/h (2 Bft) W-NW 301 0 min 0,000 mm 1,5 UV-I 176 W/m 11,2 C 14,5 km/h (3 Bft)
06.07.2016 10:36 15,3 C 15,4 C 77 % 1018,0 hPa 0,0 mm 7,9 km/h (2 Bft) W 279 0 min 0,000 mm 1,5 UV-I 178 W/m 11,3 C 12,9 km/h (3 Bft)
06.07.2016 10:37 15,3 C 15,3 C 77 % 1018,0 hPa 0,0 mm 5,8 km/h (2 Bft) W 265 0 min 0,000 mm 1,5 UV-I 178 W/m 11,3 C 11,3 km/h (2 Bft)
06.07.2016 10:38 15,3 C 15,3 C 76 % 1018,0 hPa 0,0 mm 6,8 km/h (2 Bft) W 272 0 min 0,000 mm 1,6 UV-I 195 W/m 11,1 C 9,7 km/h (2 Bft)
06.07.2016 10:39 15,3 C 15,3 C 77 % 1018,0 hPa 0,0 mm 4,6 km/h (1 Bft) W-SW 250 0 min 0,000 mm 1,6 UV-I 214 W/m 11,3 C 9,7 km/h (2 Bft)
06.07.2016 10:40 15,3 C 15,3 C 77 % 1017,9 hPa 0,0 mm 5,4 km/h (1 Bft) W-SW 240 0 min 0,000 mm 1,5 UV-I 199 W/m 11,3 C 11,3 km/h (2 Bft)
06.07.2016 10:41 15,3 C 15,3 C 76 % 1018,0 hPa 0,0 mm 8,2 km/h (2 Bft) W 273 0 min 0,000 mm 1,4 UV-I 179 W/m 11,1 C 11,3 km/h (2 Bft)
06.07.2016 10:42 15,3 C 15,4 C 77 % 1017,9 hPa 0,0 mm 5,9 km/h (2 Bft) W-NW 294 0 min 0,000 mm 1,4 UV-I 176 W/m 11,3 C 12,9 km/h (3 Bft)
06.07.2016 10:43 15,4 C 15,4 C 78 % 1017,9 hPa 0,0 mm 4,2 km/h (1 Bft) W-NW 290 0 min 0,000 mm 1,5 UV-I 181 W/m 11,6 C 8,0 km/h (2 Bft)
06.07.2016 10:44 15,4 C 15,4 C 77 % 1017,9 hPa 0,0 mm 3,9 km/h (1 Bft) W-NW 287 0 min 0,000 mm 1,6 UV-I 193 W/m 11,4 C 6,4 km/h (2 Bft)
06.07.2016 10:45 15,4 C 15,4 C 79 % 1017,9 hPa 0,0 mm 3,6 km/h (1 Bft) W-NW 293 0 min 0,000 mm 1,6 UV-I 192 W/m 11,8 C 4,8 km/h (1 Bft)
06.07.2016 10:46 15,4 C 15,4 C 78 % 1017,9 hPa 0,0 mm 2,7 km/h (1 Bft) W 260 0 min 0,000 mm 1,6 UV-I 171 W/m 11,6 C 6,4 km/h (2 Bft)
06.07.2016 10:47 15,6 C 15,6 C 77 % 1017,9 hPa 0,0 mm 7,4 km/h (2 Bft) W 269 0 min 0,000 mm 1,7 UV-I 171 W/m 11,6 C 11,3 km/h (2 Bft)
06.07.2016 10:48 15,6 C 15,6 C 78 % 1017,9 hPa 0,0 mm 3,4 km/h (1 Bft) W 264 0 min 0,000 mm 1,7 UV-I 183 W/m 11,8 C 6,4 km/h (2 Bft)
06.07.2016 10:49 15,6 C 15,6 C 78 % 1018,0 hPa 0,0 mm 7,2 km/h (2 Bft) W-NW 285 0 min 0,000 mm 1,7 UV-I 192 W/m 11,8 C 11,3 km/h (2 Bft)
06.07.2016 10:50 15,6 C 15,6 C 77 % 1017,9 hPa 0,0 mm 7,0 km/h (2 Bft) W 281 0 min 0,000 mm 1,6 UV-I 181 W/m 11,6 C 11,3 km/h (2 Bft)
06.07.2016 10:51 15,5 C 15,6 C 78 % 1018,0 hPa 0,0 mm 5,0 km/h (1 Bft) W-SW 244 0 min 0,000 mm 1,5 UV-I 171 W/m 11,7 C 9,7 km/h (2 Bft)
06.07.2016 10:52 15,6 C 15,6 C 76 % 1018,0 hPa 0,0 mm 6,3 km/h (2 Bft) W 281 0 min 0,000 mm 1,6 UV-I 179 W/m 11,4 C 11,3 km/h (2 Bft)
06.07.2016 10:53 15,6 C 15,6 C 77 % 1018,0 hPa 0,0 mm 5,6 km/h (1 Bft) W-NW 286 0 min 0,000 mm 1,8 UV-I 232 W/m 11,6 C 9,7 km/h (2 Bft)
06.07.2016 10:54 15,6 C 15,6 C 76 % 1017,9 hPa 0,0 mm 6,2 km/h (2 Bft) W 279 0 min 0,000 mm 2,1 UV-I 227 W/m 11,4 C 12,9 km/h (3 Bft)
06.07.2016 10:55 15,6 C 15,6 C 75 % 1017,9 hPa 0,0 mm 5,1 km/h (1 Bft) W-NW 286 0 min 0,000 mm 2,3 UV-I 239 W/m 11,2 C 8,0 km/h (2 Bft)
06.07.2016 10:56 15,6 C 15,6 C 77 % 1017,9 hPa 0,0 mm 4,7 km/h (1 Bft) NW 306 0 min 0,000 mm 2,6 UV-I 274 W/m 11,6 C 6,4 km/h (2 Bft)
06.07.2016 10:57 15,6 C 15,6 C 77 % 1017,9 hPa 0,0 mm 4,0 km/h (1 Bft) W-NW 283 0 min 0,000 mm 3,0 UV-I 325 W/m 11,6 C 6,4 km/h (2 Bft)
06.07.2016 10:58 15,7 C 15,7 C 78 % 1017,9 hPa 0,0 mm 6,7 km/h (2 Bft) NW 304 0 min 0,000 mm 3,1 UV-I 380 W/m 11,9 C 11,3 km/h (2 Bft)
06.07.2016 10:59 15,8 C 15,8 C 78 % 1017,9 hPa 0,0 mm 5,1 km/h (1 Bft) W 277 0 min 0,000 mm 3,0 UV-I 318 W/m 12,0 C 8,0 km/h (2 Bft)
06.07.2016 11:00 16,0 C 16,0 C 77 % 1017,9 hPa 0,0 mm 3,0 km/h (1 Bft) W-NW 293 0 min 0,000 mm 2,5 UV-I 302 W/m 12,0 C 4,8 km/h (1 Bft)
06.07.2016 11:01 16,1 C 16,1 C 78 % 1017,9 hPa 0,0 mm 2,9 km/h (1 Bft) W 260 0 min 0,152 mm 2,5 UV-I 304 W/m 12,3 C 6,4 km/h (2 Bft)
06.07.2016 11:02 16,1 C 16,2 C 77 % 1018,0 hPa 0,0 mm 5,4 km/h (1 Bft) W-SW 242 0 min 0,001 mm 2,7 UV-I 315 W/m 12,1 C 9,7 km/h (2 Bft)
06.07.2016 11:03 16,1 C 16,2 C 75 % 1017,9 hPa 0,0 mm 3,1 km/h (1 Bft) W-NW 299 0 min 0,000 mm 2,7 UV-I 329 W/m 11,7 C 6,4 km/h (2 Bft)
06.07.2016 11:04 16,1 C 16,1 C 76 % 1017,9 hPa 0,0 mm 6,0 km/h (2 Bft) W 271 0 min 0,000 mm 2,8 UV-I 360 W/m 11,9 C 9,7 km/h (2 Bft)
06.07.2016 11:05 16,2 C 16,2 C 77 % 1018,0 hPa 0,0 mm 10,0 km/h (2 Bft) W 264 0 min 0,000 mm 3,3 UV-I 360 W/m 12,2 C 12,9 km/h (3 Bft)
06.07.2016 11:06 16,3 C 16,3 C 76 % 1017,9 hPa 0,0 mm 5,0 km/h (1 Bft) W 259 0 min 0,000 mm 3,6 UV-I 360 W/m 12,1 C 9,7 km/h (2 Bft)
06.07.2016 11:07 16,2 C 16,3 C 72 % 1018,0 hPa 0,0 mm 6,1 km/h (2 Bft) W 265 0 min 0,000 mm 3,6 UV-I 432 W/m 11,1 C 11,3 km/h (2 Bft)
06.07.2016 11:08 16,3 C 16,3 C 74 % 1018,0 hPa 0,0 mm 8,5 km/h (2 Bft) NW 304 0 min 0,000 mm 2,9 UV-I 364 W/m 11,7 C 12,9 km/h (3 Bft)
06.07.2016 11:09 16,3 C 16,3 C 73 % 1018,0 hPa 0,0 mm 4,5 km/h (1 Bft) W-SW 237 0 min 0,000 mm 2,3 UV-I 274 W/m 11,4 C 6,4 km/h (2 Bft)
06.07.2016 11:10 16,3 C 16,3 C 76 % 1018,0 hPa 0,0 mm 5,1 km/h (1 Bft) NW 311 0 min 0,000 mm 2,0 UV-I 213 W/m 12,1 C 8,0 km/h (2 Bft)
06.07.2016 11:11 16,3 C 16,3 C 76 % 1018,0 hPa 0,0 mm 4,4 km/h (1 Bft) W 281 0 min 0,000 mm 1,8 UV-I 204 W/m 12,1 C 9,7 km/h (2 Bft)
06.07.2016 11:12 16,2 C 16,3 C 74 % 1018,1 hPa 0,0 mm 5,1 km/h (1 Bft) W-NW 285 0 min 0,000 mm 1,7 UV-I 200 W/m 11,6 C 11,3 km/h (2 Bft)
06.07.2016 11:13 16,2 C 16,2 C 73 % 1018,0 hPa 0,0 mm 3,4 km/h (1 Bft) NW 304 0 min 0,000 mm 1,5 UV-I 185 W/m 11,4 C 4,8 km/h (1 Bft)
06.07.2016 11:14 16,1 C 16,2 C 74 % 1018,1 hPa 0,0 mm 4,8 km/h (1 Bft) W 280 0 min 0,000 mm 1,2 UV-I 153 W/m 11,5 C 11,3 km/h (2 Bft)
06.07.2016 11:15 16,1 C 16,1 C 74 % 1018,1 hPa 0,0 mm 5,3 km/h (1 Bft) W-NW 284 0 min 0,000 mm 1,1 UV-I 132 W/m 11,5 C 8,0 km/h (2 Bft)
06.07.2016 11:16 16,1 C 16,1 C 74 % 1018,1 hPa 0,0 mm 7,1 km/h (2 Bft) W-NW 282 0 min 0,000 mm 1,0 UV-I 128 W/m 11,5 C 11,3 km/h (2 Bft)
06.07.2016 11:17 16,0 C 16,1 C 74 % 1018,1 hPa 0,0 mm 4,9 km/h (1 Bft) W 277 0 min 0,000 mm 1,3 UV-I 149 W/m 11,4 C 6,4 km/h (2 Bft)
06.07.2016 11:18 16,0 C 16,1 C 75 % 1018,1 hPa 0,0 mm 5,6 km/h (1 Bft) NW 313 0 min 0,000 mm 1,6 UV-I 179 W/m 11,6 C 8,0 km/h (2 Bft)
06.07.2016 11:19 15,9 C 16,0 C 74 % 1018,1 hPa 0,0 mm 3,8 km/h (1 Bft) NW 323 0 min 0,000 mm 1,8 UV-I 200 W/m 11,3 C 8,0 km/h (2 Bft)
06.07.2016 11:20 15,9 C 15,9 C 75 % 1018,1 hPa 0,0 mm 3,4 km/h (1 Bft) W-NW 303 0 min 0,000 mm 1,8 UV-I 209 W/m 11,5 C 4,8 km/h (1 Bft)
06.07.2016 11:21 15,9 C 15,9 C 76 % 1018,1 hPa 0,0 mm 4,2 km/h (1 Bft) W 268 0 min 0,000 mm 1,7 UV-I 206 W/m 11,7 C 6,4 km/h (2 Bft)
06.07.2016 11:22 15,9 C 16,0 C 77 % 1018,0 hPa 0,0 mm 6,5 km/h (2 Bft) W-SW 252 0 min 0,000 mm 1,6 UV-I 181 W/m 11,9 C 9,7 km/h (2 Bft)
06.07.2016 11:23 16,0 C 16,1 C 77 % 1018,1 hPa 0,0 mm 11,2 km/h (2 Bft) W 269 0 min 0,000 mm 1,5 UV-I 181 W/m 12,0 C 14,5 km/h (3 Bft)
06.07.2016 11:24 16,0 C 16,0 C 75 % 1018,2 hPa 0,0 mm 7,3 km/h (2 Bft) W-NW 290 0 min 0,000 mm 1,7 UV-I 193 W/m 11,6 C 11,3 km/h (2 Bft)
06.07.2016 11:25 15,9 C 16,0 C 74 % 1018,2 hPa 0,0 mm 6,8 km/h (2 Bft) W-NW 296 0 min 0,000 mm 2,0 UV-I 221 W/m 11,3 C 11,3 km/h (2 Bft)
06.07.2016 11:26 15,9 C 15,9 C 75 % 1018,2 hPa 0,0 mm 5,2 km/h (1 Bft) W-NW 292 0 min 0,000 mm 2,3 UV-I 251 W/m 11,5 C 6,4 km/h (2 Bft)
06.07.2016 11:27 15,9 C 15,9 C 77 % 1018,2 hPa 0,0 mm 4,0 km/h (1 Bft) W 263 0 min 0,000 mm 2,5 UV-I 272 W/m 11,9 C 6,4 km/h (2 Bft)
06.07.2016 11:28 16,0 C 16,0 C 75 % 1018,2 hPa 0,0 mm 7,4 km/h (2 Bft) W 268 0 min 0,000 mm 2,5 UV-I 295 W/m 11,6 C 11,3 km/h (2 Bft)
06.07.2016 11:29 16,0 C 16,1 C 76 % 1018,2 hPa 0,0 mm 4,6 km/h (1 Bft) W 268 0 min 0,000 mm 2,7 UV-I 309 W/m 11,8 C 6,4 km/h (2 Bft)
06.07.2016 11:30 16,1 C 16,1 C 75 % 1018,2 hPa 0,0 mm 5,7 km/h (1 Bft) W 273 0 min 0,000 mm 2,9 UV-I 323 W/m 11,7 C 6,4 km/h (2 Bft)
06.07.2016 11:31 16,2 C 16,2 C 76 % 1018,2 hPa 0,0 mm 6,4 km/h (2 Bft) W-NW 282 0 min 0,000 mm 2,9 UV-I 343 W/m 12,0 C 9,7 km/h (2 Bft)
06.07.2016 11:32 16,3 C 16,3 C 76 % 1018,2 hPa 0,0 mm 5,4 km/h (1 Bft) W-NW 294 0 min 0,000 mm 2,8 UV-I 336 W/m 12,1 C 9,7 km/h (2 Bft)
06.07.2016 11:33 16,3 C 16,3 C 74 % 1018,2 hPa 0,0 mm 7,0 km/h (2 Bft) W-NW 292 0 min 0,000 mm 2,7 UV-I 302 W/m 11,7 C 8,0 km/h (2 Bft)
06.07.2016 11:34 16,4 C 16,4 C 76 % 1018,2 hPa 0,0 mm 6,6 km/h (2 Bft) W-SW 252 0 min 0,000 mm 2,7 UV-I 311 W/m 12,2 C 9,7 km/h (2 Bft)
06.07.2016 11:35 16,5 C 16,5 C 75 % 1018,2 hPa 0,0 mm 5,9 km/h (2 Bft) NW 306 0 min 0,000 mm 2,7 UV-I 302 W/m 12,1 C 9,7 km/h (2 Bft)
06.07.2016 11:36 16,5 C 16,6 C 73 % 1018,2 hPa 0,0 mm 5,4 km/h (1 Bft) W 281 0 min 0,000 mm 2,7 UV-I 290 W/m 11,6 C 6,4 km/h (2 Bft)
06.07.2016 11:37 16,5 C 16,6 C 73 % 1018,2 hPa 0,0 mm 6,9 km/h (2 Bft) W-NW 288 0 min 0,000 mm 2,8 UV-I 311 W/m 11,6 C 11,3 km/h (2 Bft)
06.07.2016 11:38 16,6 C 16,6 C 74 % 1018,2 hPa 0,0 mm 5,7 km/h (1 Bft) W 281 0 min 0,000 mm 2,9 UV-I 327 W/m 11,9 C 9,7 km/h (2 Bft)
06.07.2016 11:39 16,6 C 16,6 C 74 % 1018,2 hPa 0,0 mm 7,5 km/h (2 Bft) W 263 0 min 0,000 mm 2,6 UV-I 290 W/m 11,9 C 11,3 km/h (2 Bft)
06.07.2016 11:40 16,6 C 16,6 C 73 % 1018,3 hPa 0,0 mm 8,6 km/h (2 Bft) W-SW 241 0 min 0,000 mm 2,5 UV-I 279 W/m 11,7 C 11,3 km/h (2 Bft)
06.07.2016 11:41 16,6 C 16,6 C 73 % 1018,2 hPa 0,0 mm 4,6 km/h (1 Bft) W 271 0 min 0,000 mm 2,2 UV-I 262 W/m 11,7 C 6,4 km/h (2 Bft)
06.07.2016 11:42 16,5 C 16,6 C 73 % 1018,3 hPa 0,0 mm 2,3 km/h (1 Bft) W 271 0 min 0,000 mm 1,8 UV-I 225 W/m 11,6 C 9,7 km/h (2 Bft)
06.07.2016 11:43 16,4 C 16,5 C 74 % 1018,3 hPa 0,0 mm 4,1 km/h (1 Bft) W-SW 248 0 min 0,000 mm 1,6 UV-I 188 W/m 11,8 C 6,4 km/h (2 Bft)
06.07.2016 11:44 16,4 C 16,4 C 75 % 1018,3 hPa 0,0 mm 5,5 km/h (1 Bft) W 265 0 min 0,000 mm 1,5 UV-I 178 W/m 12,0 C 9,7 km/h (2 Bft)
06.07.2016 11:45 16,4 C 16,4 C 74 % 1018,3 hPa 0,0 mm 5,3 km/h (1 Bft) W 264 0 min 0,000 mm 1,5 UV-I 186 W/m 11,8 C 9,7 km/h (2 Bft)
06.07.2016 11:46 16,4 C 16,4 C 75 % 1018,2 hPa 0,0 mm 3,7 km/h (1 Bft) W 260 0 min 0,000 mm 1,7 UV-I 193 W/m 12,0 C 6,4 km/h (2 Bft)
06.07.2016 11:47 16,4 C 16,4 C 73 % 1018,3 hPa 0,0 mm 4,4 km/h (1 Bft) W 278 0 min 0,000 mm 1,6 UV-I 186 W/m 11,5 C 6,4 km/h (2 Bft)
06.07.2016 11:48 16,4 C 16,4 C 74 % 1018,2 hPa 0,0 mm 3,1 km/h (1 Bft) NW 321 0 min 0,000 mm 1,6 UV-I 179 W/m 11,8 C 4,8 km/h (1 Bft)
06.07.2016 11:49 16,4 C 16,4 C 74 % 1018,2 hPa 0,0 mm 2,2 km/h (1 Bft) W-NW 287 0 min 0,000 mm 1,5 UV-I 178 W/m 11,8 C 4,8 km/h (1 Bft)
06.07.2016 11:50 16,3 C 16,4 C 76 % 1018,3 hPa 0,0 mm 9,0 km/h (2 Bft) W 265 0 min 0,000 mm 1,5 UV-I 176 W/m 12,1 C 12,9 km/h (3 Bft)
06.07.2016 11:51 16,3 C 16,4 C 73 % 1018,3 hPa 0,0 mm 5,0 km/h (1 Bft) W-NW 288 0 min 0,000 mm 1,4 UV-I 160 W/m 11,4 C 11,3 km/h (2 Bft)
06.07.2016 11:52 16,3 C 16,3 C 73 % 1018,3 hPa 0,0 mm 7,3 km/h (2 Bft) W-SW 257 0 min 0,000 mm 1,5 UV-I 174 W/m 11,4 C 11,3 km/h (2 Bft)
06.07.2016 11:53 16,3 C 16,3 C 74 % 1018,3 hPa 0,0 mm 8,2 km/h (2 Bft) W-SW 246 0 min 0,000 mm 1,7 UV-I 199 W/m 11,7 C 14,5 km/h (3 Bft)
06.07.2016 11:54 16,3 C 16,3 C 73 % 1018,4 hPa 0,0 mm 9,1 km/h (2 Bft) W 265 0 min 0,000 mm 2,0 UV-I 230 W/m 11,4 C 12,9 km/h (3 Bft)
06.07.2016 11:55 16,3 C 16,3 C 73 % 1018,3 hPa 0,0 mm 9,0 km/h (2 Bft) W 259 0 min 0,000 mm 2,5 UV-I 290 W/m 11,4 C 12,9 km/h (3 Bft)
06.07.2016 11:56 16,3 C 16,3 C 73 % 1018,3 hPa 0,0 mm 8,7 km/h (2 Bft) W-NW 285 0 min 0,000 mm 2,4 UV-I 301 W/m 11,4 C 12,9 km/h (3 Bft)
06.07.2016 11:57 16,3 C 16,3 C 73 % 1018,3 hPa 0,0 mm 4,2 km/h (1 Bft) W 278 0 min 0,000 mm 2,0 UV-I 204 W/m 11,4 C 6,4 km/h (2 Bft)
06.07.2016 11:58 16,3 C 16,3 C 73 % 1018,3 hPa 0,0 mm 3,0 km/h (1 Bft) W-NW 296 0 min 0,000 mm 1,6 UV-I 192 W/m 11,4 C 6,4 km/h (2 Bft)
06.07.2016 11:59 16,4 C 16,4 C 73 % 1018,3 hPa 0,0 mm 4,4 km/h (1 Bft) W-SW 256 0 min 0,000 mm 1,8 UV-I 207 W/m 11,5 C 8,0 km/h (2 Bft)
06.07.2016 12:00 16,3 C 16,4 C 72 % 1018,3 hPa 0,0 mm 4,4 km/h (1 Bft) W 265 0 min 0,152 mm 2,0 UV-I 230 W/m 11,2 C 8,0 km/h (2 Bft)
06.07.2016 12:01 16,4 C 16,4 C 73 % 1018,3 hPa 0,0 mm 4,2 km/h (1 Bft) W 260 0 min 0,000 mm 2,1 UV-I 250 W/m 11,5 C 6,4 km/h (2 Bft)
06.07.2016 12:02 16,4 C 16,4 C 73 % 1018,4 hPa 0,0 mm 5,1 km/h (1 Bft) W-NW 286 0 min 0,000 mm 1,9 UV-I 241 W/m 11,5 C 6,4 km/h (2 Bft)
06.07.2016 12:03 16,4 C 16,4 C 73 % 1018,4 hPa 0,0 mm 3,8 km/h (1 Bft) W-NW 286 0 min 0,000 mm 1,7 UV-I 202 W/m 11,5 C 9,7 km/h (2 Bft)
06.07.2016 12:04 16,4 C 16,4 C 72 % 1018,4 hPa 0,0 mm 4,5 km/h (1 Bft) W 279 0 min 0,000 mm 1,7 UV-I 200 W/m 11,3 C 6,4 km/h (2 Bft)
06.07.2016 12:05 16,4 C 16,4 C 73 % 1018,4 hPa 0,0 mm 5,5 km/h (1 Bft) W 279 0 min 0,000 mm 1,6 UV-I 195 W/m 11,5 C 6,4 km/h (2 Bft)
06.07.2016 12:06 16,3 C 16,4 C 73 % 1018,3 hPa 0,0 mm 4,6 km/h (1 Bft) NW 307 0 min 0,000 mm 1,5 UV-I 188 W/m 11,4 C 6,4 km/h (2 Bft)
06.07.2016 12:07 16,4 C 16,4 C 74 % 1018,4 hPa 0,0 mm 3,9 km/h (1 Bft) NW 313 0 min 0,000 mm 1,6 UV-I 186 W/m 11,8 C 6,4 km/h (2 Bft)
06.07.2016 12:08 16,4 C 16,4 C 74 % 1018,4 hPa 0,0 mm 3,3 km/h (1 Bft) W 281 0 min 0,000 mm 2,0 UV-I 218 W/m 11,8 C 6,4 km/h (2 Bft)
06.07.2016 12:09 16,5 C 16,5 C 74 % 1018,4 hPa 0,0 mm 4,2 km/h (1 Bft) NW 309 0 min 0,000 mm 2,5 UV-I 318 W/m 11,8 C 6,4 km/h (2 Bft)
06.07.2016 12:10 16,6 C 16,6 C 73 % 1018,4 hPa 0,0 mm 6,0 km/h (2 Bft) W-NW 284 0 min 0,000 mm 2,8 UV-I 316 W/m 11,7 C 11,3 km/h (2 Bft)
06.07.2016 12:11 16,7 C 16,7 C 76 % 1018,4 hPa 0,0 mm 4,2 km/h (1 Bft) W-SW 255 0 min 0,000 mm 2,6 UV-I 290 W/m 12,4 C 6,4 km/h (2 Bft)
06.07.2016 12:12 16,7 C 16,7 C 71 % 1018,4 hPa 0,0 mm 4,5 km/h (1 Bft) W 275 0 min 0,000 mm 2,3 UV-I 260 W/m 11,4 C 6,4 km/h (2 Bft)
06.07.2016 12:13 16,7 C 16,7 C 72 % 1018,4 hPa 0,0 mm 2,8 km/h (1 Bft) W 269 0 min 0,000 mm 2,2 UV-I 244 W/m 11,6 C 4,8 km/h (1 Bft)
06.07.2016 12:14 16,7 C 16,7 C 73 % 1018,3 hPa 0,0 mm 3,0 km/h (1 Bft) W-SW 257 0 min 0,000 mm 2,1 UV-I 232 W/m 11,8 C 6,4 km/h (2 Bft)
06.07.2016 12:15 16,8 C 16,8 C 73 % 1018,4 hPa 0,0 mm 7,6 km/h (2 Bft) S 180 0 min 0,000 mm 2,2 UV-I 274 W/m 11,9 C 14,5 km/h (3 Bft)
06.07.2016 12:16 16,8 C 16,8 C 74 % 1018,4 hPa 0,0 mm 7,6 km/h (2 Bft) W-SW 257 0 min 0,000 mm 2,9 UV-I 318 W/m 12,1 C 12,9 km/h (3 Bft)
06.07.2016 12:17 16,8 C 16,8 C 72 % 1018,4 hPa 0,0 mm 10,7 km/h (2 Bft) S-SW 196 0 min 0,000 mm 3,0 UV-I 338 W/m 11,7 C 12,9 km/h (3 Bft)
06.07.2016 12:18 16,8 C 16,9 C 71 % 1018,3 hPa 0,0 mm 6,0 km/h (2 Bft) W 280 0 min 0,000 mm 2,9 UV-I 336 W/m 11,5 C 8,0 km/h (2 Bft)
06.07.2016 12:19 16,9 C 16,9 C 71 % 1018,4 hPa 0,0 mm 5,4 km/h (1 Bft) W-SW 246 0 min 0,000 mm 2,9 UV-I 329 W/m 11,6 C 9,7 km/h (2 Bft)
06.07.2016 12:20 16,9 C 16,9 C 72 % 1018,4 hPa 0,0 mm 4,5 km/h (1 Bft) S-SO 168 0 min 0,000 mm 2,9 UV-I 334 W/m 11,8 C 6,4 km/h (2 Bft)
06.07.2016 12:21 17,0 C 17,0 C 73 % 1018,3 hPa 0,0 mm 8,5 km/h (2 Bft) W-SW 242 0 min 0,000 mm 2,8 UV-I 320 W/m 12,1 C 12,9 km/h (3 Bft)
06.07.2016 12:22 17,1 C 17,1 C 71 % 1018,3 hPa 0,0 mm 6,2 km/h (2 Bft) W-NW 292 0 min 0,000 mm 3,0 UV-I 336 W/m 11,8 C 9,7 km/h (2 Bft)
06.07.2016 12:23 17,1 C 17,1 C 73 % 1018,3 hPa 0,0 mm 2,8 km/h (1 Bft) W-NW 289 0 min 0,000 mm 3,6 UV-I 406 W/m 12,2 C 4,8 km/h (1 Bft)
06.07.2016 12:24 17,3 C 17,3 C 75 % 1018,4 hPa 0,0 mm 4,7 km/h (1 Bft) W-SW 246 0 min 0,000 mm 4,2 UV-I 406 W/m 12,8 C 6,4 km/h (2 Bft)
06.07.2016 12:25 17,3 C 17,3 C 72 % 1018,4 hPa 0,0 mm 4,1 km/h (1 Bft) W-NW 285 0 min 0,000 mm 2,9 UV-I 406 W/m 12,2 C 6,4 km/h (2 Bft)
06.07.2016 12:26 17,3 C 17,3 C 72 % 1018,3 hPa 0,0 mm 7,0 km/h (2 Bft) W-NW 284 0 min 0,000 mm 2,6 UV-I 269 W/m 12,2 C 14,5 km/h (3 Bft)
06.07.2016 12:27 17,3 C 17,3 C 70 % 1018,4 hPa 0,0 mm 7,8 km/h (2 Bft) NW 308 0 min 0,000 mm 2,2 UV-I 267 W/m 11,8 C 12,9 km/h (3 Bft)
06.07.2016 12:28 17,2 C 17,3 C 71 % 1018,4 hPa 0,0 mm 4,8 km/h (1 Bft) NW 304 0 min 0,000 mm 2,3 UV-I 288 W/m 11,9 C 6,4 km/h (2 Bft)
06.07.2016 12:29 17,2 C 17,3 C 71 % 1018,4 hPa 0,0 mm 6,6 km/h (2 Bft) W 279 0 min 0,000 mm 2,1 UV-I 255 W/m 11,9 C 9,7 km/h (2 Bft)
06.07.2016 12:30 17,2 C 17,2 C 72 % 1018,4 hPa 0,0 mm 3,7 km/h (1 Bft) W 259 0 min 0,000 mm 1,8 UV-I 221 W/m 12,1 C 6,4 km/h (2 Bft)
06.07.2016 12:31 17,1 C 17,2 C 71 % 1018,4 hPa 0,0 mm 4,0 km/h (1 Bft) NW 317 0 min 0,000 mm 1,6 UV-I 192 W/m 11,8 C 6,4 km/h (2 Bft)
06.07.2016 12:32 17,1 C 17,1 C 72 % 1018,4 hPa 0,0 mm 4,4 km/h (1 Bft) W-NW 290 0 min 0,000 mm 1,6 UV-I 200 W/m 12,0 C 4,8 km/h (1 Bft)
06.07.2016 12:33 17,1 C 17,1 C 73 % 1018,4 hPa 0,0 mm 5,2 km/h (1 Bft) W-NW 298 0 min 0,000 mm 1,9 UV-I 209 W/m 12,2 C 8,0 km/h (2 Bft)
06.07.2016 12:34 17,1 C 17,1 C 73 % 1018,4 hPa 0,0 mm 6,7 km/h (2 Bft) N-NW 338 0 min 0,000 mm 1,8 UV-I 206 W/m 12,2 C 8,0 km/h (2 Bft)
06.07.2016 12:35 17,0 C 17,1 C 70 % 1018,4 hPa 0,0 mm 5,5 km/h (1 Bft) NW 317 0 min 0,000 mm 1,7 UV-I 195 W/m 11,5 C 8,0 km/h (2 Bft)
06.07.2016 12:36 16,9 C 17,0 C 71 % 1018,4 hPa 0,0 mm 5,3 km/h (1 Bft) W-NW 291 0 min 0,000 mm 1,6 UV-I 188 W/m 11,6 C 8,0 km/h (2 Bft)
06.07.2016 12:37 16,9 C 17,0 C 72 % 1018,4 hPa 0,0 mm 5,8 km/h (2 Bft) W-NW 296 0 min 0,000 mm 1,6 UV-I 186 W/m 11,8 C 11,3 km/h (2 Bft)
06.07.2016 12:38 16,9 C 16,9 C 71 % 1018,4 hPa 0,0 mm 7,2 km/h (2 Bft) W 281 0 min 0,000 mm 1,8 UV-I 221 W/m 11,6 C 9,7 km/h (2 Bft)
06.07.2016 12:39 16,9 C 16,9 C 73 % 1018,5 hPa 0,0 mm 5,2 km/h (1 Bft) W-NW 286 0 min 0,000 mm 2,1 UV-I 243 W/m 12,0 C 6,4 km/h (2 Bft)
06.07.2016 12:40 16,9 C 16,9 C 72 % 1018,5 hPa 0,0 mm 4,7 km/h (1 Bft) NW 306 0 min 0,000 mm 2,0 UV-I 225 W/m 11,8 C 6,4 km/h (2 Bft)
06.07.2016 12:41 16,9 C 16,9 C 72 % 1018,5 hPa 0,0 mm 8,9 km/h (2 Bft) W 272 0 min 0,000 mm 2,0 UV-I 218 W/m 11,8 C 16,1 km/h (3 Bft)
06.07.2016 12:42 16,9 C 16,9 C 73 % 1018,5 hPa 0,0 mm 7,6 km/h (2 Bft) W 270 0 min 0,000 mm 2,2 UV-I 229 W/m 12,0 C 12,9 km/h (3 Bft)
06.07.2016 12:43 16,9 C 17,0 C 71 % 1018,5 hPa 0,0 mm 6,2 km/h (2 Bft) W-NW 294 0 min 0,000 mm 2,6 UV-I 258 W/m 11,6 C 11,3 km/h (2 Bft)
06.07.2016 12:44 16,9 C 16,9 C 70 % 1018,5 hPa 0,0 mm 5,8 km/h (2 Bft) W-NW 301 0 min 0,000 mm 3,2 UV-I 371 W/m 11,4 C 9,7 km/h (2 Bft)
06.07.2016 12:45 17,0 C 17,0 C 73 % 1018,4 hPa 0,0 mm 3,4 km/h (1 Bft) W 267 0 min 0,000 mm 5,4 UV-I 371 W/m 12,1 C 4,8 km/h (1 Bft)
06.07.2016 12:46 17,1 C 17,1 C 75 % 1018,4 hPa 0,0 mm 1,3 km/h (1 Bft) NW 315 0 min 0,000 mm 4,7 UV-I 371 W/m 12,6 C 3,2 km/h (1 Bft)
06.07.2016 12:47 17,3 C 17,3 C 72 % 1018,3 hPa 0,0 mm 3,0 km/h (1 Bft) NW 310 0 min 0,000 mm 6,5 UV-I 371 W/m 12,2 C 6,4 km/h (2 Bft)
06.07.2016 12:48 17,5 C 17,5 C 71 % 1018,4 hPa 0,0 mm 3,2 km/h (1 Bft) NW 316 0 min 0,000 mm 4,0 UV-I 371 W/m 12,2 C 6,4 km/h (2 Bft)
06.07.2016 12:49 17,6 C 17,6 C 69 % 1018,4 hPa 0,0 mm 2,7 km/h (1 Bft) W-NW 286 0 min 0,000 mm 3,9 UV-I 371 W/m 11,8 C 4,8 km/h (1 Bft)
06.07.2016 12:50 17,6 C 17,6 C 73 % 1018,4 hPa 0,0 mm 4,2 km/h (1 Bft) W-NW 302 0 min 0,000 mm 3,8 UV-I 383 W/m 12,7 C 6,4 km/h (2 Bft)
06.07.2016 12:51 17,7 C 17,7 C 72 % 1018,4 hPa 0,0 mm 4,9 km/h (1 Bft) W 276 0 min 0,000 mm 3,7 UV-I 362 W/m 12,6 C 8,0 km/h (2 Bft)
06.07.2016 12:52 17,7 C 17,7 C 71 % 1018,4 hPa 0,0 mm 4,4 km/h (1 Bft) W-NW 286 0 min 0,000 mm 2,2 UV-I 362 W/m 12,4 C 6,4 km/h (2 Bft)
06.07.2016 12:53 17,7 C 17,7 C 73 % 1018,4 hPa 0,0 mm 5,8 km/h (2 Bft) W 261 0 min 0,000 mm 1,9 UV-I 214 W/m 12,8 C 8,0 km/h (2 Bft)
06.07.2016 12:54 17,6 C 17,7 C 72 % 1018,4 hPa 0,0 mm 4,8 km/h (1 Bft) W-NW 301 0 min 0,000 mm 1,7 UV-I 192 W/m 12,5 C 6,4 km/h (2 Bft)
06.07.2016 12:55 17,6 C 17,6 C 70 % 1018,4 hPa 0,0 mm 2,7 km/h (1 Bft) NW 304 0 min 0,000 mm 1,5 UV-I 171 W/m 12,1 C 6,4 km/h (2 Bft)
06.07.2016 12:56 17,4 C 17,6 C 69 % 1018,4 hPa 0,0 mm 0,3 km/h (0 Bft) NW 304 0 min 0,000 mm 1,3 UV-I 134 W/m 11,7 C 1,6 km/h (1 Bft)
06.07.2016 12:57 17,3 C 17,4 C 71 % 1018,4 hPa 0,0 mm 3,5 km/h (1 Bft) W-NW 296 0 min 0,000 mm 1,0 UV-I 123 W/m 12,0 C 6,4 km/h (2 Bft)
06.07.2016 12:58 17,3 C 17,3 C 72 % 1018,4 hPa 0,0 mm 4,6 km/h (1 Bft) W-NW 297 0 min 0,000 mm 1,0 UV-I 114 W/m 12,2 C 9,7 km/h (2 Bft)
06.07.2016 12:59 17,2 C 17,3 C 70 % 1018,4 hPa 0,0 mm 4,2 km/h (1 Bft) W-NW 302 0 min 0,000 mm 1,0 UV-I 109 W/m 11,7 C 6,4 km/h (2 Bft)
06.07.2016 13:00 17,1 C 17,2 C 69 % 1018,4 hPa 0,0 mm 5,2 km/h (1 Bft) W-NW 288 0 min 0,000 mm 0,9 UV-I 105 W/m 11,4 C 6,4 km/h (2 Bft)
06.07.2016 13:01 17,0 C 17,1 C 71 % 1018,4 hPa 0,0 mm 3,7 km/h (1 Bft) W 267 0 min 0,178 mm 0,9 UV-I 105 W/m 11,7 C 4,8 km/h (1 Bft)
06.07.2016 13:02 16,9 C 17,0 C 70 % 1018,4 hPa 0,0 mm 3,4 km/h (1 Bft) W-NW 287 0 min 0,000 mm 0,9 UV-I 111 W/m 11,4 C 4,8 km/h (1 Bft)
06.07.2016 13:03 16,9 C 16,9 C 71 % 1018,4 hPa 0,0 mm 2,6 km/h (1 Bft) W-NW 296 0 min 0,000 mm 1,3 UV-I 139 W/m 11,6 C 3,2 km/h (1 Bft)
06.07.2016 13:04 16,9 C 16,9 C 72 % 1018,4 hPa 0,0 mm 2,7 km/h (1 Bft) W-NW 294 0 min 0,000 mm 1,3 UV-I 172 W/m 11,8 C 4,8 km/h (1 Bft)
06.07.2016 13:05 16,8 C 16,9 C 74 % 1018,4 hPa 0,0 mm 4,6 km/h (1 Bft) W 276 0 min 0,000 mm 1,9 UV-I 200 W/m 12,1 C 9,7 km/h (2 Bft)
06.07.2016 13:06 16,8 C 16,8 C 72 % 1018,4 hPa 0,0 mm 4,2 km/h (1 Bft) NW 304 0 min 0,000 mm 2,2 UV-I 246 W/m 11,7 C 6,4 km/h (2 Bft)
06.07.2016 13:07 16,9 C 16,9 C 71 % 1018,4 hPa 0,0 mm 3,6 km/h (1 Bft) W 280 0 min 0,000 mm 2,5 UV-I 267 W/m 11,6 C 4,8 km/h (1 Bft)
06.07.2016 13:08 16,9 C 16,9 C 74 % 1018,4 hPa 0,0 mm 2,8 km/h (1 Bft) W 269 0 min 0,000 mm 3,6 UV-I 439 W/m 12,2 C 4,8 km/h (1 Bft)
06.07.2016 13:09 17,1 C 17,1 C 73 % 1018,4 hPa 0,0 mm 3,8 km/h (1 Bft) W-NW 286 1 min 0,000 mm 4,1 UV-I 492 W/m 12,2 C 4,8 km/h (1 Bft)
06.07.2016 13:10 17,3 C 17,3 C 72 % 1018,3 hPa 0,0 mm 4,8 km/h (1 Bft) NW 304 0 min 0,000 mm 3,6 UV-I 424 W/m 12,2 C 4,8 km/h (1 Bft)
06.07.2016 13:11 17,4 C 17,4 C 73 % 1018,3 hPa 0,0 mm 1,5 km/h (1 Bft) W-NW 289 0 min 0,000 mm 4,9 UV-I 424 W/m 12,5 C 4,8 km/h (1 Bft)
06.07.2016 13:12 17,7 C 17,7 C 76 % 1018,3 hPa 0,0 mm 6,2 km/h (2 Bft) W 267 0 min 0,000 mm 2,9 UV-I 424 W/m 13,4 C 9,7 km/h (2 Bft)
06.07.2016 13:13 17,8 C 17,8 C 69 % 1018,3 hPa 0,0 mm 6,5 km/h (2 Bft) W-NW 294 0 min 0,000 mm 2,8 UV-I 338 W/m 12,0 C 9,7 km/h (2 Bft)
06.07.2016 13:14 17,8 C 17,8 C 70 % 1018,3 hPa 0,0 mm 5,8 km/h (2 Bft) W-NW 291 0 min 0,000 mm 3,0 UV-I 392 W/m 12,3 C 6,4 km/h (2 Bft)
06.07.2016 13:15 17,8 C 17,8 C 72 % 1018,3 hPa 0,0 mm 5,2 km/h (1 Bft) W 280 0 min 0,000 mm 3,3 UV-I 383 W/m 12,7 C 6,4 km/h (2 Bft)
06.07.2016 13:16 17,8 C 17,8 C 71 % 1018,2 hPa 0,0 mm 5,2 km/h (1 Bft) NW 322 0 min 0,000 mm 2,8 UV-I 320 W/m 12,5 C 9,7 km/h (2 Bft)
06.07.2016 13:17 17,8 C 17,8 C 71 % 1018,3 hPa 0,0 mm 4,6 km/h (1 Bft) W-NW 294 0 min 0,000 mm 2,3 UV-I 320 W/m 12,5 C 6,4 km/h (2 Bft)
06.07.2016 13:18 17,7 C 17,8 C 69 % 1018,3 hPa 0,0 mm 10,6 km/h (2 Bft) NW 311 0 min 0,000 mm 1,9 UV-I 320 W/m 11,9 C 16,1 km/h (3 Bft)
06.07.2016 13:19 17,7 C 17,7 C 70 % 1018,3 hPa 0,0 mm 7,9 km/h (2 Bft) NW 318 0 min 0,000 mm 1,9 UV-I 239 W/m 12,2 C 11,3 km/h (2 Bft)
06.07.2016 13:20 17,7 C 17,7 C 70 % 1018,3 hPa 0,0 mm 3,6 km/h (1 Bft) W 274 0 min 0,000 mm 2,5 UV-I 258 W/m 12,2 C 6,4 km/h (2 Bft)
06.07.2016 13:21 17,7 C 17,7 C 72 % 1018,3 hPa 0,0 mm 3,1 km/h (1 Bft) W 276 0 min 0,000 mm 2,6 UV-I 260 W/m 12,6 C 4,8 km/h (1 Bft)
06.07.2016 13:22 17,6 C 17,7 C 71 % 1018,3 hPa 0,0 mm 8,0 km/h (2 Bft) W-SW 251 0 min 0,000 mm 2,6 UV-I 251 W/m 12,3 C 14,5 km/h (3 Bft)
06.07.2016 13:23 17,6 C 17,7 C 70 % 1018,2 hPa 0,0 mm 13,0 km/h (3 Bft) W 267 0 min 0,000 mm 2,8 UV-I 269 W/m 12,1 C 17,7 km/h (3 Bft)
06.07.2016 13:24 17,6 C 17,6 C 68 % 1018,3 hPa 0,0 mm 10,1 km/h (2 Bft) W 265 0 min 0,000 mm 3,2 UV-I 332 W/m 11,6 C 16,1 km/h (3 Bft)
06.07.2016 13:25 17,5 C 17,6 C 70 % 1018,3 hPa 0,0 mm 6,2 km/h (2 Bft) W-NW 286 0 min 0,000 mm 3,6 UV-I 432 W/m 12,0 C 9,7 km/h (2 Bft)
06.07.2016 13:26 17,6 C 17,6 C 73 % 1018,3 hPa 0,0 mm 9,7 km/h (2 Bft) W-NW 290 0 min 0,000 mm 4,3 UV-I 471 W/m 12,7 C 12,9 km/h (3 Bft)
06.07.2016 13:27 17,7 C 17,7 C 71 % 1018,3 hPa 0,0 mm 4,2 km/h (1 Bft) W 263 1 min 0,000 mm 4,8 UV-I 519 W/m 12,4 C 6,4 km/h (2 Bft)
06.07.2016 13:28 17,8 C 17,8 C 74 % 1018,3 hPa 0,0 mm 5,7 km/h (1 Bft) W-SW 257 1 min 0,000 mm 4,7 UV-I 524 W/m 13,1 C 9,7 km/h (2 Bft)
06.07.2016 13:29 17,8 C 17,8 C 70 % 1018,3 hPa 0,0 mm 4,6 km/h (1 Bft) NW 307 1 min 0,000 mm 3,9 UV-I 524 W/m 12,3 C 6,4 km/h (2 Bft)
06.07.2016 13:30 17,8 C 17,8 C 70 % 1018,3 hPa 0,0 mm 4,2 km/h (1 Bft) NW 311 0 min 0,000 mm 3,8 UV-I 383 W/m 12,3 C 6,4 km/h (2 Bft)
06.07.2016 13:31 17,9 C 17,9 C 70 % 1018,2 hPa 0,0 mm 3,8 km/h (1 Bft) W 278 0 min 0,000 mm 3,8 UV-I 388 W/m 12,3 C 6,4 km/h (2 Bft)
06.07.2016 13:32 17,9 C 17,9 C 70 % 1018,3 hPa 0,0 mm 5,7 km/h (1 Bft) W-NW 284 0 min 0,000 mm 2,8 UV-I 302 W/m 12,3 C 11,3 km/h (2 Bft)
06.07.2016 13:33 17,9 C 17,9 C 70 % 1018,3 hPa 0,0 mm 8,0 km/h (2 Bft) SW 226 0 min 0,000 mm 2,4 UV-I 237 W/m 12,3 C 12,9 km/h (3 Bft)
06.07.2016 13:34 17,9 C 17,9 C 71 % 1018,3 hPa 0,0 mm 7,5 km/h (2 Bft) SW 234 0 min 0,000 mm 2,2 UV-I 211 W/m 12,6 C 12,9 km/h (3 Bft)
06.07.2016 13:35 17,9 C 17,9 C 70 % 1018,3 hPa 0,0 mm 5,7 km/h (1 Bft) NW 306 0 min 0,000 mm 2,2 UV-I 200 W/m 12,3 C 9,7 km/h (2 Bft)
06.07.2016 13:36 17,8 C 17,9 C 69 % 1018,3 hPa 0,0 mm 6,2 km/h (2 Bft) W-NW 301 0 min 0,000 mm 2,2 UV-I 197 W/m 12,0 C 9,7 km/h (2 Bft)
06.07.2016 13:37 17,8 C 17,8 C 69 % 1018,2 hPa 0,0 mm 4,4 km/h (1 Bft) NW 306 0 min 0,000 mm 2,2 UV-I 185 W/m 12,0 C 11,3 km/h (2 Bft)
06.07.2016 13:38 17,7 C 17,8 C 69 % 1018,3 hPa 0,0 mm 3,7 km/h (1 Bft) W-SW 246 0 min 0,000 mm 2,4 UV-I 193 W/m 11,9 C 6,4 km/h (2 Bft)
06.07.2016 13:39 17,6 C 17,7 C 69 % 1018,2 hPa 0,0 mm 7,1 km/h (2 Bft) W 281 0 min 0,000 mm 2,8 UV-I 223 W/m 11,8 C 11,3 km/h (2 Bft)
06.07.2016 13:40 17,6 C 17,6 C 71 % 1018,3 hPa 0,0 mm 5,0 km/h (1 Bft) W-SW 250 0 min 0,000 mm 3,7 UV-I 315 W/m 12,3 C 11,3 km/h (2 Bft)
06.07.2016 13:41 17,7 C 17,7 C 72 % 1018,3 hPa 0,0 mm 2,8 km/h (1 Bft) W-NW 300 0 min 0,000 mm 7,0 UV-I 315 W/m 12,6 C 4,8 km/h (1 Bft)
06.07.2016 13:42 17,8 C 17,8 C 73 % 1018,2 hPa 0,0 mm 5,9 km/h (2 Bft) SW 236 0 min 0,000 mm 5,3 UV-I 315 W/m 12,9 C 12,9 km/h (3 Bft)
06.07.2016 13:43 18,0 C 18,0 C 73 % 1018,3 hPa 0,0 mm 8,8 km/h (2 Bft) W-SW 248 0 min 0,000 mm 3,9 UV-I 348 W/m 13,1 C 14,5 km/h (3 Bft)
06.07.2016 13:44 18,1 C 18,1 C 69 % 1018,2 hPa 0,0 mm 9,3 km/h (2 Bft) W-SW 253 0 min 0,000 mm 4,2 UV-I 380 W/m 12,3 C 11,3 km/h (2 Bft)
06.07.2016 13:45 18,0 C 18,1 C 69 % 1018,2 hPa 0,0 mm 6,8 km/h (2 Bft) W-SW 254 0 min 0,000 mm 6,9 UV-I 380 W/m 12,2 C 11,3 km/h (2 Bft)
06.07.2016 13:46 18,0 C 18,0 C 69 % 1018,2 hPa 0,0 mm 6,7 km/h (2 Bft) W-SW 247 0 min 0,000 mm 3,6 UV-I 380 W/m 12,2 C 11,3 km/h (2 Bft)
06.07.2016 13:47 18,0 C 18,1 C 69 % 1018,1 hPa 0,0 mm 7,8 km/h (2 Bft) W-SW 258 0 min 0,000 mm 3,0 UV-I 380 W/m 12,2 C 11,3 km/h (2 Bft)
06.07.2016 13:48 18,1 C 18,1 C 69 % 1018,1 hPa 0,0 mm 6,0 km/h (2 Bft) SW 236 0 min 0,000 mm 2,6 UV-I 248 W/m 12,3 C 8,0 km/h (2 Bft)
06.07.2016 13:49 18,0 C 18,1 C 66 % 1018,1 hPa 0,0 mm 8,2 km/h (2 Bft) W 265 0 min 0,000 mm 2,7 UV-I 257 W/m 11,6 C 11,3 km/h (2 Bft)
06.07.2016 13:50 17,9 C 18,0 C 66 % 1018,1 hPa 0,0 mm 4,7 km/h (1 Bft) W-NW 295 0 min 0,000 mm 2,6 UV-I 253 W/m 11,5 C 9,7 km/h (2 Bft)
06.07.2016 13:51 17,8 C 17,9 C 67 % 1018,0 hPa 0,0 mm 5,5 km/h (1 Bft) W-NW 302 0 min 0,000 mm 2,3 UV-I 230 W/m 11,6 C 9,7 km/h (2 Bft)
06.07.2016 13:52 17,8 C 17,8 C 69 % 1018,1 hPa 0,0 mm 7,0 km/h (2 Bft) W-NW 292 0 min 0,000 mm 2,1 UV-I 213 W/m 12,0 C 12,9 km/h (3 Bft)
06.07.2016 13:53 17,8 C 17,8 C 69 % 1018,1 hPa 0,0 mm 6,4 km/h (2 Bft) W-SW 252 0 min 0,000 mm 1,9 UV-I 202 W/m 12,0 C 14,5 km/h (3 Bft)
06.07.2016 13:54 17,8 C 17,8 C 67 % 1018,0 hPa 0,0 mm 9,8 km/h (2 Bft) W 261 0 min 0,000 mm 2,2 UV-I 227 W/m 11,6 C 14,5 km/h (3 Bft)
06.07.2016 13:55 17,8 C 17,8 C 68 % 1018,1 hPa 0,0 mm 6,5 km/h (2 Bft) W-NW 291 0 min 0,000 mm 6,7 UV-I 227 W/m 11,8 C 12,9 km/h (3 Bft)
06.07.2016 13:56 17,9 C 17,9 C 67 % 1018,0 hPa 0,0 mm 4,8 km/h (1 Bft) W-NW 283 1 min 0,000 mm 6,5 UV-I 1048 W/m 11,7 C 6,4 km/h (2 Bft)
06.07.2016 13:57 18,1 C 18,1 C 68 % 1018,0 hPa 0,0 mm 4,1 km/h (1 Bft) W-NW 296 1 min 0,000 mm 3,9 UV-I 1048 W/m 12,1 C 8,0 km/h (2 Bft)
06.07.2016 13:58 18,3 C 18,3 C 72 % 1018,0 hPa 0,0 mm 7,2 km/h (2 Bft) W-NW 286 1 min 0,000 mm 3,2 UV-I 1048 W/m 13,2 C 11,3 km/h (2 Bft)
06.07.2016 13:59 18,4 C 18,4 C 70 % 1018,1 hPa 0,0 mm 6,8 km/h (2 Bft) W-NW 296 1 min 0,000 mm 2,8 UV-I 1048 W/m 12,8 C 9,7 km/h (2 Bft)
06.07.2016 14:00 18,5 C 18,6 C 67 % 1018,1 hPa 0,0 mm 9,8 km/h (2 Bft) NW 312 1 min 0,000 mm 3,5 UV-I 1048 W/m 12,3 C 12,9 km/h (3 Bft)
06.07.2016 14:01 18,6 C 18,6 C 67 % 1018,2 hPa 0,0 mm 10,1 km/h (2 Bft) NW 326 1 min 0,228 mm 2,9 UV-I 1048 W/m 12,3 C 14,5 km/h (3 Bft)
06.07.2016 14:02 18,5 C 18,6 C 66 % 1018,2 hPa 0,0 mm 8,7 km/h (2 Bft) W-NW 289 0 min 0,000 mm 2,8 UV-I 288 W/m 12,0 C 12,9 km/h (3 Bft)
06.07.2016 14:03 18,4 C 18,5 C 68 % 1018,2 hPa 0,0 mm 10,5 km/h (2 Bft) NW 326 0 min 0,000 mm 3,1 UV-I 313 W/m 12,4 C 17,7 km/h (3 Bft)
06.07.2016 14:04 18,4 C 18,4 C 69 % 1018,2 hPa 0,0 mm 6,3 km/h (2 Bft) NW 323 0 min 0,000 mm 3,0 UV-I 350 W/m 12,6 C 11,3 km/h (2 Bft)
06.07.2016 14:05 18,4 C 18,4 C 67 % 1018,2 hPa 0,0 mm 10,3 km/h (2 Bft) W-NW 288 0 min 0,000 mm 2,9 UV-I 299 W/m 12,2 C 16,1 km/h (3 Bft)
06.07.2016 14:06 18,3 C 18,4 C 68 % 1018,2 hPa 0,0 mm 10,8 km/h (2 Bft) NW 309 0 min 0,000 mm 3,0 UV-I 309 W/m 12,3 C 16,1 km/h (3 Bft)
06.07.2016 14:07 18,3 C 18,3 C 68 % 1018,2 hPa 0,0 mm 6,1 km/h (2 Bft) NW 315 0 min 0,000 mm 2,9 UV-I 309 W/m 12,3 C 12,9 km/h (3 Bft)
06.07.2016 14:08 18,3 C 18,3 C 68 % 1018,2 hPa 0,0 mm 6,6 km/h (2 Bft) W-NW 299 0 min 0,000 mm 2,6 UV-I 271 W/m 12,3 C 12,9 km/h (3 Bft)
06.07.2016 14:09 18,2 C 18,3 C 68 % 1018,1 hPa 0,0 mm 7,0 km/h (2 Bft) W-NW 294 0 min 0,000 mm 2,3 UV-I 230 W/m 12,2 C 12,9 km/h (3 Bft)
06.07.2016 14:10 18,2 C 18,2 C 68 % 1018,2 hPa 0,0 mm 4,8 km/h (1 Bft) N-NW 330 0 min 0,000 mm 2,2 UV-I 206 W/m 12,2 C 8,0 km/h (2 Bft)
06.07.2016 14:11 18,2 C 18,2 C 67 % 1018,2 hPa 0,0 mm 2,9 km/h (1 Bft) NW 323 0 min 0,000 mm 2,5 UV-I 230 W/m 12,0 C 4,8 km/h (1 Bft)
06.07.2016 14:12 18,2 C 18,2 C 68 % 1018,2 hPa 0,0 mm 3,0 km/h (1 Bft) W-NW 291 0 min 0,000 mm 3,3 UV-I 306 W/m 12,2 C 4,8 km/h (1 Bft)
06.07.2016 14:13 18,3 C 18,3 C 69 % 1018,1 hPa 0,0 mm 4,7 km/h (1 Bft) W 281 1 min 0,000 mm 7,5 UV-I 1134 W/m 12,5 C 6,4 km/h (2 Bft)
06.07.2016 14:14 18,4 C 18,4 C 69 % 1018,1 hPa 0,0 mm 8,4 km/h (2 Bft) W-NW 286 1 min 0,000 mm 6,8 UV-I 1134 W/m 12,6 C 14,5 km/h (3 Bft)
06.07.2016 14:15 18,6 C 18,6 C 69 % 1018,2 hPa 0,0 mm 8,9 km/h (2 Bft) W 267 1 min 0,000 mm 7,4 UV-I 1134 W/m 12,8 C 14,5 km/h (3 Bft)
06.07.2016 14:16 18,8 C 18,8 C 69 % 1018,2 hPa 0,0 mm 9,7 km/h (2 Bft) N-NW 342 1 min 0,000 mm 7,5 UV-I 1134 W/m 13,0 C 12,9 km/h (3 Bft)
06.07.2016 14:17 18,9 C 18,9 C 69 % 1018,2 hPa 0,0 mm 8,3 km/h (2 Bft) N-NW 343 1 min 0,000 mm 7,3 UV-I 1134 W/m 13,1 C 11,3 km/h (2 Bft)
06.07.2016 14:18 19,1 C 19,1 C 68 % 1018,2 hPa 0,0 mm 7,1 km/h (2 Bft) NW 304 1 min 0,000 mm 3,9 UV-I 1134 W/m 13,1 C 9,7 km/h (2 Bft)
06.07.2016 14:19 19,1 C 19,1 C 67 % 1018,2 hPa 0,0 mm 9,9 km/h (2 Bft) W 279 1 min 0,000 mm 7,1 UV-I 1134 W/m 12,8 C 16,1 km/h (3 Bft)
06.07.2016 14:20 19,1 C 19,1 C 65 % 1018,2 hPa 0,0 mm 8,0 km/h (2 Bft) W 273 1 min 0,000 mm 6,9 UV-I 983 W/m 12,4 C 11,3 km/h (2 Bft)
06.07.2016 14:21 18,9 C 19,1 C 66 % 1018,2 hPa 0,0 mm 8,0 km/h (2 Bft) W-NW 302 1 min 0,000 mm 3,7 UV-I 983 W/m 12,4 C 12,9 km/h (3 Bft)
06.07.2016 14:22 18,8 C 18,9 C 64 % 1018,2 hPa 0,0 mm 4,0 km/h (1 Bft) W 279 1 min 0,000 mm 3,9 UV-I 501 W/m 11,8 C 8,0 km/h (2 Bft)
06.07.2016 14:23 18,7 C 18,8 C 65 % 1018,1 hPa 0,0 mm 6,4 km/h (2 Bft) NW 318 0 min 0,000 mm 3,3 UV-I 237 W/m 12,0 C 9,7 km/h (2 Bft)
06.07.2016 14:24 18,6 C 18,7 C 65 % 1018,1 hPa 0,0 mm 4,9 km/h (1 Bft) W 263 0 min 0,000 mm 2,9 UV-I 239 W/m 11,9 C 8,0 km/h (2 Bft)
06.07.2016 14:25 18,5 C 18,6 C 67 % 1018,1 hPa 0,0 mm 5,0 km/h (1 Bft) W-NW 294 0 min 0,000 mm 2,7 UV-I 234 W/m 12,3 C 6,4 km/h (2 Bft)
06.07.2016 14:26 18,4 C 18,5 C 68 % 1018,1 hPa 0,0 mm 3,1 km/h (1 Bft) W-NW 285 0 min 0,000 mm 2,6 UV-I 239 W/m 12,4 C 4,8 km/h (1 Bft)
06.07.2016 14:27 18,3 C 18,4 C 65 % 1018,0 hPa 0,0 mm 2,1 km/h (1 Bft) W-NW 285 0 min 0,000 mm 2,7 UV-I 251 W/m 11,6 C 3,2 km/h (1 Bft)
06.07.2016 14:28 18,3 C 18,3 C 67 % 1018,0 hPa 0,0 mm 1,9 km/h (1 Bft) W-NW 296 0 min 0,000 mm 3,0 UV-I 283 W/m 12,1 C 3,2 km/h (1 Bft)
06.07.2016 14:29 18,3 C 18,3 C 68 % 1018,1 hPa 0,0 mm 4,0 km/h (1 Bft) NW 321 1 min 0,000 mm 5,8 UV-I 851 W/m 12,3 C 6,4 km/h (2 Bft)
06.07.2016 14:30 18,4 C 18,4 C 71 % 1018,1 hPa 0,0 mm 1,8 km/h (1 Bft) NW 321 1 min 0,000 mm 5,8 UV-I 884 W/m 13,0 C 3,2 km/h (1 Bft)
06.07.2016 14:31 18,7 C 18,7 C 69 % 1018,1 hPa 0,0 mm 4,1 km/h (1 Bft) W-NW 300 1 min 0,000 mm 6,2 UV-I 921 W/m 12,9 C 4,8 km/h (1 Bft)
06.07.2016 14:32 19,1 C 19,1 C 70 % 1018,1 hPa 0,0 mm 3,8 km/h (1 Bft) N 5 1 min 0,000 mm 5,5 UV-I 944 W/m 13,5 C 6,4 km/h (2 Bft)
06.07.2016 14:33 19,3 C 19,3 C 66 % 1018,0 hPa 0,0 mm 5,9 km/h (2 Bft) N-NO 24 1 min 0,000 mm 6,0 UV-I 962 W/m 12,8 C 8,0 km/h (2 Bft)
06.07.2016 14:34 19,4 C 19,4 C 64 % 1018,1 hPa 0,0 mm 5,6 km/h (1 Bft) N-NO 32 1 min 0,000 mm 2,1 UV-I 962 W/m 12,4 C 9,7 km/h (2 Bft)
06.07.2016 14:35 19,4 C 19,4 C 65 % 1018,2 hPa 0,0 mm 6,2 km/h (2 Bft) N-NO 15 0 min 0,000 mm 1,7 UV-I 179 W/m 12,6 C 11,3 km/h (2 Bft)
06.07.2016 14:36 19,3 C 19,4 C 67 % 1018,2 hPa 0,0 mm 6,7 km/h (2 Bft) N-NW 340 0 min 0,000 mm 1,7 UV-I 183 W/m 13,0 C 11,3 km/h (2 Bft)
06.07.2016 14:37 19,1 C 19,3 C 67 % 1018,2 hPa 0,0 mm 6,8 km/h (2 Bft) N-NW 344 0 min 0,000 mm 1,9 UV-I 197 W/m 12,8 C 12,9 km/h (3 Bft)
06.07.2016 14:38 18,8 C 19,1 C 67 % 1018,2 hPa 0,0 mm 4,7 km/h (1 Bft) W-NW 301 0 min 0,000 mm 2,8 UV-I 274 W/m 12,5 C 9,7 km/h (2 Bft)
06.07.2016 14:39 18,7 C 18,8 C 69 % 1018,3 hPa 0,0 mm 6,1 km/h (2 Bft) N-NO 20 0 min 0,000 mm 2,5 UV-I 230 W/m 12,9 C 11,3 km/h (2 Bft)
06.07.2016 14:40 18,6 C 18,7 C 67 % 1018,3 hPa 0,0 mm 10,0 km/h (2 Bft) N-NW 329 0 min 0,000 mm 2,9 UV-I 239 W/m 12,3 C 14,5 km/h (3 Bft)
06.07.2016 14:41 18,4 C 18,6 C 67 % 1018,3 hPa 0,0 mm 4,4 km/h (1 Bft) N 355 0 min 0,000 mm 3,1 UV-I 234 W/m 12,2 C 6,4 km/h (2 Bft)
06.07.2016 14:42 18,3 C 18,4 C 68 % 1018,2 hPa 0,0 mm 5,0 km/h (1 Bft) W-NW 298 0 min 0,000 mm 2,6 UV-I 148 W/m 12,3 C 6,4 km/h (2 Bft)
06.07.2016 14:43 18,2 C 18,3 C 68 % 1018,2 hPa 0,0 mm 4,9 km/h (1 Bft) NW 313 0 min 0,000 mm 2,5 UV-I 148 W/m 12,2 C 6,4 km/h (2 Bft)
06.07.2016 14:44 18,1 C 18,2 C 67 % 1018,2 hPa 0,0 mm 4,8 km/h (1 Bft) W-NW 302 0 min 0,000 mm 2,8 UV-I 178 W/m 11,9 C 6,4 km/h (2 Bft)
06.07.2016 14:45 18,1 C 18,1 C 70 % 1018,2 hPa 0,0 mm 4,0 km/h (1 Bft) W 278 0 min 0,000 mm 3,4 UV-I 262 W/m 12,5 C 6,4 km/h (2 Bft)
06.07.2016 14:46 18,0 C 18,1 C 68 % 1018,2 hPa 0,0 mm 2,4 km/h (1 Bft) W-NW 303 0 min 0,000 mm 3,8 UV-I 262 W/m 12,0 C 6,4 km/h (2 Bft)
06.07.2016 14:47 18,1 C 18,1 C 69 % 1018,1 hPa 0,0 mm 10,2 km/h (2 Bft) N 9 0 min 0,000 mm 3,8 UV-I 262 W/m 12,3 C 14,5 km/h (3 Bft)
06.07.2016 14:48 18,1 C 18,1 C 67 % 1018,1 hPa 0,0 mm 6,7 km/h (2 Bft) N-NO 15 0 min 0,000 mm 3,4 UV-I 348 W/m 11,9 C 11,3 km/h (2 Bft)
06.07.2016 14:49 18,2 C 18,2 C 68 % 1018,1 hPa 0,0 mm 7,1 km/h (2 Bft) W-NW 293 0 min 0,000 mm 3,4 UV-I 348 W/m 12,2 C 11,3 km/h (2 Bft)
06.07.2016 14:50 18,2 C 18,2 C 67 % 1018,0 hPa 0,0 mm 4,8 km/h (1 Bft) NW 307 0 min 0,000 mm 6,8 UV-I 348 W/m 12,0 C 8,0 km/h (2 Bft)
06.07.2016 14:51 18,3 C 18,3 C 69 % 1018,0 hPa 0,0 mm 2,5 km/h (1 Bft) NW 315 0 min 0,000 mm 3,8 UV-I 348 W/m 12,5 C 6,4 km/h (2 Bft)
06.07.2016 14:52 18,4 C 18,4 C 68 % 1018,1 hPa 0,0 mm 3,7 km/h (1 Bft) W-NW 296 0 min 0,000 mm 2,9 UV-I 348 W/m 12,4 C 4,8 km/h (1 Bft)
06.07.2016 14:53 18,4 C 18,4 C 66 % 1018,1 hPa 0,0 mm 2,3 km/h (1 Bft) W-NW 300 0 min 0,000 mm 2,8 UV-I 223 W/m 11,9 C 4,8 km/h (1 Bft)
06.07.2016 14:54 18,3 C 18,4 C 68 % 1018,0 hPa 0,0 mm 4,3 km/h (1 Bft) NW 309 0 min 0,000 mm 2,9 UV-I 262 W/m 12,3 C 6,4 km/h (2 Bft)
06.07.2016 14:55 18,3 C 18,3 C 68 % 1018,0 hPa 0,0 mm 3,9 km/h (1 Bft) W 269 0 min 0,000 mm 3,0 UV-I 253 W/m 12,3 C 6,4 km/h (2 Bft)
06.07.2016 14:56 18,3 C 18,3 C 69 % 1018,0 hPa 0,0 mm 6,1 km/h (2 Bft) W 260 0 min 0,000 mm 3,2 UV-I 281 W/m 12,5 C 9,7 km/h (2 Bft)
06.07.2016 14:57 18,3 C 18,3 C 70 % 1018,0 hPa 0,0 mm 5,9 km/h (2 Bft) W-SW 243 0 min 0,000 mm 5,8 UV-I 281 W/m 12,7 C 8,0 km/h (2 Bft)
06.07.2016 14:58 18,5 C 18,5 C 68 % 1018,0 hPa 0,0 mm 5,2 km/h (1 Bft) W 273 1 min 0,000 mm 6,0 UV-I 559 W/m 12,5 C 6,4 km/h (2 Bft)
06.07.2016 14:59 18,7 C 18,7 C 67 % 1018,1 hPa 0,0 mm 6,7 km/h (2 Bft) N-NW 328 1 min 0,000 mm 6,8 UV-I 1014 W/m 12,4 C 9,7 km/h (2 Bft)
06.07.2016 15:00 18,9 C 18,9 C 67 % 1018,0 hPa 0,0 mm 2,6 km/h (1 Bft) W 268 1 min 0,280 mm 6,9 UV-I 1013 W/m 12,6 C 6,4 km/h (2 Bft)
06.07.2016 15:01 19,2 C 19,2 C 68 % 1018,1 hPa 0,0 mm 9,3 km/h (2 Bft) W 280 1 min 0,000 mm 6,8 UV-I 976 W/m 13,1 C 14,5 km/h (3 Bft)
06.07.2016 15:02 19,3 C 19,3 C 65 % 1018,0 hPa 0,0 mm 10,1 km/h (2 Bft) W 279 1 min 0,000 mm 6,8 UV-I 953 W/m 12,6 C 19,3 km/h (3 Bft)
06.07.2016 15:03 19,4 C 19,4 C 64 % 1018,0 hPa 0,0 mm 16,2 km/h (3 Bft) W 268 1 min 0,000 mm 6,5 UV-I 861 W/m 12,4 C 24,1 km/h (4 Bft)
06.07.2016 15:04 19,6 C 19,6 C 65 % 1017,9 hPa 0,0 mm 11,9 km/h (2 Bft) W 267 1 min 0,000 mm 5,4 UV-I 861 W/m 12,8 C 17,7 km/h (3 Bft)
06.07.2016 15:05 19,6 C 19,6 C 63 % 1018,0 hPa 0,0 mm 13,1 km/h (3 Bft) SW 233 1 min 0,000 mm 4,3 UV-I 475 W/m 12,4 C 19,3 km/h (3 Bft)
06.07.2016 15:06 19,7 C 19,7 C 67 % 1017,9 hPa 0,0 mm 10,5 km/h (2 Bft) W 266 1 min 0,000 mm 3,5 UV-I 475 W/m 13,4 C 16,1 km/h (3 Bft)
06.07.2016 15:07 19,6 C 19,7 C 62 % 1018,0 hPa 0,0 mm 12,5 km/h (3 Bft) W-SW 257 0 min 0,000 mm 5,5 UV-I 397 W/m 12,1 C 16,1 km/h (3 Bft)
06.07.2016 15:08 19,4 C 19,6 C 62 % 1018,0 hPa 0,0 mm 7,9 km/h (2 Bft) W-NW 293 0 min 0,000 mm 4,8 UV-I 397 W/m 11,9 C 16,1 km/h (3 Bft)
06.07.2016 15:09 19,4 C 19,5 C 66 % 1018,0 hPa 0,0 mm 7,0 km/h (2 Bft) W-NW 286 0 min 0,000 mm 2,6 UV-I 397 W/m 12,9 C 11,3 km/h (2 Bft)
06.07.2016 15:10 19,4 C 19,5 C 63 % 1018,0 hPa 0,0 mm 7,7 km/h (2 Bft) W-NW 297 0 min 0,000 mm 4,2 UV-I 220 W/m 12,2 C 11,3 km/h (2 Bft)
06.07.2016 15:11 19,4 C 19,4 C 65 % 1018,0 hPa 0,0 mm 5,4 km/h (1 Bft) W-NW 288 0 min 0,000 mm 2,1 UV-I 216 W/m 12,6 C 8,0 km/h (2 Bft)
06.07.2016 15:12 19,4 C 19,4 C 64 % 1018,0 hPa 0,0 mm 8,1 km/h (2 Bft) W-NW 282 0 min 0,000 mm 1,9 UV-I 218 W/m 12,4 C 12,9 km/h (3 Bft)
06.07.2016 15:13 19,3 C 19,4 C 64 % 1018,0 hPa 0,0 mm 9,7 km/h (2 Bft) W 279 0 min 0,000 mm 3,9 UV-I 295 W/m 12,3 C 14,5 km/h (3 Bft)
06.07.2016 15:14 19,1 C 19,3 C 64 % 1018,1 hPa 0,0 mm 6,8 km/h (2 Bft) W-NW 284 0 min 0,000 mm 5,1 UV-I 295 W/m 12,1 C 12,9 km/h (3 Bft)
06.07.2016 15:15 19,1 C 19,1 C 67 % 1018,0 hPa 0,0 mm 6,1 km/h (2 Bft) NW 309 0 min 0,000 mm 2,6 UV-I 295 W/m 12,8 C 11,3 km/h (2 Bft)
06.07.2016 15:16 19,1 C 19,1 C 65 % 1018,0 hPa 0,0 mm 6,5 km/h (2 Bft) N-NW 327 0 min 0,000 mm 2,7 UV-I 246 W/m 12,4 C 11,3 km/h (2 Bft)
06.07.2016 15:17 18,9 C 19,1 C 66 % 1018,0 hPa 0,0 mm 5,6 km/h (1 Bft) W-NW 300 0 min 0,000 mm 2,5 UV-I 227 W/m 12,4 C 12,9 km/h (3 Bft)
06.07.2016 15:18 18,9 C 19,0 C 66 % 1018,0 hPa 0,0 mm 10,9 km/h (2 Bft) W-NW 290 0 min 0,000 mm 2,4 UV-I 221 W/m 12,4 C 14,5 km/h (3 Bft)
06.07.2016 15:19 18,8 C 18,9 C 65 % 1018,0 hPa 0,0 mm 8,8 km/h (2 Bft) W-NW 284 0 min 0,000 mm 2,2 UV-I 218 W/m 12,1 C 14,5 km/h (3 Bft)
06.07.2016 15:20 18,8 C 18,8 C 65 % 1018,0 hPa 0,0 mm 4,4 km/h (1 Bft) NW 311 0 min 0,000 mm 2,1 UV-I 214 W/m 12,1 C 8,0 km/h (2 Bft)
06.07.2016 15:21 18,7 C 18,8 C 67 % 1018,0 hPa 0,0 mm 5,3 km/h (1 Bft) W-NW 294 0 min 0,000 mm 2,2 UV-I 230 W/m 12,4 C 6,4 km/h (2 Bft)
06.07.2016 15:22 18,7 C 18,8 C 65 % 1018,0 hPa 0,0 mm 4,2 km/h (1 Bft) NW 304 0 min 0,000 mm 2,5 UV-I 323 W/m 12,0 C 6,4 km/h (2 Bft)
06.07.2016 15:23 18,7 C 18,7 C 66 % 1018,0 hPa 0,0 mm 2,8 km/h (1 Bft) NW 311 0 min 0,000 mm 2,7 UV-I 290 W/m 12,2 C 4,8 km/h (1 Bft)
06.07.2016 15:24 18,7 C 18,7 C 68 % 1018,0 hPa 0,0 mm 3,1 km/h (1 Bft) W-NW 285 0 min 0,000 mm 2,5 UV-I 264 W/m 12,7 C 4,8 km/h (1 Bft)
06.07.2016 15:25 18,7 C 18,8 C 68 % 1018,0 hPa 0,0 mm 3,7 km/h (1 Bft) W-NW 286 0 min 0,000 mm 2,5 UV-I 246 W/m 12,7 C 6,4 km/h (2 Bft)
06.07.2016 15:26 18,8 C 18,8 C 66 % 1018,0 hPa 0,0 mm 5,4 km/h (1 Bft) W-SW 247 0 min 0,000 mm 2,4 UV-I 244 W/m 12,3 C 11,3 km/h (2 Bft)
06.07.2016 15:27 18,8 C 18,8 C 63 % 1018,0 hPa 0,0 mm 8,9 km/h (2 Bft) W-NW 294 0 min 0,000 mm 2,4 UV-I 239 W/m 11,6 C 12,9 km/h (3 Bft)
06.07.2016 15:28 18,7 C 18,8 C 63 % 1018,0 hPa 0,0 mm 9,4 km/h (2 Bft) NW 308 0 min 0,000 mm 2,2 UV-I 216 W/m 11,5 C 12,9 km/h (3 Bft)
06.07.2016 15:29 18,7 C 18,7 C 65 % 1018,0 hPa 0,0 mm 7,8 km/h (2 Bft) N-NW 327 0 min 0,000 mm 2,1 UV-I 225 W/m 12,0 C 12,9 km/h (3 Bft)
06.07.2016 15:30 18,7 C 18,7 C 66 % 1018,0 hPa 0,0 mm 8,7 km/h (2 Bft) NW 307 0 min 0,000 mm 2,2 UV-I 253 W/m 12,2 C 12,9 km/h (3 Bft)
06.07.2016 15:31 18,6 C 18,7 C 66 % 1018,0 hPa 0,0 mm 8,0 km/h (2 Bft) N-NW 331 0 min 0,000 mm 2,4 UV-I 287 W/m 12,1 C 11,3 km/h (2 Bft)
06.07.2016 15:32 18,6 C 18,7 C 67 % 1018,0 hPa 0,0 mm 6,4 km/h (2 Bft) W-NW 296 0 min 0,000 mm 2,5 UV-I 295 W/m 12,3 C 11,3 km/h (2 Bft)
06.07.2016 15:33 18,6 C 18,6 C 68 % 1018,0 hPa 0,0 mm 4,2 km/h (1 Bft) W 275 0 min 0,000 mm 2,5 UV-I 279 W/m 12,6 C 6,4 km/h (2 Bft)
06.07.2016 15:34 18,6 C 18,6 C 67 % 1018,0 hPa 0,0 mm 7,9 km/h (2 Bft) N-NW 333 0 min 0,000 mm 2,7 UV-I 281 W/m 12,3 C 12,9 km/h (3 Bft)
06.07.2016 15:35 18,6 C 18,6 C 66 % 1018,0 hPa 0,0 mm 6,6 km/h (2 Bft) W-NW 296 0 min 0,000 mm 5,0 UV-I 281 W/m 12,1 C 11,3 km/h (2 Bft)
06.07.2016 15:36 18,6 C 18,7 C 67 % 1018,0 hPa 0,0 mm 5,8 km/h (2 Bft) W-NW 284 0 min 0,000 mm 4,0 UV-I 281 W/m 12,3 C 8,0 km/h (2 Bft)
06.07.2016 15:37 18,7 C 18,7 C 67 % 1018,0 hPa 0,0 mm 5,0 km/h (1 Bft) W-NW 302 0 min 0,000 mm 3,6 UV-I 362 W/m 12,4 C 11,3 km/h (2 Bft)
06.07.2016 15:38 18,8 C 18,8 C 67 % 1018,0 hPa 0,0 mm 4,8 km/h (1 Bft) W-NW 283 0 min 0,000 mm 3,6 UV-I 327 W/m 12,5 C 11,3 km/h (2 Bft)
06.07.2016 15:39 18,8 C 18,8 C 68 % 1018,0 hPa 0,0 mm 6,8 km/h (2 Bft) N-NW 327 0 min 0,000 mm 5,3 UV-I 327 W/m 12,8 C 14,5 km/h (3 Bft)
06.07.2016 15:40 18,9 C 18,9 C 66 % 1017,9 hPa 0,0 mm 5,8 km/h (2 Bft) N 5 1 min 0,000 mm 5,5 UV-I 782 W/m 12,4 C 9,7 km/h (2 Bft)
06.07.2016 15:41 19,1 C 19,1 C 66 % 1018,0 hPa 0,0 mm 8,6 km/h (2 Bft) N-NO 23 1 min 0,000 mm 5,4 UV-I 782 W/m 12,6 C 16,1 km/h (3 Bft)
06.07.2016 15:42 19,1 C 19,1 C 64 % 1017,9 hPa 0,0 mm 4,0 km/h (1 Bft) N-NO 20 1 min 0,000 mm 5,4 UV-I 782 W/m 12,1 C 6,4 km/h (2 Bft)
06.07.2016 15:43 19,4 C 19,4 C 71 % 1017,9 hPa 0,0 mm 4,6 km/h (1 Bft) W-NW 283 1 min 0,000 mm 5,0 UV-I 782 W/m 14,0 C 9,7 km/h (2 Bft)
06.07.2016 15:44 19,5 C 19,5 C 64 % 1017,9 hPa 0,0 mm 10,4 km/h (2 Bft) W-NW 283 1 min 0,000 mm 5,4 UV-I 782 W/m 12,5 C 14,5 km/h (3 Bft)
06.07.2016 15:45 19,6 C 19,6 C 63 % 1017,9 hPa 0,0 mm 10,9 km/h (2 Bft) W-NW 293 1 min 0,000 mm 5,5 UV-I 791 W/m 12,4 C 14,5 km/h (3 Bft)
06.07.2016 15:46 19,5 C 19,6 C 64 % 1018,0 hPa 0,0 mm 7,2 km/h (2 Bft) W-NW 284 1 min 0,000 mm 5,2 UV-I 763 W/m 12,5 C 14,5 km/h (3 Bft)
06.07.2016 15:47 19,4 C 19,5 C 63 % 1018,0 hPa 0,0 mm 2,2 km/h (1 Bft) W-SW 251 1 min 0,000 mm 3,4 UV-I 763 W/m 12,2 C 4,8 km/h (1 Bft)
06.07.2016 15:48 19,3 C 19,4 C 64 % 1017,9 hPa 0,0 mm 1,0 km/h (0 Bft) N-NW 341 0 min 0,000 mm 3,4 UV-I 313 W/m 12,3 C 3,2 km/h (1 Bft)
06.07.2016 15:49 19,3 C 19,3 C 65 % 1017,9 hPa 0,0 mm 2,4 km/h (1 Bft) N-NO 16 0 min 0,000 mm 3,1 UV-I 313 W/m 12,6 C 4,8 km/h (1 Bft)
06.07.2016 15:50 19,3 C 19,3 C 65 % 1017,9 hPa 0,0 mm 5,6 km/h (1 Bft) N-NW 339 0 min 0,000 mm 3,2 UV-I 394 W/m 12,6 C 8,0 km/h (2 Bft)
06.07.2016 15:51 19,4 C 19,4 C 63 % 1017,9 hPa 0,0 mm 1,6 km/h (1 Bft) SW 221 0 min 0,000 mm 4,6 UV-I 329 W/m 12,2 C 3,2 km/h (1 Bft)
06.07.2016 15:52 19,3 C 19,4 C 64 % 1017,9 hPa 0,0 mm 5,2 km/h (1 Bft) W-SW 256 0 min 0,000 mm 3,0 UV-I 269 W/m 12,3 C 11,3 km/h (2 Bft)
06.07.2016 15:53 19,2 C 19,3 C 65 % 1017,8 hPa 0,0 mm 3,1 km/h (1 Bft) W 275 0 min 0,000 mm 3,1 UV-I 327 W/m 12,5 C 4,8 km/h (1 Bft)
06.07.2016 15:54 19,1 C 19,2 C 64 % 1017,9 hPa 0,0 mm 3,5 km/h (1 Bft) NW 312 0 min 0,000 mm 3,1 UV-I 295 W/m 12,1 C 6,4 km/h (2 Bft)
06.07.2016 15:55 19,2 C 19,2 C 66 % 1017,8 hPa 0,0 mm 6,0 km/h (2 Bft) N 360 0 min 0,000 mm 4,2 UV-I 295 W/m 12,7 C 8,0 km/h (2 Bft)
06.07.2016 15:56 19,3 C 19,3 C 65 % 1017,8 hPa 0,0 mm 6,5 km/h (2 Bft) W-NW 297 0 min 0,000 mm 4,7 UV-I 295 W/m 12,6 C 12,9 km/h (3 Bft)
06.07.2016 15:57 19,4 C 19,4 C 66 % 1017,9 hPa 0,0 mm 10,5 km/h (2 Bft) NW 312 0 min 0,000 mm 3,0 UV-I 390 W/m 12,9 C 14,5 km/h (3 Bft)
06.07.2016 15:58 19,6 C 19,6 C 65 % 1017,9 hPa 0,0 mm 7,2 km/h (2 Bft) W-NW 302 0 min 0,000 mm 3,3 UV-I 374 W/m 12,8 C 11,3 km/h (2 Bft)
06.07.2016 15:59 19,7 C 19,7 C 67 % 1017,9 hPa 0,0 mm 6,7 km/h (2 Bft) W-NW 283 0 min 0,000 mm 4,4 UV-I 374 W/m 13,4 C 11,3 km/h (2 Bft)
06.07.2016 16:00 19,7 C 19,7 C 66 % 1017,8 hPa 0,0 mm 8,4 km/h (2 Bft) W 277 0 min 0,000 mm 3,2 UV-I 374 W/m 13,2 C 11,3 km/h (2 Bft)
06.07.2016 16:01 19,7 C 19,8 C 62 % 1017,9 hPa 0,0 mm 7,5 km/h (2 Bft) W 273 0 min 0,279 mm 4,6 UV-I 374 W/m 12,2 C 12,9 km/h (3 Bft)
06.07.2016 16:02 19,6 C 19,7 C 64 % 1017,8 hPa 0,0 mm 8,0 km/h (2 Bft) N-NW 334 0 min 0,000 mm 4,8 UV-I 374 W/m 12,6 C 11,3 km/h (2 Bft)
06.07.2016 16:03 19,6 C 19,6 C 67 % 1017,9 hPa 0,0 mm 14,5 km/h (3 Bft) NW 304 1 min 0,000 mm 4,6 UV-I 752 W/m 13,3 C 22,5 km/h (4 Bft)
06.07.2016 16:04 19,5 C 19,6 C 64 % 1017,9 hPa 0,0 mm 7,7 km/h (2 Bft) W-NW 296 1 min 0,000 mm 3,7 UV-I 752 W/m 12,5 C 12,9 km/h (3 Bft)
06.07.2016 16:05 19,4 C 19,5 C 65 % 1017,9 hPa 0,0 mm 8,9 km/h (2 Bft) W-NW 302 0 min 0,000 mm 3,0 UV-I 294 W/m 12,6 C 14,5 km/h (3 Bft)
06.07.2016 16:06 19,4 C 19,4 C 63 % 1017,9 hPa 0,0 mm 8,9 km/h (2 Bft) W-NW 291 0 min 0,000 mm 2,8 UV-I 250 W/m 12,2 C 12,9 km/h (3 Bft)
06.07.2016 16:07 19,3 C 19,4 C 66 % 1017,9 hPa 0,0 mm 6,7 km/h (2 Bft) W 259 0 min 0,000 mm 2,7 UV-I 248 W/m 12,8 C 11,3 km/h (2 Bft)
06.07.2016 16:08 19,2 C 19,3 C 66 % 1018,0 hPa 0,0 mm 8,5 km/h (2 Bft) W 281 0 min 0,000 mm 2,7 UV-I 251 W/m 12,7 C 11,3 km/h (2 Bft)
06.07.2016 16:09 19,1 C 19,2 C 64 % 1018,0 hPa 0,0 mm 4,5 km/h (1 Bft) SW 224 0 min 0,000 mm 2,9 UV-I 323 W/m 12,1 C 6,4 km/h (2 Bft)
06.07.2016 16:10 19,0 C 19,1 C 65 % 1018,0 hPa 0,0 mm 4,6 km/h (1 Bft) W-NW 303 0 min 0,000 mm 2,9 UV-I 278 W/m 12,3 C 6,4 km/h (2 Bft)
06.07.2016 16:11 19,0 C 19,0 C 68 % 1018,0 hPa 0,0 mm 2,9 km/h (1 Bft) W-NW 303 0 min 0,000 mm 3,2 UV-I 278 W/m 13,0 C 4,8 km/h (1 Bft)
06.07.2016 16:12 19,1 C 19,1 C 68 % 1017,9 hPa 0,0 mm 5,1 km/h (1 Bft) N-NW 342 0 min 0,000 mm 4,2 UV-I 278 W/m 13,1 C 11,3 km/h (2 Bft)
06.07.2016 16:13 19,1 C 19,1 C 68 % 1017,9 hPa 0,0 mm 6,3 km/h (2 Bft) N 355 0 min 0,000 mm 3,6 UV-I 278 W/m 13,1 C 11,3 km/h (2 Bft)
06.07.2016 16:14 19,3 C 19,3 C 66 % 1017,8 hPa 0,0 mm 8,5 km/h (2 Bft) W-NW 296 0 min 0,000 mm 3,7 UV-I 383 W/m 12,8 C 12,9 km/h (3 Bft)
06.07.2016 16:15 19,3 C 19,3 C 66 % 1017,9 hPa 0,0 mm 5,8 km/h (2 Bft) N-NW 329 0 min 0,000 mm 2,8 UV-I 218 W/m 12,8 C 12,9 km/h (3 Bft)
06.07.2016 16:16 19,3 C 19,3 C 66 % 1017,8 hPa 0,0 mm 3,4 km/h (1 Bft) SW 236 0 min 0,000 mm 2,7 UV-I 227 W/m 12,8 C 4,8 km/h (1 Bft)
06.07.2016 16:17 19,2 C 19,3 C 65 % 1017,9 hPa 0,0 mm 3,4 km/h (1 Bft) W 277 0 min 0,000 mm 2,8 UV-I 237 W/m 12,5 C 4,8 km/h (1 Bft)
06.07.2016 16:18 19,2 C 19,2 C 64 % 1017,9 hPa 0,0 mm 4,5 km/h (1 Bft) W-NW 295 0 min 0,000 mm 3,0 UV-I 294 W/m 12,2 C 6,4 km/h (2 Bft)
06.07.2016 16:19 19,1 C 19,2 C 66 % 1017,8 hPa 0,0 mm 3,4 km/h (1 Bft) W-NW 296 0 min 0,000 mm 3,0 UV-I 276 W/m 12,6 C 4,8 km/h (1 Bft)
06.07.2016 16:20 19,2 C 19,2 C 66 % 1017,8 hPa 0,0 mm 4,9 km/h (1 Bft) NW 312 0 min 0,000 mm 3,0 UV-I 276 W/m 12,7 C 11,3 km/h (2 Bft)
06.07.2016 16:21 19,2 C 19,2 C 66 % 1017,8 hPa 0,0 mm 4,2 km/h (1 Bft) N-NO 13 0 min 0,000 mm 2,9 UV-I 232 W/m 12,7 C 6,4 km/h (2 Bft)
06.07.2016 16:22 19,2 C 19,2 C 67 % 1017,8 hPa 0,0 mm 7,1 km/h (2 Bft) N-NW 328 0 min 0,000 mm 2,8 UV-I 239 W/m 12,9 C 9,7 km/h (2 Bft)
06.07.2016 16:23 19,3 C 19,3 C 65 % 1017,8 hPa 0,0 mm 4,5 km/h (1 Bft) N-NW 347 0 min 0,000 mm 2,8 UV-I 241 W/m 12,6 C 6,4 km/h (2 Bft)
06.07.2016 16:24 19,3 C 19,3 C 62 % 1017,7 hPa 0,0 mm 3,8 km/h (1 Bft) NW 319 0 min 0,000 mm 2,6 UV-I 218 W/m 11,8 C 6,4 km/h (2 Bft)
06.07.2016 16:25 19,2 C 19,3 C 62 % 1017,7 hPa 0,0 mm 1,5 km/h (1 Bft) NW 319 0 min 0,000 mm 2,3 UV-I 204 W/m 11,7 C 3,2 km/h (1 Bft)
06.07.2016 16:26 19,1 C 19,2 C 65 % 1017,7 hPa 0,0 mm 1,3 km/h (1 Bft) NW 318 0 min 0,000 mm 2,1 UV-I 190 W/m 12,4 C 3,2 km/h (1 Bft)
06.07.2016 16:27 18,9 C 19,1 C 63 % 1017,7 hPa 0,0 mm 0,3 km/h (0 Bft) NW 318 0 min 0,000 mm 2,0 UV-I 197 W/m 11,7 C 1,6 km/h (1 Bft)
06.07.2016 16:28 18,8 C 18,9 C 63 % 1017,7 hPa 0,0 mm 1,6 km/h (1 Bft) W-SW 244 0 min 0,000 mm 1,9 UV-I 200 W/m 11,6 C 4,8 km/h (1 Bft)
06.07.2016 16:29 18,8 C 18,8 C 67 % 1017,7 hPa 0,0 mm 4,8 km/h (1 Bft) S 187 0 min 0,000 mm 1,8 UV-I 207 W/m 12,5 C 6,4 km/h (2 Bft)
06.07.2016 16:30 18,8 C 18,8 C 68 % 1017,6 hPa 0,0 mm 2,1 km/h (1 Bft) S-SW 209 0 min 0,000 mm 1,8 UV-I 209 W/m 12,8 C 4,8 km/h (1 Bft)
06.07.2016 16:31 18,8 C 18,8 C 66 % 1017,7 hPa 0,0 mm 3,1 km/h (1 Bft) NW 310 0 min 0,000 mm 1,7 UV-I 197 W/m 12,3 C 4,8 km/h (1 Bft)
06.07.2016 16:32 18,9 C 18,9 C 65 % 1017,7 hPa 0,0 mm 8,0 km/h (2 Bft) NW 312 0 min 0,000 mm 1,6 UV-I 181 W/m 12,2 C 14,5 km/h (3 Bft)
06.07.2016 16:33 19,0 C 19,0 C 67 % 1017,8 hPa 0,0 mm 7,8 km/h (2 Bft) N 351 0 min 0,000 mm 1,5 UV-I 176 W/m 12,7 C 16,1 km/h (3 Bft)
06.07.2016 16:34 19,0 C 19,0 C 65 % 1017,8 hPa 0,0 mm 7,4 km/h (2 Bft) W-NW 298 0 min 0,000 mm 1,4 UV-I 165 W/m 12,3 C 11,3 km/h (2 Bft)
06.07.2016 16:35 19,0 C 19,0 C 66 % 1017,8 hPa 0,0 mm 8,9 km/h (2 Bft) W-NW 299 0 min 0,000 mm 1,4 UV-I 165 W/m 12,5 C 12,9 km/h (3 Bft)
06.07.2016 16:36 19,0 C 19,0 C 66 % 1017,8 hPa 0,0 mm 8,0 km/h (2 Bft) W-NW 284 0 min 0,000 mm 1,5 UV-I 176 W/m 12,5 C 12,9 km/h (3 Bft)
06.07.2016 16:37 18,9 C 19,0 C 66 % 1017,8 hPa 0,0 mm 7,3 km/h (2 Bft) NW 323 0 min 0,000 mm 1,5 UV-I 195 W/m 12,4 C 11,3 km/h (2 Bft)
06.07.2016 16:38 18,8 C 18,9 C 65 % 1017,8 hPa 0,0 mm 6,2 km/h (2 Bft) NW 326 0 min 0,000 mm 1,5 UV-I 209 W/m 12,1 C 8,0 km/h (2 Bft)
06.07.2016 16:39 18,8 C 18,8 C 65 % 1017,8 hPa 0,0 mm 5,1 km/h (1 Bft) NW 312 0 min 0,000 mm 1,7 UV-I 229 W/m 12,1 C 8,0 km/h (2 Bft)
06.07.2016 16:40 18,8 C 18,8 C 66 % 1017,8 hPa 0,0 mm 6,6 km/h (2 Bft) NW 321 0 min 0,000 mm 1,8 UV-I 246 W/m 12,3 C 9,7 km/h (2 Bft)
06.07.2016 16:41 18,7 C 18,8 C 67 % 1017,8 hPa 0,0 mm 5,5 km/h (1 Bft) W 281 0 min 0,000 mm 1,9 UV-I 253 W/m 12,4 C 11,3 km/h (2 Bft)
06.07.2016 16:42 18,7 C 18,7 C 66 % 1017,8 hPa 0,0 mm 6,4 km/h (2 Bft) W-NW 288 0 min 0,000 mm 2,0 UV-I 251 W/m 12,2 C 9,7 km/h (2 Bft)
06.07.2016 16:43 18,7 C 18,7 C 66 % 1017,7 hPa 0,0 mm 3,7 km/h (1 Bft) W-NW 294 0 min 0,000 mm 2,0 UV-I 239 W/m 12,2 C 6,4 km/h (2 Bft)
06.07.2016 16:44 18,7 C 18,7 C 65 % 1017,7 hPa 0,0 mm 3,4 km/h (1 Bft) NW 313 0 min 0,000 mm 2,1 UV-I 283 W/m 12,0 C 4,8 km/h (1 Bft)
06.07.2016 16:45 18,7 C 18,7 C 66 % 1017,7 hPa 0,0 mm 3,6 km/h (1 Bft) W-SW 257 0 min 0,000 mm 2,5 UV-I 304 W/m 12,2 C 6,4 km/h (2 Bft)
06.07.2016 16:46 18,8 C 18,8 C 63 % 1017,7 hPa 0,0 mm 8,0 km/h (2 Bft) W 275 0 min 0,000 mm 2,6 UV-I 295 W/m 11,6 C 11,3 km/h (2 Bft)
06.07.2016 16:47 18,8 C 18,8 C 64 % 1017,7 hPa 0,0 mm 6,3 km/h (2 Bft) W-NW 295 0 min 0,000 mm 2,6 UV-I 276 W/m 11,8 C 11,3 km/h (2 Bft)
06.07.2016 16:48 18,9 C 18,9 C 66 % 1017,7 hPa 0,0 mm 3,6 km/h (1 Bft) W-NW 289 0 min 0,000 mm 2,5 UV-I 265 W/m 12,4 C 4,8 km/h (1 Bft)
06.07.2016 16:49 19,0 C 19,0 C 65 % 1017,7 hPa 0,0 mm 6,4 km/h (2 Bft) W-NW 286 0 min 0,000 mm 2,5 UV-I 257 W/m 12,3 C 9,7 km/h (2 Bft)
06.07.2016 16:50 19,1 C 19,1 C 65 % 1017,7 hPa 0,0 mm 4,7 km/h (1 Bft) W-NW 298 0 min 0,000 mm 2,5 UV-I 255 W/m 12,4 C 6,4 km/h (2 Bft)
06.07.2016 16:51 19,1 C 19,1 C 65 % 1017,6 hPa 0,0 mm 3,9 km/h (1 Bft) W-NW 288 0 min 0,000 mm 2,5 UV-I 251 W/m 12,4 C 6,4 km/h (2 Bft)
06.07.2016 16:52 19,2 C 19,2 C 65 % 1017,7 hPa 0,0 mm 4,1 km/h (1 Bft) NW 308 0 min 0,000 mm 2,5 UV-I 251 W/m 12,5 C 6,4 km/h (2 Bft)
06.07.2016 16:53 19,2 C 19,2 C 65 % 1017,6 hPa 0,0 mm 6,2 km/h (2 Bft) NW 317 0 min 0,000 mm 2,5 UV-I 250 W/m 12,5 C 9,7 km/h (2 Bft)
06.07.2016 16:54 19,3 C 19,3 C 68 % 1017,7 hPa 0,0 mm 7,2 km/h (2 Bft) N-NO 13 0 min 0,000 mm 2,5 UV-I 250 W/m 13,2 C 14,5 km/h (3 Bft)
06.07.2016 16:55 19,4 C 19,4 C 63 % 1017,7 hPa 0,0 mm 12,9 km/h (3 Bft) N 360 0 min 0,000 mm 2,4 UV-I 248 W/m 12,2 C 19,3 km/h (3 Bft)
06.07.2016 16:56 19,3 C 19,4 C 63 % 1017,7 hPa 0,0 mm 8,7 km/h (2 Bft) N-NO 13 0 min 0,000 mm 2,3 UV-I 236 W/m 12,1 C 16,1 km/h (3 Bft)
06.07.2016 16:57 19,2 C 19,3 C 63 % 1017,7 hPa 0,0 mm 8,9 km/h (2 Bft) N 355 0 min 0,000 mm 2,1 UV-I 243 W/m 12,0 C 16,1 km/h (3 Bft)
06.07.2016 16:58 19,1 C 19,2 C 64 % 1017,7 hPa 0,0 mm 7,3 km/h (2 Bft) NW 308 0 min 0,000 mm 2,1 UV-I 253 W/m 12,1 C 12,9 km/h (3 Bft)
06.07.2016 16:59 19,1 C 19,1 C 63 % 1017,6 hPa 0,0 mm 7,3 km/h (2 Bft) N-NO 17 0 min 0,000 mm 2,0 UV-I 248 W/m 11,9 C 12,9 km/h (3 Bft)
06.07.2016 17:00 18,9 C 19,1 C 63 % 1017,6 hPa 0,0 mm 8,8 km/h (2 Bft) N-NO 17 0 min 0,000 mm 1,8 UV-I 220 W/m 11,7 C 14,5 km/h (3 Bft)
06.07.2016 17:01 18,8 C 18,9 C 65 % 1017,7 hPa 0,0 mm 10,4 km/h (2 Bft) N-NO 24 0 min 0,178 mm 1,7 UV-I 192 W/m 12,1 C 16,1 km/h (3 Bft)
06.07.2016 17:02 18,8 C 18,8 C 64 % 1017,7 hPa 0,0 mm 6,8 km/h (2 Bft) N-NW 327 0 min 0,000 mm 1,6 UV-I 179 W/m 11,8 C 9,7 km/h (2 Bft)
06.07.2016 17:03 18,7 C 18,8 C 66 % 1017,7 hPa 0,0 mm 7,2 km/h (2 Bft) NW 315 0 min 0,000 mm 1,6 UV-I 188 W/m 12,2 C 11,3 km/h (2 Bft)
06.07.2016 17:04 18,7 C 18,7 C 67 % 1017,7 hPa 0,0 mm 8,1 km/h (2 Bft) NW 321 0 min 0,000 mm 1,6 UV-I 186 W/m 12,4 C 14,5 km/h (3 Bft)
06.07.2016 17:05 18,6 C 18,7 C 66 % 1017,7 hPa 0,0 mm 10,2 km/h (2 Bft) NW 315 0 min 0,000 mm 1,5 UV-I 171 W/m 12,1 C 16,1 km/h (3 Bft)
06.07.2016 17:06 18,6 C 18,6 C 66 % 1017,7 hPa 0,0 mm 4,6 km/h (1 Bft) W-NW 301 0 min 0,000 mm 1,4 UV-I 156 W/m 12,1 C 9,7 km/h (2 Bft)
06.07.2016 17:07 18,5 C 18,6 C 67 % 1017,7 hPa 0,0 mm 4,0 km/h (1 Bft) N-NO 15 0 min 0,000 mm 1,3 UV-I 165 W/m 12,3 C 6,4 km/h (2 Bft)
06.07.2016 17:08 18,5 C 18,5 C 68 % 1017,7 hPa 0,0 mm 6,3 km/h (2 Bft) N-NW 327 0 min 0,000 mm 1,3 UV-I 192 W/m 12,5 C 9,7 km/h (2 Bft)
06.07.2016 17:09 18,6 C 18,6 C 67 % 1017,7 hPa 0,0 mm 6,6 km/h (2 Bft) N 355 0 min 0,000 mm 1,5 UV-I 200 W/m 12,3 C 9,7 km/h (2 Bft)
06.07.2016 17:10 18,6 C 18,6 C 65 % 1017,7 hPa 0,0 mm 5,2 km/h (1 Bft) N-NO 22 0 min 0,000 mm 1,5 UV-I 185 W/m 11,9 C 6,4 km/h (2 Bft)
06.07.2016 17:11 18,6 C 18,6 C 66 % 1017,7 hPa 0,0 mm 8,4 km/h (2 Bft) N 5 0 min 0,000 mm 1,4 UV-I 169 W/m 12,1 C 14,5 km/h (3 Bft)
06.07.2016 17:12 18,5 C 18,6 C 65 % 1017,7 hPa 0,0 mm 8,9 km/h (2 Bft) N-NW 330 0 min 0,000 mm 1,4 UV-I 171 W/m 11,8 C 12,9 km/h (3 Bft)
06.07.2016 17:13 18,5 C 18,5 C 66 % 1017,7 hPa 0,0 mm 5,4 km/h (1 Bft) NW 325 0 min 0,000 mm 1,3 UV-I 162 W/m 12,0 C 9,7 km/h (2 Bft)
06.07.2016 17:14 18,4 C 18,5 C 66 % 1017,7 hPa 0,0 mm 2,5 km/h (1 Bft) NW 324 0 min 0,000 mm 1,1 UV-I 148 W/m 11,9 C 6,4 km/h (2 Bft)
06.07.2016 17:15 18,4 C 18,4 C 67 % 1017,7 hPa 0,0 mm 5,3 km/h (1 Bft) N-NW 332 0 min 0,000 mm 1,0 UV-I 137 W/m 12,2 C 6,4 km/h (2 Bft)
06.07.2016 17:16 18,4 C 18,4 C 67 % 1017,7 hPa 0,0 mm 6,4 km/h (2 Bft) NW 315 0 min 0,000 mm 1,0 UV-I 130 W/m 12,2 C 8,0 km/h (2 Bft)
06.07.2016 17:17 18,4 C 18,4 C 66 % 1017,8 hPa 0,0 mm 3,2 km/h (1 Bft) N-NW 328 0 min 0,000 mm 1,0 UV-I 130 W/m 11,9 C 6,4 km/h (2 Bft)
06.07.2016 17:18 18,4 C 18,4 C 66 % 1017,8 hPa 0,0 mm 4,6 km/h (1 Bft) W-NW 291 0 min 0,000 mm 1,0 UV-I 132 W/m 11,9 C 6,4 km/h (2 Bft)
06.07.2016 17:19 18,4 C 18,4 C 65 % 1017,8 hPa 0,0 mm 5,2 km/h (1 Bft) N-NO 24 0 min 0,000 mm 1,0 UV-I 135 W/m 11,7 C 8,0 km/h (2 Bft)
06.07.2016 17:20 18,4 C 18,4 C 66 % 1017,8 hPa 0,0 mm 5,3 km/h (1 Bft) W-NW 297 0 min 0,000 mm 1,1 UV-I 135 W/m 11,9 C 8,0 km/h (2 Bft)
06.07.2016 17:21 18,3 C 18,4 C 66 % 1017,8 hPa 0,0 mm 2,9 km/h (1 Bft) N 355 0 min 0,000 mm 1,2 UV-I 149 W/m 11,8 C 6,4 km/h (2 Bft)
06.07.2016 17:22 18,3 C 18,3 C 67 % 1017,8 hPa 0,0 mm 5,6 km/h (1 Bft) NO 35 0 min 0,000 mm 1,3 UV-I 167 W/m 12,1 C 8,0 km/h (2 Bft)
06.07.2016 17:23 18,3 C 18,3 C 64 % 1017,8 hPa 0,0 mm 5,9 km/h (2 Bft) N 355 0 min 0,000 mm 1,4 UV-I 186 W/m 11,4 C 8,0 km/h (2 Bft)
06.07.2016 17:24 18,3 C 18,3 C 65 % 1017,8 hPa 0,0 mm 6,6 km/h (2 Bft) NO 46 0 min 0,000 mm 1,6 UV-I 202 W/m 11,6 C 11,3 km/h (2 Bft)
06.07.2016 17:25 18,3 C 18,3 C 65 % 1017,8 hPa 0,0 mm 4,2 km/h (1 Bft) N 355 0 min 0,000 mm 1,6 UV-I 186 W/m 11,6 C 6,4 km/h (2 Bft)
06.07.2016 17:26 18,3 C 18,3 C 67 % 1017,7 hPa 0,0 mm 4,0 km/h (1 Bft) N 360 0 min 0,000 mm 1,6 UV-I 188 W/m 12,1 C 8,0 km/h (2 Bft)
06.07.2016 17:27 18,3 C 18,3 C 66 % 1017,7 hPa 0,0 mm 4,7 km/h (1 Bft) O-NO 65 0 min 0,000 mm 1,6 UV-I 188 W/m 11,8 C 8,0 km/h (2 Bft)
06.07.2016 17:29 18,3 C 18,3 C 66 % 1017,8 hPa 0,0 mm 5,8 km/h (2 Bft) NO 52 0 min 0,000 mm 1,6 UV-I 195 W/m 11,8 C 11,3 km/h (2 Bft)
06.07.2016 17:30 18,3 C 18,3 C 66 % 1017,8 hPa 0,0 mm 5,1 km/h (1 Bft) N 360 0 min 0,000 mm 1,7 UV-I 199 W/m 11,8 C 6,4 km/h (2 Bft)
06.07.2016 17:31 18,3 C 18,3 C 66 % 1017,8 hPa 0,0 mm 3,2 km/h (1 Bft) NW 325 0 min 0,000 mm 1,6 UV-I 188 W/m 11,8 C 4,8 km/h (1 Bft)
06.07.2016 17:32 18,3 C 18,3 C 66 % 1017,8 hPa 0,0 mm 4,6 km/h (1 Bft) NO 42 0 min 0,000 mm 1,5 UV-I 179 W/m 11,8 C 6,4 km/h (2 Bft)
06.07.2016 17:33 18,3 C 18,3 C 64 % 1017,7 hPa 0,0 mm 3,4 km/h (1 Bft) NO 36 0 min 0,000 mm 1,5 UV-I 185 W/m 11,4 C 4,8 km/h (1 Bft)
06.07.2016 17:34 18,3 C 18,3 C 66 % 1017,8 hPa 0,0 mm 2,3 km/h (1 Bft) NO 40 0 min 0,000 mm 1,6 UV-I 195 W/m 11,8 C 6,4 km/h (2 Bft)
06.07.2016 17:35 18,2 C 18,3 C 67 % 1017,8 hPa 0,0 mm 1,1 km/h (1 Bft) N-NO 33 0 min 0,000 mm 1,5 UV-I 192 W/m 12,0 C 3,2 km/h (1 Bft)
06.07.2016 17:36 18,3 C 18,3 C 66 % 1017,8 hPa 0,0 mm 4,2 km/h (1 Bft) N 355 0 min 0,000 mm 1,5 UV-I 178 W/m 11,8 C 6,4 km/h (2 Bft)
06.07.2016 17:37 18,4 C 18,4 C 67 % 1017,8 hPa 0,0 mm 2,3 km/h (1 Bft) O-NO 61 0 min 0,000 mm 1,4 UV-I 179 W/m 12,2 C 4,8 km/h (1 Bft)
06.07.2016 17:38 18,4 C 18,4 C 66 % 1017,8 hPa 0,0 mm 1,9 km/h (1 Bft) NO 53 0 min 0,000 mm 1,4 UV-I 190 W/m 11,9 C 4,8 km/h (1 Bft)
06.07.2016 17:39 18,4 C 18,4 C 66 % 1017,8 hPa 0,0 mm 4,8 km/h (1 Bft) NW 311 0 min 0,000 mm 1,4 UV-I 190 W/m 11,9 C 8,0 km/h (2 Bft)
06.07.2016 17:40 18,4 C 18,4 C 65 % 1017,8 hPa 0,0 mm 5,0 km/h (1 Bft) NW 316 0 min 0,000 mm 1,4 UV-I 186 W/m 11,7 C 6,4 km/h (2 Bft)
06.07.2016 17:41 18,4 C 18,4 C 67 % 1017,9 hPa 0,0 mm 2,8 km/h (1 Bft) N-NW 329 0 min 0,000 mm 1,4 UV-I 181 W/m 12,2 C 6,4 km/h (2 Bft)
06.07.2016 17:42 18,4 C 18,4 C 68 % 1017,8 hPa 0,0 mm 3,0 km/h (1 Bft) N-NO 19 0 min 0,000 mm 1,3 UV-I 162 W/m 12,4 C 6,4 km/h (2 Bft)
06.07.2016 17:43 18,5 C 18,5 C 66 % 1017,8 hPa 0,0 mm 4,8 km/h (1 Bft) NO 38 0 min 0,000 mm 1,3 UV-I 156 W/m 12,0 C 8,0 km/h (2 Bft)
06.07.2016 17:44 18,5 C 18,6 C 66 % 1017,8 hPa 0,0 mm 6,2 km/h (2 Bft) N-NO 27 0 min 0,000 mm 1,2 UV-I 153 W/m 12,0 C 11,3 km/h (2 Bft)
06.07.2016 17:45 18,6 C 18,6 C 64 % 1017,8 hPa 0,0 mm 4,5 km/h (1 Bft) N 355 0 min 0,000 mm 1,2 UV-I 149 W/m 11,7 C 6,4 km/h (2 Bft)
06.07.2016 17:46 18,6 C 18,6 C 65 % 1017,8 hPa 0,0 mm 5,5 km/h (1 Bft) N-NW 337 0 min 0,000 mm 1,1 UV-I 146 W/m 11,9 C 8,0 km/h (2 Bft)
06.07.2016 17:47 18,6 C 18,6 C 68 % 1017,7 hPa 0,0 mm 4,3 km/h (1 Bft) N 360 0 min 0,000 mm 1,0 UV-I 137 W/m 12,6 C 8,0 km/h (2 Bft)
06.07.2016 17:48 18,5 C 18,6 C 64 % 1017,8 hPa 0,0 mm 6,7 km/h (2 Bft) N-NO 23 0 min 0,000 mm 0,9 UV-I 137 W/m 11,6 C 9,7 km/h (2 Bft)
06.07.2016 17:49 18,4 C 18,5 C 64 % 1017,8 hPa 0,0 mm 7,6 km/h (2 Bft) N 349 0 min 0,000 mm 0,9 UV-I 146 W/m 11,5 C 12,9 km/h (3 Bft)
06.07.2016 17:50 18,4 C 18,4 C 64 % 1017,8 hPa 0,0 mm 3,3 km/h (1 Bft) N 355 0 min 0,000 mm 1,0 UV-I 155 W/m 11,5 C 6,4 km/h (2 Bft)
06.07.2016 17:51 18,3 C 18,4 C 64 % 1017,7 hPa 0,0 mm 3,1 km/h (1 Bft) N-NW 338 0 min 0,000 mm 1,1 UV-I 165 W/m 11,4 C 4,8 km/h (1 Bft)
06.07.2016 17:52 18,3 C 18,3 C 66 % 1017,8 hPa 0,0 mm 4,3 km/h (1 Bft) N 10 0 min 0,000 mm 1,2 UV-I 171 W/m 11,8 C 6,4 km/h (2 Bft)
06.07.2016 17:53 18,3 C 18,3 C 66 % 1017,8 hPa 0,0 mm 4,0 km/h (1 Bft) N-NW 343 0 min 0,000 mm 1,2 UV-I 174 W/m 11,8 C 4,8 km/h (1 Bft)
06.07.2016 17:54 18,3 C 18,3 C 65 % 1017,7 hPa 0,0 mm 2,3 km/h (1 Bft) N-NO 17 0 min 0,000 mm 1,2 UV-I 169 W/m 11,6 C 3,2 km/h (1 Bft)
06.07.2016 17:55 18,3 C 18,3 C 66 % 1017,8 hPa 0,0 mm 5,0 km/h (1 Bft) O-NO 58 0 min 0,000 mm 1,2 UV-I 169 W/m 11,8 C 8,0 km/h (2 Bft)
06.07.2016 17:56 18,3 C 18,3 C 65 % 1017,8 hPa 0,0 mm 3,6 km/h (1 Bft) O-NO 61 0 min 0,000 mm 1,1 UV-I 167 W/m 11,6 C 6,4 km/h (2 Bft)
06.07.2016 17:57 18,3 C 18,3 C 65 % 1017,8 hPa 0,0 mm 5,6 km/h (1 Bft) NO 49 0 min 0,000 mm 1,1 UV-I 169 W/m 11,6 C 8,0 km/h (2 Bft)
06.07.2016 17:58 18,3 C 18,4 C 64 % 1017,8 hPa 0,0 mm 4,8 km/h (1 Bft) NO 42 0 min 0,000 mm 1,1 UV-I 169 W/m 11,4 C 6,4 km/h (2 Bft)
06.07.2016 17:59 18,3 C 18,3 C 66 % 1017,7 hPa 0,0 mm 1,8 km/h (1 Bft) N-NO 28 0 min 0,000 mm 1,1 UV-I 148 W/m 11,8 C 3,2 km/h (1 Bft)
06.07.2016 18:00 18,3 C 18,3 C 66 % 1017,8 hPa 0,0 mm 1,8 km/h (1 Bft) N-NO 30 0 min 0,127 mm 1,2 UV-I 151 W/m 11,8 C 4,8 km/h (1 Bft)
06.07.2016 18:01 18,4 C 18,4 C 66 % 1017,7 hPa 0,0 mm 2,7 km/h (1 Bft) N-NO 26 0 min 0,000 mm 1,2 UV-I 149 W/m 11,9 C 4,8 km/h (1 Bft)
06.07.2016 18:02 18,4 C 18,4 C 67 % 1017,8 hPa 0,0 mm 2,9 km/h (1 Bft) O-NO 74 0 min 0,000 mm 1,2 UV-I 156 W/m 12,2 C 8,0 km/h (2 Bft)
06.07.2016 18:03 18,4 C 18,4 C 65 % 1017,8 hPa 0,0 mm 3,3 km/h (1 Bft) N 9 0 min 0,000 mm 1,2 UV-I 172 W/m 11,7 C 6,4 km/h (2 Bft)
06.07.2016 18:04 18,4 C 18,4 C 67 % 1017,8 hPa 0,0 mm 4,1 km/h (1 Bft) N-NW 347 0 min 0,000 mm 1,2 UV-I 181 W/m 12,2 C 6,4 km/h (2 Bft)
06.07.2016 18:05 18,4 C 18,4 C 66 % 1017,8 hPa 0,0 mm 3,2 km/h (1 Bft) N 350 0 min 0,000 mm 1,3 UV-I 188 W/m 11,9 C 6,4 km/h (2 Bft)
06.07.2016 18:06 18,5 C 18,5 C 66 % 1017,8 hPa 0,0 mm 2,5 km/h (1 Bft) N 355 0 min 0,000 mm 1,3 UV-I 186 W/m 12,0 C 4,8 km/h (1 Bft)
06.07.2016 18:07 18,5 C 18,5 C 67 % 1017,8 hPa 0,0 mm 4,3 km/h (1 Bft) N-NW 348 0 min 0,000 mm 1,3 UV-I 192 W/m 12,3 C 6,4 km/h (2 Bft)
06.07.2016 18:08 18,5 C 18,5 C 68 % 1017,7 hPa 0,0 mm 5,7 km/h (1 Bft) N-NO 30 0 min 0,000 mm 1,3 UV-I 179 W/m 12,5 C 8,0 km/h (2 Bft)
06.07.2016 18:09 18,5 C 18,5 C 64 % 1017,7 hPa 0,0 mm 3,3 km/h (1 Bft) N-NO 27 0 min 0,000 mm 1,2 UV-I 160 W/m 11,6 C 6,4 km/h (2 Bft)
06.07.2016 18:10 18,4 C 18,5 C 65 % 1017,7 hPa 0,0 mm 4,1 km/h (1 Bft) N 355 0 min 0,000 mm 1,1 UV-I 151 W/m 11,7 C 8,0 km/h (2 Bft)
06.07.2016 18:11 18,4 C 18,4 C 64 % 1017,7 hPa 0,0 mm 5,8 km/h (2 Bft) N-NW 338 0 min 0,000 mm 1,1 UV-I 155 W/m 11,5 C 8,0 km/h (2 Bft)
06.07.2016 18:12 18,4 C 18,4 C 65 % 1017,7 hPa 0,0 mm 2,8 km/h (1 Bft) N 9 0 min 0,000 mm 1,1 UV-I 172 W/m 11,7 C 4,8 km/h (1 Bft)
06.07.2016 18:13 18,4 C 18,4 C 64 % 1017,8 hPa 0,0 mm 2,7 km/h (1 Bft) O-SO 103 0 min 0,000 mm 1,1 UV-I 181 W/m 11,5 C 4,8 km/h (1 Bft)
06.07.2016 18:14 18,4 C 18,4 C 64 % 1017,8 hPa 0,0 mm 1,9 km/h (1 Bft) O 89 0 min 0,000 mm 1,1 UV-I 183 W/m 11,5 C 3,2 km/h (1 Bft)
06.07.2016 18:15 18,4 C 18,4 C 68 % 1017,8 hPa 0,0 mm 3,0 km/h (1 Bft) O-NO 63 0 min 0,000 mm 1,2 UV-I 185 W/m 12,4 C 4,8 km/h (1 Bft)
06.07.2016 18:16 18,3 C 18,4 C 65 % 1017,8 hPa 0,0 mm 2,5 km/h (1 Bft) NO 39 0 min 0,000 mm 1,2 UV-I 179 W/m 11,6 C 3,2 km/h (1 Bft)
06.07.2016 18:17 18,4 C 18,4 C 67 % 1017,8 hPa 0,0 mm 3,8 km/h (1 Bft) SO 144 0 min 0,000 mm 1,2 UV-I 167 W/m 12,2 C 6,4 km/h (2 Bft)
06.07.2016 18:18 18,3 C 18,4 C 65 % 1017,8 hPa 0,0 mm 2,1 km/h (1 Bft) O-SO 106 0 min 0,000 mm 1,2 UV-I 176 W/m 11,6 C 4,8 km/h (1 Bft)
06.07.2016 18:19 18,3 C 18,3 C 66 % 1017,8 hPa 0,0 mm 3,2 km/h (1 Bft) O-NO 78 0 min 0,000 mm 1,3 UV-I 179 W/m 11,8 C 4,8 km/h (1 Bft)
06.07.2016 18:20 18,3 C 18,3 C 68 % 1017,8 hPa 0,0 mm 3,0 km/h (1 Bft) N-NO 22 0 min 0,000 mm 1,3 UV-I 188 W/m 12,3 C 4,8 km/h (1 Bft)
06.07.2016 18:21 18,3 C 18,3 C 65 % 1017,8 hPa 0,0 mm 3,9 km/h (1 Bft) O-SO 103 0 min 0,000 mm 1,3 UV-I 195 W/m 11,6 C 4,8 km/h (1 Bft)
06.07.2016 18:22 18,4 C 18,4 C 65 % 1017,8 hPa 0,0 mm 3,5 km/h (1 Bft) N-NO 30 0 min 0,000 mm 1,2 UV-I 183 W/m 11,7 C 4,8 km/h (1 Bft)
06.07.2016 18:23 18,4 C 18,4 C 65 % 1017,8 hPa 0,0 mm 1,6 km/h (1 Bft) O-NO 63 0 min 0,000 mm 1,2 UV-I 169 W/m 11,7 C 4,8 km/h (1 Bft)
06.07.2016 18:24 18,4 C 18,4 C 66 % 1017,8 hPa 0,0 mm 3,0 km/h (1 Bft) NO 34 0 min 0,000 mm 1,1 UV-I 156 W/m 11,9 C 6,4 km/h (2 Bft)
06.07.2016 18:25 18,4 C 18,4 C 66 % 1017,8 hPa 0,0 mm 2,4 km/h (1 Bft) N 351 0 min 0,000 mm 1,2 UV-I 172 W/m 11,9 C 4,8 km/h (1 Bft)
06.07.2016 18:26 18,5 C 18,5 C 65 % 1017,7 hPa 0,0 mm 4,4 km/h (1 Bft) N-NO 32 0 min 0,000 mm 1,2 UV-I 185 W/m 11,8 C 6,4 km/h (2 Bft)
06.07.2016 18:27 18,5 C 18,6 C 65 % 1017,7 hPa 0,0 mm 2,7 km/h (1 Bft) O-NO 73 0 min 0,000 mm 1,2 UV-I 179 W/m 11,8 C 4,8 km/h (1 Bft)
06.07.2016 18:28 18,6 C 18,6 C 64 % 1017,7 hPa 0,0 mm 2,7 km/h (1 Bft) NO 39 0 min 0,000 mm 1,2 UV-I 176 W/m 11,7 C 4,8 km/h (1 Bft)
06.07.2016 18:29 18,6 C 18,6 C 65 % 1017,7 hPa 0,0 mm 2,6 km/h (1 Bft) N-NW 346 0 min 0,000 mm 1,2 UV-I 197 W/m 11,9 C 4,8 km/h (1 Bft)
06.07.2016 18:30 18,7 C 18,7 C 66 % 1017,7 hPa 0,0 mm 4,1 km/h (1 Bft) NW 323 0 min 0,000 mm 1,3 UV-I 202 W/m 12,2 C 6,4 km/h (2 Bft)
06.07.2016 18:31 18,8 C 18,8 C 65 % 1017,7 hPa 0,0 mm 5,8 km/h (2 Bft) W 271 0 min 0,000 mm 1,2 UV-I 176 W/m 12,1 C 8,0 km/h (2 Bft)
06.07.2016 18:32 18,8 C 18,8 C 65 % 1017,7 hPa 0,0 mm 3,8 km/h (1 Bft) W 273 0 min 0,000 mm 1,2 UV-I 162 W/m 12,1 C 6,4 km/h (2 Bft)
06.07.2016 18:33 18,7 C 18,8 C 62 % 1017,7 hPa 0,0 mm 4,5 km/h (1 Bft) W 280 0 min 0,000 mm 1,2 UV-I 156 W/m 11,3 C 8,0 km/h (2 Bft)
06.07.2016 18:34 18,7 C 18,7 C 65 % 1017,7 hPa 0,0 mm 2,7 km/h (1 Bft) W-NW 297 0 min 0,000 mm 1,2 UV-I 153 W/m 12,0 C 4,8 km/h (1 Bft)
06.07.2016 18:35 18,6 C 18,7 C 62 % 1017,7 hPa 0,0 mm 2,5 km/h (1 Bft) W 277 0 min 0,000 mm 1,2 UV-I 142 W/m 11,2 C 3,2 km/h (1 Bft)
06.07.2016 18:36 18,6 C 18,6 C 62 % 1017,7 hPa 0,0 mm 1,7 km/h (1 Bft) W-NW 292 0 min 0,000 mm 1,2 UV-I 146 W/m 11,2 C 3,2 km/h (1 Bft)
06.07.2016 18:37 18,5 C 18,6 C 63 % 1017,7 hPa 0,0 mm 0,9 km/h (0 Bft) W-NW 292 0 min 0,000 mm 1,3 UV-I 153 W/m 11,3 C 1,6 km/h (1 Bft)
06.07.2016 18:38 18,6 C 18,6 C 66 % 1017,7 hPa 0,0 mm 2,3 km/h (1 Bft) N-NW 337 0 min 0,000 mm 1,3 UV-I 155 W/m 12,1 C 4,8 km/h (1 Bft)
06.07.2016 18:39 18,6 C 18,6 C 63 % 1017,7 hPa 0,0 mm 4,8 km/h (1 Bft) N 355 0 min 0,000 mm 1,2 UV-I 144 W/m 11,4 C 6,4 km/h (2 Bft)
06.07.2016 18:40 18,7 C 18,7 C 63 % 1017,8 hPa 0,0 mm 5,1 km/h (1 Bft) N 11 0 min 0,000 mm 1,2 UV-I 148 W/m 11,5 C 6,4 km/h (2 Bft)
06.07.2016 18:41 18,7 C 18,7 C 62 % 1017,8 hPa 0,0 mm 3,6 km/h (1 Bft) N 355 0 min 0,000 mm 1,2 UV-I 167 W/m 11,3 C 4,8 km/h (1 Bft)
06.07.2016 18:42 18,7 C 18,7 C 63 % 1017,8 hPa 0,0 mm 2,7 km/h (1 Bft) N 360 0 min 0,000 mm 1,2 UV-I 179 W/m 11,5 C 6,4 km/h (2 Bft)
06.07.2016 18:43 18,7 C 18,8 C 65 % 1017,9 hPa 0,0 mm 5,1 km/h (1 Bft) N-NO 13 0 min 0,000 mm 1,1 UV-I 158 W/m 12,0 C 8,0 km/h (2 Bft)
06.07.2016 18:44 18,8 C 18,8 C 62 % 1017,8 hPa 0,0 mm 3,8 km/h (1 Bft) N 11 0 min 0,000 mm 1,1 UV-I 144 W/m 11,4 C 6,4 km/h (2 Bft)
06.07.2016 18:45 18,8 C 18,8 C 62 % 1017,8 hPa 0,0 mm 2,6 km/h (1 Bft) N 5 0 min 0,000 mm 1,0 UV-I 134 W/m 11,4 C 6,4 km/h (2 Bft)
06.07.2016 18:46 18,7 C 18,8 C 64 % 1017,9 hPa 0,0 mm 3,1 km/h (1 Bft) N-NW 333 0 min 0,000 mm 1,0 UV-I 132 W/m 11,7 C 6,4 km/h (2 Bft)
06.07.2016 18:47 18,7 C 18,7 C 64 % 1017,9 hPa 0,0 mm 2,5 km/h (1 Bft) N 350 0 min 0,000 mm 1,0 UV-I 128 W/m 11,7 C 3,2 km/h (1 Bft)
06.07.2016 18:48 18,7 C 18,8 C 64 % 1017,9 hPa 0,0 mm 3,6 km/h (1 Bft) N-NO 30 0 min 0,000 mm 1,0 UV-I 125 W/m 11,7 C 4,8 km/h (1 Bft)
06.07.2016 18:49 18,7 C 18,7 C 64 % 1017,9 hPa 0,0 mm 4,1 km/h (1 Bft) NO 48 0 min 0,000 mm 1,0 UV-I 132 W/m 11,7 C 6,4 km/h (2 Bft)
06.07.2016 18:50 18,7 C 18,7 C 64 % 1017,9 hPa 0,0 mm 2,3 km/h (1 Bft) NO 40 0 min 0,000 mm 1,0 UV-I 130 W/m 11,7 C 3,2 km/h (1 Bft)
06.07.2016 18:51 18,7 C 18,7 C 64 % 1017,9 hPa 0,0 mm 2,1 km/h (1 Bft) N 355 0 min 0,000 mm 1,0 UV-I 139 W/m 11,7 C 3,2 km/h (1 Bft)
06.07.2016 18:52 18,7 C 18,7 C 66 % 1017,9 hPa 0,0 mm 3,0 km/h (1 Bft) N 5 0 min 0,000 mm 0,9 UV-I 135 W/m 12,2 C 4,8 km/h (1 Bft)
06.07.2016 18:53 18,7 C 18,7 C 66 % 1018,0 hPa 0,0 mm 2,8 km/h (1 Bft) N-NO 28 0 min 0,000 mm 0,9 UV-I 128 W/m 12,2 C 4,8 km/h (1 Bft)
06.07.2016 18:54 18,7 C 18,7 C 65 % 1017,9 hPa 0,0 mm 2,3 km/h (1 Bft) N-NO 21 0 min 0,000 mm 0,8 UV-I 123 W/m 12,0 C 3,2 km/h (1 Bft)
06.07.2016 18:55 18,7 C 18,7 C 66 % 1018,0 hPa 0,0 mm 3,6 km/h (1 Bft) N 5 0 min 0,000 mm 0,8 UV-I 118 W/m 12,2 C 4,8 km/h (1 Bft)
06.07.2016 18:56 18,7 C 18,7 C 63 % 1018,0 hPa 0,0 mm 2,5 km/h (1 Bft) N 5 0 min 0,000 mm 0,8 UV-I 111 W/m 11,5 C 4,8 km/h (1 Bft)
06.07.2016 18:57 18,7 C 18,7 C 63 % 1018,0 hPa 0,0 mm 2,4 km/h (1 Bft) N 355 0 min 0,000 mm 0,7 UV-I 109 W/m 11,5 C 3,2 km/h (1 Bft)
06.07.2016 18:58 18,6 C 18,7 C 65 % 1018,0 hPa 0,0 mm 1,4 km/h (1 Bft) N 355 0 min 0,000 mm 0,7 UV-I 107 W/m 11,9 C 3,2 km/h (1 Bft)
06.07.2016 18:59 18,6 C 18,6 C 64 % 1018,0 hPa 0,0 mm 1,3 km/h (1 Bft) NO 35 0 min 0,000 mm 0,7 UV-I 95 W/m 11,7 C 3,2 km/h (1 Bft)
06.07.2016 19:00 18,6 C 18,6 C 63 % 1018,0 hPa 0,0 mm 2,8 km/h (1 Bft) NO 52 0 min 0,000 mm 0,7 UV-I 90 W/m 11,4 C 3,2 km/h (1 Bft)
06.07.2016 19:01 18,4 C 18,6 C 65 % 1018,0 hPa 0,0 mm 2,7 km/h (1 Bft) NO 49 0 min 0,102 mm 0,6 UV-I 90 W/m 11,7 C 4,8 km/h (1 Bft)
06.07.2016 19:02 18,4 C 18,4 C 65 % 1018,0 hPa 0,0 mm 4,0 km/h (1 Bft) N-NW 346 0 min 0,000 mm 0,6 UV-I 91 W/m 11,7 C 6,4 km/h (2 Bft)
06.07.2016 19:03 18,3 C 18,4 C 64 % 1018,0 hPa 0,0 mm 4,0 km/h (1 Bft) N 355 0 min 0,000 mm 0,6 UV-I 97 W/m 11,4 C 4,8 km/h (1 Bft)
06.07.2016 19:04 18,3 C 18,4 C 64 % 1018,0 hPa 0,0 mm 2,9 km/h (1 Bft) N-NO 15 0 min 0,000 mm 0,5 UV-I 91 W/m 11,4 C 4,8 km/h (1 Bft)
06.07.2016 19:05 18,4 C 18,4 C 66 % 1018,0 hPa 0,0 mm 2,3 km/h (1 Bft) N-NW 333 0 min 0,000 mm 0,5 UV-I 81 W/m 11,9 C 3,2 km/h (1 Bft)
06.07.2016 19:06 18,4 C 18,4 C 64 % 1018,0 hPa 0,0 mm 1,1 km/h (1 Bft) N-NW 333 0 min 0,000 mm 0,5 UV-I 77 W/m 11,5 C 3,2 km/h (1 Bft)
06.07.2016 19:07 18,3 C 18,4 C 66 % 1018,0 hPa 0,0 mm 2,3 km/h (1 Bft) O-NO 65 0 min 0,000 mm 0,5 UV-I 70 W/m 11,8 C 3,2 km/h (1 Bft)
06.07.2016 19:08 18,3 C 18,4 C 68 % 1018,1 hPa 0,0 mm 1,3 km/h (1 Bft) O-NO 59 0 min 0,000 mm 0,0 UV-I 67 W/m 12,3 C 3,2 km/h (1 Bft)
06.07.2016 19:09 18,3 C 18,3 C 67 % 1018,1 hPa 0,0 mm 3,4 km/h (1 Bft) O-NO 61 0 min 0,000 mm 0,0 UV-I 65 W/m 12,1 C 4,8 km/h (1 Bft)
06.07.2016 19:10 18,3 C 18,3 C 65 % 1018,1 hPa 0,0 mm 3,2 km/h (1 Bft) O-NO 60 0 min 0,000 mm 0,0 UV-I 62 W/m 11,6 C 4,8 km/h (1 Bft)
06.07.2016 19:11 18,2 C 18,3 C 66 % 1018,1 hPa 0,0 mm 4,8 km/h (1 Bft) O 79 0 min 0,000 mm 0,0 UV-I 58 W/m 11,7 C 8,0 km/h (2 Bft)
06.07.2016 19:12 18,2 C 18,2 C 66 % 1018,2 hPa 0,0 mm 4,7 km/h (1 Bft) O 86 0 min 0,000 mm 0,0 UV-I 56 W/m 11,7 C 6,4 km/h (2 Bft)
06.07.2016 19:13 18,2 C 18,2 C 66 % 1018,2 hPa 0,0 mm 3,7 km/h (1 Bft) O 88 0 min 0,000 mm 0,0 UV-I 54 W/m 11,7 C 4,8 km/h (1 Bft)
06.07.2016 19:14 18,1 C 18,2 C 67 % 1018,2 hPa 0,0 mm 2,7 km/h (1 Bft) O 87 0 min 0,000 mm 0,0 UV-I 54 W/m 11,9 C 3,2 km/h (1 Bft)
06.07.2016 19:15 17,9 C 18,1 C 67 % 1018,2 hPa 0,0 mm 2,5 km/h (1 Bft) NO 49 0 min 0,000 mm 0,0 UV-I 54 W/m 11,7 C 3,2 km/h (1 Bft)
06.07.2016 19:16 17,9 C 18,0 C 70 % 1018,2 hPa 0,0 mm 3,2 km/h (1 Bft) NO 35 0 min 0,000 mm 0,0 UV-I 56 W/m 12,3 C 4,8 km/h (1 Bft)
06.07.2016 19:17 17,8 C 17,9 C 72 % 1018,2 hPa 0,0 mm 2,7 km/h (1 Bft) N-NO 21 0 min 0,000 mm 0,0 UV-I 58 W/m 12,7 C 4,8 km/h (1 Bft)
06.07.2016 19:18 17,8 C 17,8 C 69 % 1018,2 hPa 0,0 mm 4,9 km/h (1 Bft) N 10 0 min 0,000 mm 0,0 UV-I 56 W/m 12,0 C 8,0 km/h (2 Bft)
06.07.2016 19:19 17,8 C 17,8 C 68 % 1018,2 hPa 0,0 mm 7,1 km/h (2 Bft) N-NW 344 0 min 0,000 mm 0,0 UV-I 58 W/m 11,8 C 8,0 km/h (2 Bft)
06.07.2016 19:20 17,9 C 17,9 C 65 % 1018,2 hPa 0,0 mm 5,0 km/h (1 Bft) N-NW 348 0 min 0,000 mm 0,0 UV-I 58 W/m 11,2 C 6,4 km/h (2 Bft)
06.07.2016 19:21 18,1 C 18,1 C 66 % 1018,2 hPa 0,0 mm 3,4 km/h (1 Bft) NW 320 0 min 0,000 mm 0,0 UV-I 56 W/m 11,6 C 4,8 km/h (1 Bft)
06.07.2016 19:22 18,1 C 18,1 C 65 % 1018,2 hPa 0,0 mm 2,5 km/h (1 Bft) NW 313 0 min 0,000 mm 0,0 UV-I 63 W/m 11,4 C 4,8 km/h (1 Bft)
06.07.2016 19:23 18,1 C 18,1 C 67 % 1018,2 hPa 0,0 mm 1,8 km/h (1 Bft) N-NW 331 0 min 0,000 mm 0,0 UV-I 67 W/m 11,9 C 3,2 km/h (1 Bft)
06.07.2016 19:24 18,1 C 18,1 C 68 % 1018,2 hPa 0,0 mm 3,6 km/h (1 Bft) N 351 0 min 0,000 mm 0,0 UV-I 65 W/m 12,1 C 4,8 km/h (1 Bft)
06.07.2016 19:25 18,2 C 18,2 C 66 % 1018,2 hPa 0,0 mm 3,2 km/h (1 Bft) N-NW 335 0 min 0,000 mm 0,0 UV-I 63 W/m 11,7 C 6,4 km/h (2 Bft)
06.07.2016 19:26 18,1 C 18,2 C 67 % 1018,2 hPa 0,0 mm 2,6 km/h (1 Bft) N 355 0 min 0,000 mm 0,0 UV-I 58 W/m 11,9 C 4,8 km/h (1 Bft)
06.07.2016 19:27 18,1 C 18,1 C 66 % 1018,2 hPa 0,0 mm 0,6 km/h (0 Bft) N-NW 344 0 min 0,000 mm 0,0 UV-I 54 W/m 11,6 C 3,2 km/h (1 Bft)
06.07.2016 19:28 18,1 C 18,2 C 67 % 1018,2 hPa 0,0 mm 2,4 km/h (1 Bft) N 355 0 min 0,000 mm 0,0 UV-I 58 W/m 11,9 C 4,8 km/h (1 Bft)
06.07.2016 19:29 18,1 C 18,1 C 67 % 1018,3 hPa 0,0 mm 3,8 km/h (1 Bft) N 11 0 min 0,000 mm 0,0 UV-I 63 W/m 11,9 C 6,4 km/h (2 Bft)
06.07.2016 19:30 18,1 C 18,1 C 67 % 1018,2 hPa 0,0 mm 4,6 km/h (1 Bft) NO 56 0 min 0,000 mm 0,0 UV-I 67 W/m 11,9 C 8,0 km/h (2 Bft)
06.07.2016 19:31 18,1 C 18,1 C 67 % 1018,3 hPa 0,0 mm 6,6 km/h (2 Bft) NO 45 0 min 0,000 mm 0,0 UV-I 69 W/m 11,9 C 9,7 km/h (2 Bft)
06.07.2016 19:32 18,0 C 18,1 C 65 % 1018,3 hPa 0,0 mm 6,6 km/h (2 Bft) O 86 0 min 0,000 mm 0,0 UV-I 67 W/m 11,3 C 8,0 km/h (2 Bft)
06.07.2016 19:33 18,0 C 18,0 C 65 % 1018,2 hPa 0,0 mm 5,8 km/h (2 Bft) N 350 0 min 0,000 mm 0,0 UV-I 65 W/m 11,3 C 8,0 km/h (2 Bft)
06.07.2016 19:34 17,9 C 18,0 C 65 % 1018,3 hPa 0,0 mm 4,2 km/h (1 Bft) N 5 0 min 0,000 mm 0,0 UV-I 65 W/m 11,2 C 6,4 km/h (2 Bft)
06.07.2016 19:35 17,9 C 17,9 C 65 % 1018,3 hPa 0,0 mm 5,6 km/h (1 Bft) N 360 0 min 0,000 mm 0,0 UV-I 60 W/m 11,2 C 6,4 km/h (2 Bft)
06.07.2016 19:36 17,9 C 17,9 C 66 % 1018,4 hPa 0,0 mm 3,2 km/h (1 Bft) N 360 0 min 0,000 mm 0,0 UV-I 54 W/m 11,5 C 4,8 km/h (1 Bft)
06.07.2016 19:37 17,9 C 17,9 C 66 % 1018,3 hPa 0,0 mm 1,9 km/h (1 Bft) N 360 0 min 0,000 mm 0,0 UV-I 53 W/m 11,5 C 3,2 km/h (1 Bft)
06.07.2016 19:38 17,9 C 17,9 C 67 % 1018,3 hPa 0,0 mm 2,6 km/h (1 Bft) N-NO 13 0 min 0,000 mm 0,0 UV-I 54 W/m 11,7 C 4,8 km/h (1 Bft)
06.07.2016 19:39 17,8 C 17,9 C 65 % 1018,3 hPa 0,0 mm 6,6 km/h (2 Bft) N 5 0 min 0,000 mm 0,0 UV-I 54 W/m 11,1 C 12,9 km/h (3 Bft)
06.07.2016 19:40 17,8 C 17,8 C 64 % 1018,4 hPa 0,0 mm 5,7 km/h (1 Bft) N-NW 337 0 min 0,000 mm 0,0 UV-I 54 W/m 10,9 C 9,7 km/h (2 Bft)
06.07.2016 19:41 17,8 C 17,8 C 65 % 1018,5 hPa 0,0 mm 2,9 km/h (1 Bft) N-NO 15 0 min 0,000 mm 0,0 UV-I 56 W/m 11,1 C 6,4 km/h (2 Bft)
06.07.2016 19:42 17,8 C 17,8 C 66 % 1018,4 hPa 0,0 mm 3,8 km/h (1 Bft) N-NW 346 0 min 0,000 mm 0,0 UV-I 58 W/m 11,4 C 6,4 km/h (2 Bft)
06.07.2016 19:43 17,8 C 17,8 C 65 % 1018,5 hPa 0,0 mm 1,7 km/h (1 Bft) W-NW 293 0 min 0,000 mm 0,0 UV-I 60 W/m 11,1 C 3,2 km/h (1 Bft)
06.07.2016 19:44 17,7 C 17,8 C 66 % 1018,5 hPa 0,0 mm 3,6 km/h (1 Bft) N-NO 28 0 min 0,000 mm 0,0 UV-I 58 W/m 11,3 C 6,4 km/h (2 Bft)
06.07.2016 19:45 17,7 C 17,7 C 65 % 1018,4 hPa 0,0 mm 2,3 km/h (1 Bft) N-NO 28 0 min 0,000 mm 0,0 UV-I 58 W/m 11,0 C 3,2 km/h (1 Bft)
06.07.2016 19:46 17,7 C 17,7 C 67 % 1018,5 hPa 0,0 mm 1,9 km/h (1 Bft) O-NO 69 0 min 0,000 mm 0,0 UV-I 60 W/m 11,5 C 3,2 km/h (1 Bft)
06.07.2016 19:47 17,7 C 17,7 C 65 % 1018,5 hPa 0,0 mm 4,4 km/h (1 Bft) N-NO 20 0 min 0,000 mm 0,0 UV-I 60 W/m 11,0 C 8,0 km/h (2 Bft)
06.07.2016 19:48 17,6 C 17,7 C 65 % 1018,5 hPa 0,0 mm 3,0 km/h (1 Bft) N-NW 342 0 min 0,000 mm 0,0 UV-I 58 W/m 10,9 C 4,8 km/h (1 Bft)
06.07.2016 19:49 17,6 C 17,6 C 65 % 1018,5 hPa 0,0 mm 2,5 km/h (1 Bft) N 5 0 min 0,000 mm 0,0 UV-I 54 W/m 10,9 C 4,8 km/h (1 Bft)
06.07.2016 19:50 17,6 C 17,6 C 67 % 1018,5 hPa 0,0 mm 3,1 km/h (1 Bft) NO 44 0 min 0,000 mm 0,0 UV-I 51 W/m 11,4 C 4,8 km/h (1 Bft)
06.07.2016 19:51 17,6 C 17,6 C 66 % 1018,5 hPa 0,0 mm 4,8 km/h (1 Bft) NO 53 0 min 0,000 mm 0,0 UV-I 51 W/m 11,2 C 6,4 km/h (2 Bft)
06.07.2016 19:52 17,6 C 17,6 C 65 % 1018,5 hPa 0,0 mm 2,4 km/h (1 Bft) O-NO 69 0 min 0,000 mm 0,0 UV-I 49 W/m 10,9 C 3,2 km/h (1 Bft)
06.07.2016 19:53 17,5 C 17,6 C 67 % 1018,5 hPa 0,0 mm 3,6 km/h (1 Bft) N 5 0 min 0,000 mm 0,0 UV-I 49 W/m 11,3 C 4,8 km/h (1 Bft)
06.07.2016 19:54 17,6 C 17,6 C 65 % 1018,5 hPa 0,0 mm 4,1 km/h (1 Bft) N-NW 342 0 min 0,000 mm 0,0 UV-I 51 W/m 10,9 C 8,0 km/h (2 Bft)
06.07.2016 19:55 17,6 C 17,6 C 67 % 1018,5 hPa 0,0 mm 2,4 km/h (1 Bft) N-NO 28 0 min 0,000 mm 0,0 UV-I 53 W/m 11,4 C 3,2 km/h (1 Bft)
06.07.2016 19:56 17,5 C 17,6 C 67 % 1018,6 hPa 0,0 mm 3,0 km/h (1 Bft) N-NW 340 0 min 0,000 mm 0,0 UV-I 51 W/m 11,3 C 4,8 km/h (1 Bft)
06.07.2016 19:57 17,5 C 17,5 C 66 % 1018,6 hPa 0,0 mm 3,2 km/h (1 Bft) O-NO 57 0 min 0,000 mm 0,0 UV-I 46 W/m 11,1 C 4,8 km/h (1 Bft)
06.07.2016 19:58 17,5 C 17,5 C 66 % 1018,5 hPa 0,0 mm 2,7 km/h (1 Bft) N-NO 32 0 min 0,000 mm 0,0 UV-I 42 W/m 11,1 C 4,8 km/h (1 Bft)
06.07.2016 19:59 17,5 C 17,6 C 66 % 1018,6 hPa 0,0 mm 2,1 km/h (1 Bft) N-NO 23 0 min 0,000 mm 0,0 UV-I 40 W/m 11,1 C 4,8 km/h (1 Bft)
06.07.2016 20:00 17,6 C 17,6 C 66 % 1018,6 hPa 0,0 mm 2,1 km/h (1 Bft) NO 42 0 min 0,000 mm 0,0 UV-I 42 W/m 11,2 C 3,2 km/h (1 Bft)
06.07.2016 20:01 17,5 C 17,6 C 65 % 1018,6 hPa 0,0 mm 2,6 km/h (1 Bft) NO 35 0 min 0,050 mm 0,0 UV-I 42 W/m 10,8 C 4,8 km/h (1 Bft)
06.07.2016 20:02 17,5 C 17,5 C 65 % 1018,6 hPa 0,0 mm 3,3 km/h (1 Bft) N-NO 14 0 min 0,000 mm 0,0 UV-I 40 W/m 10,8 C 4,8 km/h (1 Bft)
06.07.2016 20:03 17,5 C 17,5 C 65 % 1018,6 hPa 0,0 mm 4,4 km/h (1 Bft) N-NO 24 0 min 0,000 mm 0,0 UV-I 44 W/m 10,8 C 6,4 km/h (2 Bft)
06.07.2016 20:04 17,5 C 17,5 C 65 % 1018,7 hPa 0,0 mm 2,3 km/h (1 Bft) N-NO 27 0 min 0,000 mm 0,0 UV-I 39 W/m 10,8 C 3,2 km/h (1 Bft)
06.07.2016 20:05 17,4 C 17,5 C 66 % 1018,6 hPa 0,0 mm 2,4 km/h (1 Bft) N 5 0 min 0,000 mm 0,0 UV-I 37 W/m 11,0 C 3,2 km/h (1 Bft)
06.07.2016 20:06 17,4 C 17,5 C 65 % 1018,6 hPa 0,0 mm 1,3 km/h (1 Bft) O-NO 63 0 min 0,000 mm 0,0 UV-I 35 W/m 10,8 C 3,2 km/h (1 Bft)
06.07.2016 20:07 17,4 C 17,4 C 66 % 1018,7 hPa 0,0 mm 2,1 km/h (1 Bft) N 350 0 min 0,000 mm 0,0 UV-I 37 W/m 11,0 C 3,2 km/h (1 Bft)
06.07.2016 20:08 17,4 C 17,4 C 66 % 1018,7 hPa 0,0 mm 1,6 km/h (1 Bft) N 350 0 min 0,000 mm 0,0 UV-I 39 W/m 11,0 C 3,2 km/h (1 Bft)
06.07.2016 20:09 17,4 C 17,4 C 66 % 1018,7 hPa 0,0 mm 2,1 km/h (1 Bft) N 349 0 min 0,000 mm 0,0 UV-I 44 W/m 11,0 C 4,8 km/h (1 Bft)
06.07.2016 20:10 17,4 C 17,4 C 66 % 1018,7 hPa 0,0 mm 2,6 km/h (1 Bft) NO 48 0 min 0,000 mm 0,0 UV-I 47 W/m 11,0 C 4,8 km/h (1 Bft)
06.07.2016 20:11 17,4 C 17,4 C 65 % 1018,7 hPa 0,0 mm 4,4 km/h (1 Bft) N-NO 22 0 min 0,000 mm 0,0 UV-I 46 W/m 10,8 C 6,4 km/h (2 Bft)
06.07.2016 20:12 17,4 C 17,4 C 66 % 1018,7 hPa 0,0 mm 3,0 km/h (1 Bft) N 360 0 min 0,000 mm 0,0 UV-I 42 W/m 11,0 C 4,8 km/h (1 Bft)
06.07.2016 20:13 17,4 C 17,4 C 65 % 1018,7 hPa 0,0 mm 3,4 km/h (1 Bft) N 355 0 min 0,000 mm 0,0 UV-I 42 W/m 10,8 C 4,8 km/h (1 Bft)
06.07.2016 20:14 17,4 C 17,4 C 65 % 1018,7 hPa 0,0 mm 4,2 km/h (1 Bft) N 5 0 min 0,000 mm 0,0 UV-I 42 W/m 10,8 C 4,8 km/h (1 Bft)
06.07.2016 20:15 17,4 C 17,4 C 65 % 1018,7 hPa 0,0 mm 3,8 km/h (1 Bft) N 355 0 min 0,000 mm 0,0 UV-I 39 W/m 10,8 C 4,8 km/h (1 Bft)
06.07.2016 20:16 17,3 C 17,4 C 65 % 1018,8 hPa 0,0 mm 2,4 km/h (1 Bft) N 360 0 min 0,000 mm 0,0 UV-I 37 W/m 10,7 C 4,8 km/h (1 Bft)
06.07.2016 20:17 17,3 C 17,4 C 65 % 1018,8 hPa 0,0 mm 2,1 km/h (1 Bft) O 86 0 min 0,000 mm 0,0 UV-I 33 W/m 10,7 C 3,2 km/h (1 Bft)
06.07.2016 20:18 17,3 C 17,3 C 65 % 1018,8 hPa 0,0 mm 3,6 km/h (1 Bft) N-NO 30 0 min 0,000 mm 0,0 UV-I 30 W/m 10,7 C 4,8 km/h (1 Bft)
06.07.2016 20:19 17,3 C 17,3 C 64 % 1018,7 hPa 0,0 mm 1,3 km/h (1 Bft) NO 47 0 min 0,000 mm 0,0 UV-I 28 W/m 10,4 C 3,2 km/h (1 Bft)
06.07.2016 20:20 17,2 C 17,3 C 66 % 1018,8 hPa 0,0 mm 2,5 km/h (1 Bft) N 355 0 min 0,000 mm 0,0 UV-I 26 W/m 10,8 C 6,4 km/h (2 Bft)
06.07.2016 20:21 17,2 C 17,2 C 65 % 1018,7 hPa 0,0 mm 3,7 km/h (1 Bft) N 360 0 min 0,000 mm 0,0 UV-I 25 W/m 10,6 C 6,4 km/h (2 Bft)
06.07.2016 20:22 17,2 C 17,2 C 65 % 1018,7 hPa 0,0 mm 2,1 km/h (1 Bft) N 360 0 min 0,000 mm 0,0 UV-I 23 W/m 10,6 C 3,2 km/h (1 Bft)
06.07.2016 20:23 17,2 C 17,2 C 65 % 1018,8 hPa 0,0 mm 3,6 km/h (1 Bft) N-NW 341 0 min 0,000 mm 0,0 UV-I 21 W/m 10,6 C 6,4 km/h (2 Bft)
06.07.2016 20:24 17,2 C 17,2 C 65 % 1018,8 hPa 0,0 mm 3,2 km/h (1 Bft) N 360 0 min 0,000 mm 0,0 UV-I 19 W/m 10,6 C 4,8 km/h (1 Bft)
06.07.2016 20:25 17,2 C 17,2 C 66 % 1018,9 hPa 0,0 mm 2,5 km/h (1 Bft) N 360 0 min 0,000 mm 0,0 UV-I 19 W/m 10,8 C 4,8 km/h (1 Bft)
06.07.2016 20:26 17,1 C 17,2 C 65 % 1018,9 hPa 0,0 mm 1,6 km/h (1 Bft) N 360 0 min 0,000 mm 0,0 UV-I 18 W/m 10,5 C 3,2 km/h (1 Bft)
06.07.2016 20:27 17,1 C 17,1 C 65 % 1018,9 hPa 0,0 mm 2,0 km/h (1 Bft) N 360 0 min 0,000 mm 0,0 UV-I 18 W/m 10,5 C 3,2 km/h (1 Bft)
06.07.2016 20:28 17,0 C 17,1 C 66 % 1018,9 hPa 0,0 mm 0,8 km/h (0 Bft) N 360 0 min 0,000 mm 0,0 UV-I 18 W/m 10,6 C 1,6 km/h (1 Bft)
06.07.2016 20:29 17,0 C 17,0 C 66 % 1018,9 hPa 0,0 mm 1,2 km/h (1 Bft) N 360 0 min 0,000 mm 0,0 UV-I 18 W/m 10,6 C 3,2 km/h (1 Bft)
06.07.2016 20:30 16,9 C 17,0 C 66 % 1018,9 hPa 0,0 mm 2,1 km/h (1 Bft) N 360 0 min 0,000 mm 0,0 UV-I 18 W/m 10,5 C 3,2 km/h (1 Bft)
06.07.2016 20:31 16,9 C 16,9 C 67 % 1018,9 hPa 0,0 mm 2,1 km/h (1 Bft) N 360 0 min 0,000 mm 0,0 UV-I 18 W/m 10,7 C 3,2 km/h (1 Bft)
06.07.2016 20:32 16,9 C 16,9 C 68 % 1018,9 hPa 0,0 mm 2,1 km/h (1 Bft) N-NW 342 0 min 0,000 mm 0,0 UV-I 21 W/m 11,0 C 4,8 km/h (1 Bft)
06.07.2016 20:33 16,8 C 16,9 C 67 % 1018,9 hPa 0,0 mm 0,3 km/h (0 Bft) N-NW 342 0 min 0,000 mm 0,0 UV-I 21 W/m 10,6 C 1,6 km/h (1 Bft)
06.07.2016 20:34 16,8 C 16,8 C 67 % 1019,0 hPa 0,0 mm 2,1 km/h (1 Bft) N-NW 342 0 min 0,000 mm 0,0 UV-I 19 W/m 10,6 C 3,2 km/h (1 Bft)
06.07.2016 20:35 16,8 C 16,8 C 67 % 1018,9 hPa 0,0 mm 0,9 km/h (0 Bft) N-NW 342 0 min 0,000 mm 0,0 UV-I 19 W/m 10,6 C 1,6 km/h (1 Bft)
06.07.2016 20:36 16,7 C 16,8 C 68 % 1019,0 hPa 0,0 mm 2,9 km/h (1 Bft) N 360 0 min 0,000 mm 0,0 UV-I 19 W/m 10,8 C 4,8 km/h (1 Bft)
06.07.2016 20:37 16,7 C 16,8 C 68 % 1019,0 hPa 0,0 mm 2,3 km/h (1 Bft) N 360 0 min 0,000 mm 0,0 UV-I 19 W/m 10,8 C 3,2 km/h (1 Bft)
06.07.2016 20:38 16,7 C 16,7 C 67 % 1019,0 hPa 0,0 mm 1,9 km/h (1 Bft) N 360 0 min 0,000 mm 0,0 UV-I 21 W/m 10,5 C 3,2 km/h (1 Bft)
06.07.2016 20:39 16,7 C 16,7 C 67 % 1019,0 hPa 0,0 mm 1,0 km/h (0 Bft) N 360 0 min 0,000 mm 0,0 UV-I 21 W/m 10,5 C 3,2 km/h (1 Bft)
06.07.2016 20:40 16,7 C 16,7 C 67 % 1019,0 hPa 0,0 mm 1,5 km/h (1 Bft) N-NW 346 0 min 0,000 mm 0,0 UV-I 21 W/m 10,5 C 3,2 km/h (1 Bft)
06.07.2016 20:41 16,7 C 16,7 C 68 % 1019,0 hPa 0,0 mm 1,0 km/h (0 Bft) N-NW 346 0 min 0,000 mm 0,0 UV-I 21 W/m 10,8 C 1,6 km/h (1 Bft)
06.07.2016 20:42 16,7 C 16,7 C 67 % 1019,0 hPa 0,0 mm 1,4 km/h (1 Bft) NW 323 0 min 0,000 mm 0,0 UV-I 23 W/m 10,5 C 3,2 km/h (1 Bft)
06.07.2016 20:43 16,7 C 16,7 C 68 % 1019,0 hPa 0,0 mm 1,3 km/h (1 Bft) NW 323 0 min 0,000 mm 0,0 UV-I 23 W/m 10,8 C 3,2 km/h (1 Bft)
06.07.2016 20:44 16,7 C 16,7 C 66 % 1019,0 hPa 0,0 mm 0,4 km/h (0 Bft) NW 323 0 min 0,000 mm 0,0 UV-I 21 W/m 10,3 C 1,6 km/h (1 Bft)
06.07.2016 20:45 16,7 C 16,7 C 68 % 1019,1 hPa 0,0 mm 1,5 km/h (1 Bft) NW 323 0 min 0,000 mm 0,0 UV-I 21 W/m 10,8 C 3,2 km/h (1 Bft)
06.07.2016 20:46 16,7 C 16,7 C 66 % 1019,1 hPa 0,0 mm 1,0 km/h (0 Bft) NW 323 0 min 0,000 mm 0,0 UV-I 19 W/m 10,3 C 1,6 km/h (1 Bft)
06.07.2016 20:47 16,7 C 16,7 C 68 % 1019,1 hPa 0,0 mm 0,1 km/h (0 Bft) NW 323 0 min 0,000 mm 0,0 UV-I 19 W/m 10,8 C 1,6 km/h (1 Bft)
06.07.2016 20:48 16,7 C 16,7 C 68 % 1019,1 hPa 0,0 mm 0,3 km/h (0 Bft) NW 323 0 min 0,000 mm 0,0 UV-I 19 W/m 10,8 C 1,6 km/h (1 Bft)
06.07.2016 20:49 16,6 C 16,7 C 68 % 1019,1 hPa 0,0 mm 0,1 km/h (0 Bft) NW 323 0 min 0,000 mm 0,0 UV-I 19 W/m 10,7 C 1,6 km/h (1 Bft)
06.07.2016 20:50 16,6 C 16,6 C 70 % 1019,1 hPa 0,0 mm 0,7 km/h (0 Bft) NW 323 0 min 0,000 mm 0,0 UV-I 19 W/m 11,1 C 1,6 km/h (1 Bft)
06.07.2016 20:51 16,5 C 16,6 C 69 % 1019,1 hPa 0,0 mm 0,2 km/h (0 Bft) NW 323 0 min 0,000 mm 0,0 UV-I 21 W/m 10,8 C 1,6 km/h (1 Bft)
06.07.2016 20:52 16,4 C 16,5 C 69 % 1019,1 hPa 0,0 mm 0,0 km/h (0 Bft) NW 323 0 min 0,000 mm 0,0 UV-I 21 W/m 10,7 C 0,0 km/h (0 Bft)
06.07.2016 20:53 16,4 C 16,4 C 67 % 1019,1 hPa 0,0 mm 0,0 km/h (0 Bft) NW 323 0 min 0,000 mm 0,0 UV-I 21 W/m 10,3 C 0,0 km/h (0 Bft)
06.07.2016 20:54 16,4 C 16,4 C 69 % 1019,1 hPa 0,0 mm 0,0 km/h (0 Bft) NW 323 0 min 0,000 mm 0,0 UV-I 19 W/m 10,7 C 0,0 km/h (0 Bft)
06.07.2016 20:55 16,4 C 16,4 C 69 % 1019,1 hPa 0,0 mm 0,0 km/h (0 Bft) NW 323 0 min 0,000 mm 0,0 UV-I 18 W/m 10,7 C 0,0 km/h (0 Bft)
06.07.2016 20:56 16,4 C 16,4 C 70 % 1019,1 hPa 0,0 mm 0,0 km/h (0 Bft) NW 323 0 min 0,000 mm 0,0 UV-I 14 W/m 10,9 C 0,0 km/h (0 Bft)
06.07.2016 20:57 16,3 C 16,4 C 70 % 1019,1 hPa 0,0 mm 0,0 km/h (0 Bft) NW 323 0 min 0,000 mm 0,0 UV-I 12 W/m 10,8 C 0,0 km/h (0 Bft)
06.07.2016 20:58 16,3 C 16,4 C 71 % 1019,1 hPa 0,0 mm 0,0 km/h (0 Bft) NW 323 0 min 0,000 mm 0,0 UV-I 11 W/m 11,0 C 0,0 km/h (0 Bft)
06.07.2016 20:59 16,3 C 16,3 C 69 % 1019,1 hPa 0,0 mm 0,3 km/h (0 Bft) NW 323 0 min 0,000 mm 0,0 UV-I 11 W/m 10,6 C 1,6 km/h (1 Bft)
06.07.2016 21:00 16,2 C 16,3 C 70 % 1019,1 hPa 0,0 mm 0,7 km/h (0 Bft) NW 323 0 min 0,000 mm 0,0 UV-I 11 W/m 10,7 C 1,6 km/h (1 Bft)
06.07.2016 21:01 16,2 C 16,2 C 70 % 1019,1 hPa 0,0 mm 0,7 km/h (0 Bft) NW 323 0 min 0,025 mm 0,0 UV-I 11 W/m 10,7 C 1,6 km/h (1 Bft)
06.07.2016 21:02 16,2 C 16,2 C 70 % 1019,1 hPa 0,0 mm 0,9 km/h (0 Bft) NW 323 1 min 0,001 mm 0,0 UV-I 11 W/m 10,7 C 1,6 km/h (1 Bft)
06.07.2016 21:03 16,1 C 16,2 C 71 % 1019,1 hPa 0,0 mm 0,6 km/h (0 Bft) NW 323 1 min 0,000 mm 0,0 UV-I 9 W/m 10,8 C 1,6 km/h (1 Bft)
06.07.2016 21:04 16,1 C 16,1 C 73 % 1019,1 hPa 0,0 mm 1,1 km/h (1 Bft) NW 323 0 min 0,000 mm 0,0 UV-I 9 W/m 11,3 C 1,6 km/h (1 Bft)
06.07.2016 21:05 16,0 C 16,1 C 72 % 1019,1 hPa 0,0 mm 1,4 km/h (1 Bft) NW 324 0 min 0,000 mm 0,0 UV-I 7 W/m 11,0 C 1,6 km/h (1 Bft)
06.07.2016 21:06 15,9 C 16,0 C 71 % 1019,2 hPa 0,0 mm 2,0 km/h (1 Bft) NW 324 0 min 0,000 mm 0,0 UV-I 7 W/m 10,6 C 3,2 km/h (1 Bft)
06.07.2016 21:07 15,9 C 15,9 C 71 % 1019,2 hPa 0,0 mm 0,5 km/h (0 Bft) NW 324 0 min 0,000 mm 0,0 UV-I 5 W/m 10,6 C 1,6 km/h (1 Bft)
06.07.2016 21:08 15,8 C 15,9 C 75 % 1019,2 hPa 0,0 mm 0,3 km/h (0 Bft) NW 324 0 min 0,000 mm 0,0 UV-I 5 W/m 11,4 C 1,6 km/h (1 Bft)
06.07.2016 21:09 15,7 C 15,8 C 76 % 1019,2 hPa 0,0 mm 1,5 km/h (1 Bft) NW 324 0 min 0,000 mm 0,0 UV-I 5 W/m 11,5 C 3,2 km/h (1 Bft)
06.07.2016 21:10 15,6 C 15,7 C 75 % 1019,2 hPa 0,0 mm 0,4 km/h (0 Bft) NW 324 0 min 0,000 mm 0,0 UV-I 5 W/m 11,2 C 1,6 km/h (1 Bft)
06.07.2016 21:11 15,4 C 15,6 C 75 % 1019,3 hPa 0,0 mm 0,0 km/h (0 Bft) NW 324 0 min 0,000 mm 0,0 UV-I 5 W/m 11,0 C 0,0 km/h (0 Bft)
06.07.2016 21:12 15,4 C 15,4 C 75 % 1019,3 hPa 0,0 mm 0,0 km/h (0 Bft) NW 324 0 min 0,000 mm 0,0 UV-I 5 W/m 11,0 C 0,0 km/h (0 Bft)
06.07.2016 21:13 15,4 C 15,4 C 75 % 1019,3 hPa 0,0 mm 0,1 km/h (0 Bft) NW 324 0 min 0,000 mm 0,0 UV-I 5 W/m 11,0 C 1,6 km/h (1 Bft)
06.07.2016 21:14 15,3 C 15,4 C 77 % 1019,3 hPa 0,0 mm 0,4 km/h (0 Bft) NW 324 0 min 0,000 mm 0,0 UV-I 5 W/m 11,3 C 1,6 km/h (1 Bft)
06.07.2016 21:15 15,2 C 15,3 C 78 % 1019,3 hPa 0,0 mm 0,3 km/h (0 Bft) NW 324 0 min 0,000 mm 0,0 UV-I 5 W/m 11,4 C 1,6 km/h (1 Bft)
06.07.2016 21:16 15,2 C 15,2 C 78 % 1019,3 hPa 0,0 mm 1,8 km/h (1 Bft) O-NO 63 0 min 0,000 mm 0,0 UV-I 5 W/m 11,4 C 3,2 km/h (1 Bft)
06.07.2016 21:17 15,2 C 15,2 C 77 % 1019,3 hPa 0,0 mm 1,6 km/h (1 Bft) O-NO 63 0 min 0,000 mm 0,0 UV-I 5 W/m 11,2 C 3,2 km/h (1 Bft)
06.07.2016 21:18 15,2 C 15,2 C 75 % 1019,3 hPa 0,0 mm 1,2 km/h (1 Bft) O-NO 63 0 min 0,000 mm 0,0 UV-I 0 W/m 10,8 C 3,2 km/h (1 Bft)
06.07.2016 21:19 15,2 C 15,3 C 77 % 1019,4 hPa 0,0 mm 2,3 km/h (1 Bft) O-NO 63 0 min 0,000 mm 0,0 UV-I 0 W/m 11,2 C 3,2 km/h (1 Bft)
06.07.2016 21:20 15,3 C 15,3 C 74 % 1019,4 hPa 0,0 mm 0,7 km/h (0 Bft) O-NO 63 0 min 0,000 mm 0,0 UV-I 0 W/m 10,7 C 1,6 km/h (1 Bft)
06.07.2016 21:21 15,3 C 15,3 C 73 % 1019,4 hPa 0,0 mm 0,1 km/h (0 Bft) O-NO 63 0 min 0,000 mm 0,0 UV-I 0 W/m 10,5 C 1,6 km/h (1 Bft)
06.07.2016 21:22 15,3 C 15,3 C 74 % 1019,4 hPa 0,0 mm 0,5 km/h (0 Bft) O-NO 63 0 min 0,000 mm 0,0 UV-I 0 W/m 10,7 C 1,6 km/h (1 Bft)
06.07.2016 21:23 15,4 C 15,4 C 75 % 1019,4 hPa 0,0 mm 0,9 km/h (0 Bft) O-NO 63 0 min 0,000 mm 0,0 UV-I 0 W/m 11,0 C 1,6 km/h (1 Bft)
06.07.2016 21:24 15,4 C 15,4 C 74 % 1019,4 hPa 0,0 mm 1,0 km/h (0 Bft) O-NO 67 0 min 0,000 mm 0,0 UV-I 0 W/m 10,8 C 1,6 km/h (1 Bft)
06.07.2016 21:25 15,4 C 15,4 C 74 % 1019,4 hPa 0,0 mm 1,2 km/h (1 Bft) O-NO 74 0 min 0,000 mm 0,0 UV-I 0 W/m 10,8 C 3,2 km/h (1 Bft)
06.07.2016 21:26 15,4 C 15,4 C 73 % 1019,4 hPa 0,0 mm 0,0 km/h (0 Bft) O-NO 74 0 min 0,000 mm 0,0 UV-I 0 W/m 10,6 C 0,0 km/h (0 Bft)
06.07.2016 21:27 15,5 C 15,5 C 72 % 1019,5 hPa 0,0 mm 0,0 km/h (0 Bft) O-NO 74 0 min 0,000 mm 0,0 UV-I 0 W/m 10,5 C 0,0 km/h (0 Bft)
06.07.2016 21:28 15,5 C 15,5 C 74 % 1019,5 hPa 0,0 mm 0,0 km/h (0 Bft) O-NO 74 0 min 0,000 mm 0,0 UV-I 0 W/m 10,9 C 0,0 km/h (0 Bft)
06.07.2016 21:29 15,5 C 15,6 C 74 % 1019,5 hPa 0,0 mm 0,3 km/h (0 Bft) O-NO 74 0 min 0,000 mm 0,0 UV-I 0 W/m 10,9 C 3,2 km/h (1 Bft)
06.07.2016 21:30 15,4 C 15,5 C 74 % 1019,4 hPa 0,0 mm 1,7 km/h (1 Bft) O-NO 74 0 min 0,000 mm 0,0 UV-I 0 W/m 10,8 C 3,2 km/h (1 Bft)
06.07.2016 21:31 15,4 C 15,4 C 70 % 1019,5 hPa 0,0 mm 0,8 km/h (0 Bft) O-NO 74 0 min 0,000 mm 0,0 UV-I 0 W/m 10,0 C 1,6 km/h (1 Bft)
06.07.2016 21:32 15,4 C 15,4 C 73 % 1019,5 hPa 0,0 mm 2,7 km/h (1 Bft) O-NO 74 0 min 0,000 mm 0,0 UV-I 0 W/m 10,6 C 3,2 km/h (1 Bft)
06.07.2016 21:33 15,4 C 15,4 C 72 % 1019,5 hPa 0,0 mm 1,8 km/h (1 Bft) O-NO 74 0 min 0,000 mm 0,0 UV-I 0 W/m 10,4 C 3,2 km/h (1 Bft)
06.07.2016 21:34 15,4 C 15,4 C 73 % 1019,5 hPa 0,0 mm 1,5 km/h (1 Bft) O-NO 74 0 min 0,000 mm 0,0 UV-I 0 W/m 10,6 C 3,2 km/h (1 Bft)
06.07.2016 21:35 15,3 C 15,4 C 72 % 1019,6 hPa 0,0 mm 2,1 km/h (1 Bft) O-NO 74 0 min 0,000 mm 0,0 UV-I 0 W/m 10,3 C 3,2 km/h (1 Bft)
06.07.2016 21:36 15,4 C 15,4 C 70 % 1019,5 hPa 0,0 mm 1,9 km/h (1 Bft) O-NO 76 0 min 0,000 mm 0,0 UV-I 0 W/m 10,0 C 3,2 km/h (1 Bft)
06.07.2016 21:37 15,4 C 15,4 C 70 % 1019,6 hPa 0,0 mm 1,9 km/h (1 Bft) O-NO 76 0 min 0,000 mm 0,0 UV-I 0 W/m 10,0 C 3,2 km/h (1 Bft)
06.07.2016 21:38 15,3 C 15,4 C 73 % 1019,6 hPa 0,0 mm 2,1 km/h (1 Bft) O-NO 76 0 min 0,000 mm 0,0 UV-I 0 W/m 10,5 C 3,2 km/h (1 Bft)
06.07.2016 21:39 15,3 C 15,3 C 72 % 1019,7 hPa 0,0 mm 2,6 km/h (1 Bft) O 93 0 min 0,000 mm 0,0 UV-I 0 W/m 10,3 C 3,2 km/h (1 Bft)
06.07.2016 21:40 15,3 C 15,3 C 71 % 1019,6 hPa 0,0 mm 0,4 km/h (0 Bft) O 94 0 min 0,000 mm 0,0 UV-I 0 W/m 10,1 C 1,6 km/h (1 Bft)
06.07.2016 21:41 15,3 C 15,3 C 70 % 1019,7 hPa 0,0 mm 0,7 km/h (0 Bft) O 94 0 min 0,000 mm 0,0 UV-I 0 W/m 9,9 C 1,6 km/h (1 Bft)
06.07.2016 21:42 15,4 C 15,4 C 70 % 1019,7 hPa 0,0 mm 1,1 km/h (1 Bft) O 94 0 min 0,000 mm 0,0 UV-I 0 W/m 10,0 C 1,6 km/h (1 Bft)
06.07.2016 21:43 15,4 C 15,4 C 71 % 1019,7 hPa 0,0 mm 1,3 km/h (1 Bft) O 94 0 min 0,000 mm 0,0 UV-I 0 W/m 10,2 C 3,2 km/h (1 Bft)
06.07.2016 21:44 15,3 C 15,4 C 72 % 1019,7 hPa 0,0 mm 1,4 km/h (1 Bft) O 94 0 min 0,000 mm 0,0 UV-I 0 W/m 10,3 C 1,6 km/h (1 Bft)
06.07.2016 21:45 15,3 C 15,4 C 72 % 1019,7 hPa 0,0 mm 2,0 km/h (1 Bft) O-SO 111 0 min 0,000 mm 0,0 UV-I 0 W/m 10,3 C 3,2 km/h (1 Bft)
06.07.2016 21:46 15,3 C 15,3 C 71 % 1019,8 hPa 0,0 mm 1,3 km/h (1 Bft) O-SO 111 0 min 0,000 mm 0,0 UV-I 0 W/m 10,1 C 1,6 km/h (1 Bft)
06.07.2016 21:47 15,3 C 15,3 C 70 % 1019,8 hPa 0,0 mm 2,5 km/h (1 Bft) O-SO 111 0 min 0,000 mm 0,0 UV-I 0 W/m 9,9 C 3,2 km/h (1 Bft)
06.07.2016 21:48 15,3 C 15,3 C 73 % 1019,8 hPa 0,0 mm 2,3 km/h (1 Bft) O-SO 111 0 min 0,000 mm 0,0 UV-I 0 W/m 10,5 C 3,2 km/h (1 Bft)
06.07.2016 21:49 15,3 C 15,3 C 71 % 1019,8 hPa 0,0 mm 2,1 km/h (1 Bft) O-SO 111 0 min 0,000 mm 0,0 UV-I 0 W/m 10,1 C 4,8 km/h (1 Bft)
06.07.2016 21:50 15,3 C 15,3 C 73 % 1019,8 hPa 0,0 mm 2,3 km/h (1 Bft) O-SO 111 0 min 0,000 mm 0,0 UV-I 0 W/m 10,5 C 3,2 km/h (1 Bft)
06.07.2016 21:51 15,2 C 15,3 C 72 % 1019,8 hPa 0,0 mm 2,3 km/h (1 Bft) O-SO 111 0 min 0,000 mm 0,0 UV-I 0 W/m 10,2 C 3,2 km/h (1 Bft)
06.07.2016 21:52 15,2 C 15,2 C 73 % 1019,8 hPa 0,0 mm 1,8 km/h (1 Bft) O-SO 111 0 min 0,000 mm 0,0 UV-I 0 W/m 10,4 C 3,2 km/h (1 Bft)
06.07.2016 21:53 15,2 C 15,2 C 73 % 1019,9 hPa 0,0 mm 2,4 km/h (1 Bft) O-SO 111 0 min 0,000 mm 0,0 UV-I 0 W/m 10,4 C 3,2 km/h (1 Bft)
06.07.2016 21:54 15,2 C 15,2 C 75 % 1019,8 hPa 0,0 mm 1,8 km/h (1 Bft) O-SO 111 0 min 0,000 mm 0,0 UV-I 0 W/m 10,8 C 3,2 km/h (1 Bft)
06.07.2016 21:55 15,1 C 15,2 C 75 % 1019,9 hPa 0,0 mm 1,4 km/h (1 Bft) O-SO 111 0 min 0,000 mm 0,0 UV-I 0 W/m 10,7 C 3,2 km/h (1 Bft)
06.07.2016 21:56 15,1 C 15,1 C 73 % 1019,9 hPa 0,0 mm 0,6 km/h (0 Bft) O-SO 111 0 min 0,000 mm 0,0 UV-I 0 W/m 10,3 C 1,6 km/h (1 Bft)
06.07.2016 21:57 15,1 C 15,1 C 73 % 1019,9 hPa 0,0 mm 2,3 km/h (1 Bft) O-SO 111 0 min 0,000 mm 0,0 UV-I 0 W/m 10,3 C 3,2 km/h (1 Bft)
06.07.2016 21:58 15,1 C 15,1 C 73 % 1019,9 hPa 0,0 mm 2,0 km/h (1 Bft) O-SO 111 0 min 0,000 mm 0,0 UV-I 0 W/m 10,3 C 3,2 km/h (1 Bft)
06.07.2016 21:59 15,1 C 15,1 C 74 % 1019,9 hPa 0,0 mm 1,5 km/h (1 Bft) O-SO 111 0 min 0,000 mm 0,0 UV-I 0 W/m 10,5 C 3,2 km/h (1 Bft)
06.07.2016 22:00 15,1 C 15,1 C 74 % 1019,9 hPa 0,0 mm 0,7 km/h (0 Bft) O-SO 111 0 min 0,000 mm 0,0 UV-I 0 W/m 10,5 C 1,6 km/h (1 Bft)
06.07.2016 22:01 15,0 C 15,1 C 74 % 1019,9 hPa 0,0 mm 0,9 km/h (0 Bft) O-SO 111 0 min 0,000 mm 0,0 UV-I 0 W/m 10,4 C 1,6 km/h (1 Bft)
06.07.2016 22:02 14,9 C 15,0 C 73 % 1019,9 hPa 0,0 mm 0,4 km/h (0 Bft) O-SO 111 0 min 0,000 mm 0,0 UV-I 0 W/m 10,1 C 1,6 km/h (1 Bft)
06.07.2016 22:03 14,9 C 14,9 C 73 % 1019,9 hPa 0,0 mm 0,5 km/h (0 Bft) O-SO 111 0 min 0,000 mm 0,0 UV-I 0 W/m 10,1 C 1,6 km/h (1 Bft)
06.07.2016 22:04 14,9 C 14,9 C 75 % 1019,9 hPa 0,0 mm 0,1 km/h (0 Bft) O-SO 111 0 min 0,000 mm 0,0 UV-I 0 W/m 10,5 C 1,6 km/h (1 Bft)
06.07.2016 22:05 14,8 C 14,9 C 76 % 1020,0 hPa 0,0 mm 0,0 km/h (0 Bft) O-SO 111 0 min 0,000 mm 0,0 UV-I 0 W/m 10,6 C 0,0 km/h (0 Bft)
06.07.2016 22:06 14,7 C 14,8 C 78 % 1019,9 hPa 0,0 mm 0,0 km/h (0 Bft) O-SO 111 0 min 0,000 mm 0,0 UV-I 0 W/m 10,9 C 0,0 km/h (0 Bft)
06.07.2016 22:07 14,6 C 14,7 C 78 % 1020,0 hPa 0,0 mm 0,0 km/h (0 Bft) O-SO 111 0 min 0,000 mm 0,0 UV-I 0 W/m 10,8 C 0,0 km/h (0 Bft)
06.07.2016 22:08 14,6 C 14,6 C 78 % 1019,9 hPa 0,0 mm 0,0 km/h (0 Bft) O-SO 111 0 min 0,000 mm 0,0 UV-I 0 W/m 10,8 C 0,0 km/h (0 Bft)
06.07.2016 22:09 14,4 C 14,6 C 78 % 1020,0 hPa 0,0 mm 0,0 km/h (0 Bft) O-SO 111 0 min 0,000 mm 0,0 UV-I 0 W/m 10,6 C 0,0 km/h (0 Bft)
06.07.2016 22:10 14,4 C 14,4 C 79 % 1020,0 hPa 0,0 mm 0,0 km/h (0 Bft) O-SO 111 0 min 0,000 mm 0,0 UV-I 0 W/m 10,8 C 0,0 km/h (0 Bft)
06.07.2016 22:11 14,3 C 14,4 C 79 % 1020,0 hPa 0,0 mm 0,0 km/h (0 Bft) O-SO 111 0 min 0,000 mm 0,0 UV-I 0 W/m 10,7 C 0,0 km/h (0 Bft)
06.07.2016 22:12 14,3 C 14,3 C 80 % 1020,0 hPa 0,0 mm 0,0 km/h (0 Bft) O-SO 111 0 min 0,000 mm 0,0 UV-I 0 W/m 10,9 C 0,0 km/h (0 Bft)
06.07.2016 22:13 14,2 C 14,3 C 80 % 1020,0 hPa 0,0 mm 0,1 km/h (0 Bft) O-SO 111 0 min 0,000 mm 0,0 UV-I 0 W/m 10,8 C 1,6 km/h (1 Bft)
06.07.2016 22:14 14,2 C 14,2 C 80 % 1020,0 hPa 0,0 mm 0,2 km/h (0 Bft) O-SO 111 0 min 0,000 mm 0,0 UV-I 0 W/m 10,8 C 1,6 km/h (1 Bft)
06.07.2016 22:15 14,2 C 14,2 C 79 % 1020,0 hPa 0,0 mm 0,0 km/h (0 Bft) O-SO 111 0 min 0,000 mm 0,0 UV-I 0 W/m 10,6 C 0,0 km/h (0 Bft)
06.07.2016 22:16 14,2 C 14,2 C 80 % 1020,0 hPa 0,0 mm 0,0 km/h (0 Bft) O-SO 111 0 min 0,000 mm 0,0 UV-I 0 W/m 10,8 C 0,0 km/h (0 Bft)
06.07.2016 22:17 14,1 C 14,2 C 80 % 1020,0 hPa 0,0 mm 1,2 km/h (1 Bft) O-SO 111 0 min 0,000 mm 0,0 UV-I 0 W/m 10,7 C 3,2 km/h (1 Bft)
06.07.2016 22:18 14,1 C 14,1 C 80 % 1020,0 hPa 0,0 mm 1,5 km/h (1 Bft) O-SO 111 0 min 0,000 mm 0,0 UV-I 0 W/m 10,7 C 3,2 km/h (1 Bft)
06.07.2016 22:19 14,0 C 14,1 C 81 % 1020,1 hPa 0,0 mm 1,6 km/h (1 Bft) O-SO 111 0 min 0,000 mm 0,0 UV-I 0 W/m 10,8 C 1,6 km/h (1 Bft)
06.07.2016 22:20 14,0 C 14,0 C 81 % 1020,0 hPa 0,0 mm 1,8 km/h (1 Bft) O-SO 111 0 min 0,000 mm 0,0 UV-I 0 W/m 10,8 C 3,2 km/h (1 Bft)
06.07.2016 22:21 14,0 C 14,0 C 80 % 1020,0 hPa 0,0 mm 1,6 km/h (1 Bft) O-SO 111 0 min 0,000 mm 0,0 UV-I 0 W/m 10,6 C 1,6 km/h (1 Bft)
06.07.2016 22:22 14,0 C 14,0 C 80 % 1020,1 hPa 0,0 mm 2,0 km/h (1 Bft) O-SO 111 0 min 0,000 mm 0,0 UV-I 0 W/m 10,6 C 3,2 km/h (1 Bft)
06.07.2016 22:23 14,0 C 14,0 C 79 % 1020,0 hPa 0,0 mm 1,3 km/h (1 Bft) O-SO 111 0 min 0,000 mm 0,0 UV-I 0 W/m 10,4 C 1,6 km/h (1 Bft)
06.07.2016 22:24 14,0 C 14,1 C 80 % 1020,0 hPa 0,0 mm 0,3 km/h (0 Bft) O-SO 111 0 min 0,000 mm 0,0 UV-I 0 W/m 10,6 C 1,6 km/h (1 Bft)
06.07.2016 22:25 14,0 C 14,0 C 80 % 1020,0 hPa 0,0 mm 0,0 km/h (0 Bft) O-SO 111 0 min 0,000 mm 0,0 UV-I 0 W/m 10,6 C 0,0 km/h (0 Bft)
06.07.2016 22:26 13,8 C 14,0 C 81 % 1020,1 hPa 0,0 mm 0,0 km/h (0 Bft) O-SO 111 0 min 0,000 mm 0,0 UV-I 0 W/m 10,6 C 0,0 km/h (0 Bft)
06.07.2016 22:27 13,8 C 13,8 C 81 % 1020,1 hPa 0,0 mm 0,1 km/h (0 Bft) O-SO 111 0 min 0,000 mm 0,0 UV-I 0 W/m 10,6 C 1,6 km/h (1 Bft)
06.07.2016 22:28 13,7 C 13,8 C 81 % 1020,1 hPa 0,0 mm 0,2 km/h (0 Bft) O-SO 111 0 min 0,000 mm 0,0 UV-I 0 W/m 10,5 C 1,6 km/h (1 Bft)
06.07.2016 22:29 13,7 C 13,7 C 80 % 1020,1 hPa 0,0 mm 1,3 km/h (1 Bft) O-SO 111 0 min 0,000 mm 0,0 UV-I 0 W/m 10,3 C 3,2 km/h (1 Bft)
06.07.2016 22:30 13,7 C 13,7 C 79 % 1020,0 hPa 0,0 mm 1,6 km/h (1 Bft) O-SO 111 0 min 0,000 mm 0,0 UV-I 0 W/m 10,1 C 3,2 km/h (1 Bft)
06.07.2016 22:31 13,7 C 13,8 C 79 % 1020,0 hPa 0,0 mm 0,3 km/h (0 Bft) O-SO 111 0 min 0,000 mm 0,0 UV-I 0 W/m 10,1 C 1,6 km/h (1 Bft)
06.07.2016 22:32 13,7 C 13,7 C 79 % 1020,0 hPa 0,0 mm 0,5 km/h (0 Bft) O-SO 111 0 min 0,000 mm 0,0 UV-I 0 W/m 10,1 C 1,6 km/h (1 Bft)
06.07.2016 22:33 13,7 C 13,7 C 81 % 1020,0 hPa 0,0 mm 1,7 km/h (1 Bft) O-SO 111 0 min 0,000 mm 0,0 UV-I 0 W/m 10,5 C 3,2 km/h (1 Bft)
06.07.2016 22:34 13,6 C 13,7 C 81 % 1020,0 hPa 0,0 mm 1,3 km/h (1 Bft) O-SO 111 0 min 0,000 mm 0,0 UV-I 0 W/m 10,4 C 1,6 km/h (1 Bft)
06.07.2016 22:35 13,5 C 13,6 C 81 % 1020,0 hPa 0,0 mm 1,1 km/h (1 Bft) O-SO 111 0 min 0,000 mm 0,0 UV-I 0 W/m 10,3 C 1,6 km/h (1 Bft)
06.07.2016 22:36 13,4 C 13,5 C 82 % 1020,0 hPa 0,0 mm 2,1 km/h (1 Bft) O-SO 111 0 min 0,000 mm 0,0 UV-I 0 W/m 10,4 C 3,2 km/h (1 Bft)
06.07.2016 22:37 13,3 C 13,4 C 81 % 1020,0 hPa 0,0 mm 3,1 km/h (1 Bft) O-SO 111 0 min 0,000 mm 0,0 UV-I 0 W/m 10,1 C 3,2 km/h (1 Bft)
06.07.2016 22:38 13,3 C 13,3 C 81 % 1020,0 hPa 0,0 mm 3,2 km/h (1 Bft) O-SO 111 0 min 0,000 mm 0,0 UV-I 0 W/m 10,1 C 3,2 km/h (1 Bft)
06.07.2016 22:39 13,3 C 13,3 C 81 % 1020,1 hPa 0,0 mm 2,3 km/h (1 Bft) O-SO 111 0 min 0,000 mm 0,0 UV-I 0 W/m 10,1 C 3,2 km/h (1 Bft)
06.07.2016 22:40 13,3 C 13,3 C 81 % 1020,0 hPa 0,0 mm 1,7 km/h (1 Bft) O-SO 111 0 min 0,000 mm 0,0 UV-I 0 W/m 10,1 C 3,2 km/h (1 Bft)
06.07.2016 22:41 13,3 C 13,3 C 80 % 1020,0 hPa 0,0 mm 1,7 km/h (1 Bft) O-SO 111 0 min 0,000 mm 0,0 UV-I 0 W/m 9,9 C 3,2 km/h (1 Bft)
06.07.2016 22:42 13,3 C 13,3 C 81 % 1020,0 hPa 0,0 mm 0,6 km/h (0 Bft) O-SO 111 0 min 0,000 mm 0,0 UV-I 0 W/m 10,1 C 1,6 km/h (1 Bft)
06.07.2016 22:43 13,3 C 13,3 C 81 % 1020,0 hPa 0,0 mm 0,1 km/h (0 Bft) O-SO 111 0 min 0,000 mm 0,0 UV-I 0 W/m 10,1 C 1,6 km/h (1 Bft)
06.07.2016 22:44 13,2 C 13,3 C 81 % 1020,0 hPa 0,0 mm 0,3 km/h (0 Bft) O-SO 111 0 min 0,000 mm 0,0 UV-I 0 W/m 10,0 C 1,6 km/h (1 Bft)
06.07.2016 22:45 13,1 C 13,2 C 82 % 1020,1 hPa 0,0 mm 0,3 km/h (0 Bft) O-SO 111 0 min 0,000 mm 0,0 UV-I 0 W/m 10,1 C 1,6 km/h (1 Bft)
06.07.2016 22:46 13,0 C 13,1 C 82 % 1020,0 hPa 0,0 mm 0,1 km/h (0 Bft) O-SO 111 0 min 0,000 mm 0,0 UV-I 0 W/m 10,0 C 1,6 km/h (1 Bft)
06.07.2016 22:47 13,1 C 13,1 C 82 % 1020,1 hPa 0,0 mm 0,0 km/h (0 Bft) O-SO 111 0 min 0,000 mm 0,0 UV-I 0 W/m 10,1 C 0,0 km/h (0 Bft)
06.07.2016 22:48 13,0 C 13,1 C 82 % 1020,1 hPa 0,0 mm 0,7 km/h (0 Bft) O-SO 111 0 min 0,000 mm 0,0 UV-I 0 W/m 10,0 C 1,6 km/h (1 Bft)
06.07.2016 22:49 12,9 C 13,0 C 81 % 1020,1 hPa 0,0 mm 0,5 km/h (0 Bft) O-SO 111 0 min 0,000 mm 0,0 UV-I 0 W/m 9,7 C 1,6 km/h (1 Bft)
06.07.2016 22:50 12,8 C 12,9 C 82 % 1020,1 hPa 0,0 mm 0,5 km/h (0 Bft) O-SO 111 0 min 0,000 mm 0,0 UV-I 0 W/m 9,8 C 1,6 km/h (1 Bft)
06.07.2016 22:51 12,8 C 12,8 C 83 % 1020,1 hPa 0,0 mm 1,1 km/h (1 Bft) O-SO 111 0 min 0,000 mm 0,0 UV-I 0 W/m 10,0 C 3,2 km/h (1 Bft)
06.07.2016 22:52 12,8 C 12,8 C 83 % 1020,1 hPa 0,0 mm 1,3 km/h (1 Bft) O-SO 111 0 min 0,000 mm 0,0 UV-I 0 W/m 10,0 C 1,6 km/h (1 Bft)
06.07.2016 22:53 12,7 C 12,8 C 83 % 1020,1 hPa 0,0 mm 1,3 km/h (1 Bft) O-SO 111 0 min 0,000 mm 0,0 UV-I 0 W/m 9,9 C 1,6 km/h (1 Bft)
06.07.2016 22:54 12,7 C 12,7 C 83 % 1020,1 hPa 0,0 mm 1,3 km/h (1 Bft) O-SO 111 0 min 0,000 mm 0,0 UV-I 0 W/m 9,9 C 1,6 km/h (1 Bft)
06.07.2016 22:55 12,7 C 12,7 C 83 % 1020,1 hPa 0,0 mm 1,3 km/h (1 Bft) O-SO 111 0 min 0,000 mm 0,0 UV-I 0 W/m 9,9 C 3,2 km/h (1 Bft)
06.07.2016 22:56 12,7 C 12,7 C 83 % 1020,2 hPa 0,0 mm 2,5 km/h (1 Bft) O-SO 111 0 min 0,000 mm 0,0 UV-I 0 W/m 9,9 C 3,2 km/h (1 Bft)
06.07.2016 22:57 12,8 C 12,8 C 82 % 1020,2 hPa 0,0 mm 1,9 km/h (1 Bft) O-SO 111 0 min 0,000 mm 0,0 UV-I 0 W/m 9,8 C 3,2 km/h (1 Bft)
06.07.2016 22:58 12,7 C 12,8 C 82 % 1020,3 hPa 0,0 mm 1,4 km/h (1 Bft) O-SO 111 0 min 0,000 mm 0,0 UV-I 0 W/m 9,7 C 3,2 km/h (1 Bft)
06.07.2016 22:59 12,8 C 12,8 C 82 % 1020,3 hPa 0,0 mm 2,6 km/h (1 Bft) SO 146 0 min 0,000 mm 0,0 UV-I 0 W/m 9,8 C 3,2 km/h (1 Bft)
06.07.2016 23:00 12,8 C 12,8 C 82 % 1020,3 hPa 0,0 mm 2,3 km/h (1 Bft) S-SO 149 0 min 0,000 mm 0,0 UV-I 0 W/m 9,8 C 3,2 km/h (1 Bft)
06.07.2016 23:01 12,8 C 12,8 C 82 % 1020,3 hPa 0,0 mm 2,2 km/h (1 Bft) S-SO 154 0 min 0,025 mm 0,0 UV-I 0 W/m 9,8 C 3,2 km/h (1 Bft)
06.07.2016 23:02 12,8 C 12,8 C 82 % 1020,3 hPa 0,0 mm 3,0 km/h (1 Bft) S-SO 167 0 min 0,000 mm 0,0 UV-I 0 W/m 9,8 C 6,4 km/h (2 Bft)
06.07.2016 23:03 12,8 C 12,8 C 82 % 1020,3 hPa 0,0 mm 1,1 km/h (1 Bft) S-SO 167 0 min 0,000 mm 0,0 UV-I 0 W/m 9,8 C 1,6 km/h (1 Bft)
06.07.2016 23:04 12,7 C 12,8 C 82 % 1020,3 hPa 0,0 mm 0,3 km/h (0 Bft) S-SO 167 0 min 0,000 mm 0,0 UV-I 0 W/m 9,7 C 1,6 km/h (1 Bft)
06.07.2016 23:05 12,6 C 12,7 C 82 % 1020,3 hPa 0,0 mm 0,2 km/h (0 Bft) S-SO 167 0 min 0,000 mm 0,0 UV-I 0 W/m 9,6 C 1,6 km/h (1 Bft)
06.07.2016 23:06 12,6 C 12,6 C 83 % 1020,3 hPa 0,0 mm 0,0 km/h (0 Bft) S-SO 167 0 min 0,000 mm 0,0 UV-I 0 W/m 9,8 C 0,0 km/h (0 Bft)
06.07.2016 23:07 12,5 C 12,6 C 83 % 1020,3 hPa 0,0 mm 0,0 km/h (0 Bft) S-SO 167 0 min 0,000 mm 0,0 UV-I 0 W/m 9,7 C 0,0 km/h (0 Bft)
06.07.2016 23:08 12,4 C 12,5 C 83 % 1020,3 hPa 0,0 mm 0,1 km/h (0 Bft) S-SO 167 0 min 0,000 mm 0,0 UV-I 0 W/m 9,6 C 1,6 km/h (1 Bft)
06.07.2016 23:09 12,4 C 12,4 C 83 % 1020,2 hPa 0,0 mm 0,2 km/h (0 Bft) S-SO 167 0 min 0,000 mm 0,0 UV-I 0 W/m 9,6 C 1,6 km/h (1 Bft)
06.07.2016 23:10 12,4 C 12,4 C 83 % 1020,3 hPa 0,0 mm 1,3 km/h (1 Bft) S-SO 167 0 min 0,000 mm 0,0 UV-I 0 W/m 9,6 C 1,6 km/h (1 Bft)
06.07.2016 23:11 12,4 C 12,4 C 83 % 1020,3 hPa 0,0 mm 0,3 km/h (0 Bft) S-SO 167 0 min 0,000 mm 0,0 UV-I 0 W/m 9,6 C 1,6 km/h (1 Bft)
06.07.2016 23:12 12,4 C 12,4 C 83 % 1020,2 hPa 0,0 mm 0,5 km/h (0 Bft) S-SO 167 0 min 0,000 mm 0,0 UV-I 0 W/m 9,6 C 1,6 km/h (1 Bft)
06.07.2016 23:13 12,4 C 12,4 C 83 % 1020,3 hPa 0,0 mm 0,5 km/h (0 Bft) S-SO 167 0 min 0,000 mm 0,0 UV-I 0 W/m 9,6 C 1,6 km/h (1 Bft)
06.07.2016 23:14 12,3 C 12,4 C 83 % 1020,3 hPa 0,0 mm 2,7 km/h (1 Bft) S-SO 167 0 min 0,000 mm 0,0 UV-I 0 W/m 9,5 C 4,8 km/h (1 Bft)
06.07.2016 23:15 12,2 C 12,3 C 84 % 1020,3 hPa 0,0 mm 2,1 km/h (1 Bft) S-SO 167 0 min 0,000 mm 0,0 UV-I 0 W/m 9,6 C 4,8 km/h (1 Bft)
06.07.2016 23:16 12,1 C 12,2 C 84 % 1020,3 hPa 0,0 mm 1,6 km/h (1 Bft) S-SO 167 0 min 0,000 mm 0,0 UV-I 0 W/m 9,5 C 4,8 km/h (1 Bft)
06.07.2016 23:17 12,1 C 12,1 C 83 % 1020,3 hPa 0,0 mm 1,7 km/h (1 Bft) S-SO 167 0 min 0,000 mm 0,0 UV-I 0 W/m 9,3 C 4,8 km/h (1 Bft)
06.07.2016 23:18 12,1 C 12,1 C 83 % 1020,3 hPa 0,0 mm 1,5 km/h (1 Bft) S-SO 167 0 min 0,000 mm 0,0 UV-I 0 W/m 9,3 C 4,8 km/h (1 Bft)
06.07.2016 23:19 12,1 C 12,1 C 83 % 1020,3 hPa 0,0 mm 1,1 km/h (1 Bft) S-SO 167 0 min 0,000 mm 0,0 UV-I 0 W/m 9,3 C 4,8 km/h (1 Bft)
06.07.2016 23:20 12,1 C 12,1 C 83 % 1020,3 hPa 0,0 mm 1,9 km/h (1 Bft) S-SO 167 0 min 0,000 mm 0,0 UV-I 0 W/m 9,3 C 4,8 km/h (1 Bft)
06.07.2016 23:21 12,1 C 12,1 C 83 % 1020,3 hPa 0,0 mm 1,1 km/h (1 Bft) S-SO 167 0 min 0,000 mm 0,0 UV-I 0 W/m 9,3 C 4,8 km/h (1 Bft)
06.07.2016 23:22 12,1 C 12,1 C 83 % 1020,3 hPa 0,0 mm 0,7 km/h (0 Bft) S-SO 167 0 min 0,000 mm 0,0 UV-I 0 W/m 9,3 C 1,6 km/h (1 Bft)
06.07.2016 23:23 12,1 C 12,1 C 84 % 1020,3 hPa 0,0 mm 0,5 km/h (0 Bft) S-SO 167 0 min 0,000 mm 0,0 UV-I 0 W/m 9,5 C 1,6 km/h (1 Bft)
06.07.2016 23:24 12,1 C 12,1 C 84 % 1020,3 hPa 0,0 mm 0,4 km/h (0 Bft) S-SO 167 0 min 0,000 mm 0,0 UV-I 0 W/m 9,5 C 1,6 km/h (1 Bft)
06.07.2016 23:25 12,1 C 12,1 C 84 % 1020,3 hPa 0,0 mm 0,9 km/h (0 Bft) S-SO 167 0 min 0,000 mm 0,0 UV-I 0 W/m 9,5 C 1,6 km/h (1 Bft)
06.07.2016 23:26 12,0 C 12,1 C 84 % 1020,3 hPa 0,0 mm 1,9 km/h (1 Bft) S-SO 167 0 min 0,000 mm 0,0 UV-I 0 W/m 9,4 C 4,8 km/h (1 Bft)
06.07.2016 23:27 11,9 C 12,0 C 84 % 1020,3 hPa 0,0 mm 1,2 km/h (1 Bft) S-SO 167 0 min 0,000 mm 0,0 UV-I 0 W/m 9,3 C 1,6 km/h (1 Bft)
06.07.2016 23:28 11,9 C 12,0 C 84 % 1020,3 hPa 0,0 mm 0,3 km/h (0 Bft) S-SO 167 0 min 0,000 mm 0,0 UV-I 0 W/m 9,3 C 1,6 km/h (1 Bft)
06.07.2016 23:29 11,9 C 12,0 C 85 % 1020,3 hPa 0,0 mm 0,0 km/h (0 Bft) S-SO 167 0 min 0,000 mm 0,0 UV-I 0 W/m 9,5 C 0,0 km/h (0 Bft)
06.07.2016 23:30 11,9 C 11,9 C 84 % 1020,3 hPa 0,0 mm 0,0 km/h (0 Bft) S-SO 167 0 min 0,000 mm 0,0 UV-I 0 W/m 9,3 C 0,0 km/h (0 Bft)
06.07.2016 23:31 11,9 C 11,9 C 84 % 1020,3 hPa 0,0 mm 0,0 km/h (0 Bft) S-SO 167 0 min 0,000 mm 0,0 UV-I 0 W/m 9,3 C 0,0 km/h (0 Bft)
06.07.2016 23:32 11,9 C 11,9 C 84 % 1020,3 hPa 0,0 mm 0,0 km/h (0 Bft) S-SO 167 0 min 0,000 mm 0,0 UV-I 0 W/m 9,3 C 0,0 km/h (0 Bft)
06.07.2016 23:33 11,9 C 11,9 C 84 % 1020,3 hPa 0,0 mm 0,5 km/h (0 Bft) S-SO 167 0 min 0,000 mm 0,0 UV-I 0 W/m 9,3 C 1,6 km/h (1 Bft)
06.07.2016 23:34 11,9 C 11,9 C 84 % 1020,3 hPa 0,0 mm 2,5 km/h (1 Bft) S-SO 167 0 min 0,000 mm 0,0 UV-I 0 W/m 9,3 C 4,8 km/h (1 Bft)
06.07.2016 23:35 11,9 C 11,9 C 84 % 1020,3 hPa 0,0 mm 3,1 km/h (1 Bft) S-SO 167 0 min 0,000 mm 0,0 UV-I 0 W/m 9,3 C 4,8 km/h (1 Bft)
06.07.2016 23:36 11,9 C 11,9 C 84 % 1020,3 hPa 0,0 mm 1,7 km/h (1 Bft) S-SO 167 0 min 0,000 mm 0,0 UV-I 0 W/m 9,3 C 4,8 km/h (1 Bft)
06.07.2016 23:37 11,9 C 11,9 C 84 % 1020,3 hPa 0,0 mm 0,8 km/h (0 Bft) S-SO 167 0 min 0,000 mm 0,0 UV-I 0 W/m 9,3 C 1,6 km/h (1 Bft)
06.07.2016 23:38 11,8 C 11,9 C 85 % 1020,3 hPa 0,0 mm 0,7 km/h (0 Bft) S-SO 167 0 min 0,000 mm 0,0 UV-I 0 W/m 9,4 C 1,6 km/h (1 Bft)
06.07.2016 23:39 11,8 C 11,8 C 85 % 1020,3 hPa 0,0 mm 0,9 km/h (0 Bft) S-SO 167 0 min 0,000 mm 0,0 UV-I 0 W/m 9,4 C 1,6 km/h (1 Bft)
06.07.2016 23:40 11,8 C 11,8 C 85 % 1020,3 hPa 0,0 mm 1,2 km/h (1 Bft) S-SO 167 0 min 0,000 mm 0,0 UV-I 0 W/m 9,4 C 1,6 km/h (1 Bft)
06.07.2016 23:41 11,8 C 11,8 C 85 % 1020,3 hPa 0,0 mm 0,8 km/h (0 Bft) S-SO 167 0 min 0,000 mm 0,0 UV-I 0 W/m 9,4 C 1,6 km/h (1 Bft)
06.07.2016 23:42 11,7 C 11,8 C 86 % 1020,3 hPa 0,0 mm 0,6 km/h (0 Bft) S-SO 167 0 min 0,000 mm 0,0 UV-I 0 W/m 9,4 C 1,6 km/h (1 Bft)
06.07.2016 23:43 11,7 C 11,7 C 86 % 1020,3 hPa 0,0 mm 0,5 km/h (0 Bft) S-SO 167 0 min 0,000 mm 0,0 UV-I 0 W/m 9,4 C 1,6 km/h (1 Bft)
06.07.2016 23:44 11,7 C 11,7 C 86 % 1020,3 hPa 0,0 mm 0,0 km/h (0 Bft) S-SO 167 0 min 0,000 mm 0,0 UV-I 0 W/m 9,4 C 0,0 km/h (0 Bft)
06.07.2016 23:45 11,7 C 11,7 C 87 % 1020,3 hPa 0,0 mm 0,0 km/h (0 Bft) S-SO 167 0 min 0,000 mm 0,0 UV-I 0 W/m 9,6 C 0,0 km/h (0 Bft)
06.07.2016 23:46 11,7 C 11,7 C 86 % 1020,3 hPa 0,0 mm 0,3 km/h (0 Bft) S-SO 167 0 min 0,000 mm 0,0 UV-I 0 W/m 9,4 C 1,6 km/h (1 Bft)
06.07.2016 23:47 11,7 C 11,7 C 87 % 1020,3 hPa 0,0 mm 1,3 km/h (1 Bft) S-SO 167 0 min 0,000 mm 0,0 UV-I 0 W/m 9,6 C 1,6 km/h (1 Bft)
06.07.2016 23:48 11,7 C 11,7 C 87 % 1020,3 hPa 0,0 mm 0,4 km/h (0 Bft) S-SO 167 0 min 0,000 mm 0,0 UV-I 0 W/m 9,6 C 1,6 km/h (1 Bft)
06.07.2016 23:49 11,7 C 11,7 C 87 % 1020,3 hPa 0,0 mm 1,3 km/h (1 Bft) S-SO 167 0 min 0,000 mm 0,0 UV-I 0 W/m 9,6 C 1,6 km/h (1 Bft)
06.07.2016 23:50 11,7 C 11,7 C 87 % 1020,3 hPa 0,0 mm 0,3 km/h (0 Bft) S-SO 167 0 min 0,000 mm 0,0 UV-I 0 W/m 9,6 C 1,6 km/h (1 Bft)
06.07.2016 23:51 11,7 C 11,7 C 87 % 1020,3 hPa 0,0 mm 0,6 km/h (0 Bft) S-SO 167 0 min 0,000 mm 0,0 UV-I 0 W/m 9,6 C 1,6 km/h (1 Bft)
06.07.2016 23:52 11,8 C 11,8 C 87 % 1020,3 hPa 0,0 mm 0,3 km/h (0 Bft) S-SO 167 0 min 0,000 mm 0,0 UV-I 0 W/m 9,7 C 1,6 km/h (1 Bft)
06.07.2016 23:53 11,8 C 11,8 C 87 % 1020,3 hPa 0,0 mm 0,8 km/h (0 Bft) S-SO 167 0 min 0,000 mm 0,0 UV-I 0 W/m 9,7 C 1,6 km/h (1 Bft)
06.07.2016 23:54 11,8 C 11,8 C 87 % 1020,3 hPa 0,0 mm 1,3 km/h (1 Bft) S-SO 167 0 min 0,000 mm 0,0 UV-I 0 W/m 9,7 C 1,6 km/h (1 Bft)
06.07.2016 23:55 11,8 C 11,9 C 87 % 1020,4 hPa 0,0 mm 1,5 km/h (1 Bft) S-SO 167 0 min 0,000 mm 0,0 UV-I 0 W/m 9,7 C 1,6 km/h (1 Bft)
06.07.2016 23:56 11,9 C 11,9 C 87 % 1020,3 hPa 0,0 mm 1,0 km/h (0 Bft) S-SO 167 0 min 0,000 mm 0,0 UV-I 0 W/m 9,8 C 1,6 km/h (1 Bft)
06.07.2016 23:57 11,9 C 11,9 C 87 % 1020,3 hPa 0,0 mm 1,5 km/h (1 Bft) S-SO 167 0 min 0,000 mm 0,0 UV-I 0 W/m 9,8 C 4,8 km/h (1 Bft)
06.07.2016 23:58 11,9 C 11,9 C 87 % 1020,3 hPa 0,0 mm 0,9 km/h (0 Bft) S-SO 167 0 min 0,000 mm 0,0 UV-I 0 W/m 9,8 C 1,6 km/h (1 Bft)
06.07.2016 23:59 11,9 C 11,9 C 87 % 1020,3 hPa 0,0 mm 1,4 km/h (1 Bft) S-SO 167 0 min 0,000 mm 0,0 UV-I 0 W/m 9,8 C 1,6 km/h (1 Bft)
_ Min-Zeit 23:51 23:51 18:45 05:14 - 23:45 - - - - - - 23:37 23:45
Minimum _ 11,7 C 11,7 C 62 % 1016,4 hPa - 0,0 km/h (0 Bft) - - - - - - 9,3 C 0,0 km/h (0 Bft)
_ Max-Zeit 16:01 16:01 23:59 23:55 23:59 15:03 - - 21:03 15:00 14:16 14:19 15:43 15:03
Maximum _ 19,8 C 19,8 C 87 % 1020,4 hPa 0,0 mm 16,2 km/h
W (3 Bft)
- - 1 min 0,280 mm 7,5 UV-I 1134 W/m 14,0 C 24,1 km/h
W-NW (4 Bft)
Durchschnitt _ 16,3 C 16,3 C 74 % 1017,9 hPa #0,0 mm 3,6 km/h (1 Bft) W-NW - #50 min. #2,108 mm 2,2 UV-I 124 W/m 11,5 C 5,9 km/h (2 Bft)